[[{"header":{"parameterUnit":"m.s-1","parameterCategory":1,"la1":31.0,"la2":29.5877,"lo1":-88.7671,"lo2":-86.6584,"dx":0.0162,"dy":0.0185,"nx":115,"ny":88,"refTime":"2023-01-04T18:00:00:Z","depth":0,"parameterNumber":2,"parameterNumberName":"U-component_of_WINDS"},"data":[0.0,0.0,0.0,0.0,0.0,0.0,0.0,0.0,0.0,0.0,0.0,0.0,0.0,0.0,0.0,0.0,0.0,0.0,0.0,0.0,0.0,0.0,0.0,0.0,0.0,0.0,0.0,0.0,0.0,0.0,0.0,0.0,0.0,0.0,0.0,0.0,0.0,0.0,0.0,0.0,0.0,0.706,0.6611,0.6469,0.6276,0.6193,0.6173,0.0,0.0,0.0,0.0,0.0,0.0,0.0,0.0,0.0,0.0,0.0,0.0,0.0,0.0,0.0,0.0,0.0,0.0,0.0,0.0,0.0,0.0,0.0,0.0,0.0,0.0,0.0,0.0,0.0,0.0,0.0,0.0,0.0,0.0,0.0,0.0,0.0,0.0,0.0,0.0,0.0,0.0,0.0,0.0,0.0,0.0,0.0,0.0,0.0,0.0,0.0,0.0,0.0,0.0,0.0,0.0,0.0,0.0,0.0,0.0,0.0,0.0,0.0,0.0,0.0,0.0,0.0,0.0,0.0,0.0,0.0,0.0,0.0,0.0,0.0,0.0,0.0,0.0,0.0,0.0,0.0,0.0,0.0,0.0,0.0,0.0,0.0,0.0,0.0,0.0,0.0,0.0,0.0,0.0,0.0,0.0,0.0,0.0,0.0,0.0,0.0,0.0,0.0,0.0,0.0,0.0,0.0,0.0,0.0,0.0,0.7316,0.688,0.646,0.6201,0.622,0.0,0.0,0.0,0.0,0.0,0.0,0.0,0.0,0.0,0.0,0.0,0.0,0.0,0.0,0.0,0.0,0.0,0.0,0.0,0.0,0.0,0.0,0.0,0.0,0.0,0.0,0.0,0.0,0.0,0.0,0.0,0.0,0.0,0.0,0.0,0.0,0.0,0.0,0.0,0.0,0.0,0.0,0.0,0.0,0.0,0.0,0.0,0.0,0.0,0.0,0.0,0.0,0.0,0.0,0.0,0.0,0.0,0.0,0.0,0.0,0.0,0.0,0.0,0.0,0.0,0.0,0.0,0.0,0.0,0.0,0.0,0.0,0.0,0.0,0.0,0.0,0.0,0.0,0.0,0.0,0.0,0.0,0.0,0.0,0.0,0.0,0.0,0.0,0.0,0.0,0.0,0.0,0.0,0.0,0.0,0.0,0.0,0.0,0.0,0.0,0.0,0.0,0.0,0.0,0.0,0.0,0.0,0.0,0.0,0.0,0.7437,0.7316,0.6583,0.6199,0.6219,0.0,0.0,0.0,0.0,0.0,0.0,0.0,0.0,0.0,0.0,0.0,0.0,0.0,0.0,0.0,0.0,0.0,0.0,0.0,0.0,0.0,0.0,0.0,0.0,0.0,0.0,0.0,0.0,0.0,0.0,0.0,0.0,0.0,0.0,0.0,0.0,0.0,0.0,0.0,0.0,0.0,0.0,0.0,0.0,0.0,0.0,0.0,0.0,0.0,0.0,0.0,0.0,0.0,0.0,0.0,0.0,0.0,0.0,0.0,0.0,0.0,0.0,0.0,0.0,0.0,0.0,0.0,0.0,0.0,0.0,0.0,0.0,0.0,0.0,0.0,0.0,0.0,0.0,0.0,0.0,0.0,0.0,0.0,0.0,0.0,0.0,0.0,0.0,0.0,0.0,0.0,0.0,0.0,0.0,0.0,0.0,0.0,0.0,0.0,0.0,0.0,0.0,0.0,0.0,0.0,0.0,0.0,0.0,0.0,0.0,0.7881,0.7736,0.7099,0.6747,0.6721,0.6473,0.0,0.0,0.0,0.0,0.0,0.0,0.0,0.0,0.0,0.0,0.0,0.0,0.0,0.0,0.0,0.0,0.0,0.0,0.0,0.0,0.0,0.0,0.0,0.0,0.0,0.0,0.0,0.0,0.0,0.0,0.0,0.0,0.0,0.0,0.0,0.0,0.0,0.0,0.0,0.0,0.0,0.0,0.0,0.0,0.0,0.0,0.0,0.0,0.0,0.0,0.0,0.0,0.0,0.0,0.0,0.0,0.0,0.0,0.0,0.0,0.0,0.0,0.0,0.0,0.0,0.0,0.0,0.0,0.0,0.0,0.0,0.0,0.0,0.0,0.0,0.0,0.0,0.0,0.0,0.0,0.0,0.0,0.0,0.0,0.0,0.0,0.0,0.0,0.0,0.0,0.0,0.0,0.0,0.0,0.0,0.0,0.0,0.0,0.0,0.0,0.0,0.0,0.0,0.0,0.0,0.0,0.0,0.0,0.0,0.8356,0.8059,0.7601,0.7358,0.733,0.6808,0.0,0.0,0.0,0.0,0.0,0.0,0.0,0.0,0.0,0.0,0.0,0.0,0.0,0.0,0.0,0.0,0.0,0.0,0.0,0.0,0.0,0.0,0.0,0.0,0.0,0.0,0.0,0.0,0.0,0.0,0.0,0.0,0.0,0.0,0.0,0.0,0.0,0.0,0.0,0.0,0.0,0.0,0.0,0.0,0.0,0.0,0.0,0.0,0.0,0.0,0.0,0.0,0.0,0.0,0.0,0.0,0.0,0.0,0.0,0.0,0.0,0.0,0.0,0.0,0.0,0.0,0.0,0.0,0.0,0.0,0.0,0.0,0.0,0.0,0.0,0.0,0.0,0.0,0.0,0.0,0.0,0.0,0.0,0.0,0.0,0.0,0.0,0.0,0.0,0.0,0.0,0.0,0.0,0.0,0.0,0.0,0.0,0.0,0.0,0.0,0.0,0.0,0.0,0.0,0.0,0.0,0.0,0.0,0.0,0.8495,0.8377,0.7754,0.7296,0.7031,0.6702,0.0,0.0,0.0,0.0,0.0,0.0,0.0,0.0,0.0,0.0,0.0,0.0,0.0,0.0,0.0,0.0,0.0,0.0,0.0,0.0,0.0,0.0,0.0,0.0,0.0,0.0,0.0,0.0,0.0,0.0,0.0,0.0,0.0,0.0,0.0,0.0,0.0,0.0,0.0,0.0,0.0,0.0,0.0,0.0,0.0,0.0,0.0,0.0,0.0,0.0,0.0,0.0,0.0,0.0,0.0,0.0,0.0,0.0,0.0,0.0,0.0,0.0,0.0,0.0,0.0,0.0,0.0,0.0,0.0,0.0,0.0,0.0,0.0,0.0,0.0,0.0,0.0,0.0,0.0,0.0,0.0,0.0,0.0,0.0,0.0,0.0,0.0,0.0,0.0,0.0,0.0,0.0,0.0,0.0,0.0,0.0,0.0,0.0,0.0,0.0,0.0,0.0,0.0,0.0,0.0,0.0,0.0,0.0,0.0,0.8517,0.8441,0.8068,0.7516,0.6984,0.6844,0.0,0.0,0.0,0.0,0.0,0.0,0.0,0.0,0.0,0.0,0.0,0.0,0.0,0.0,0.0,0.0,0.0,0.0,0.0,0.0,0.0,0.0,0.0,0.0,0.0,0.0,0.0,0.0,0.0,0.0,0.0,0.0,0.0,0.0,0.0,0.0,0.0,0.0,0.0,0.0,0.0,0.0,0.0,0.0,0.0,0.0,0.0,0.0,0.0,0.0,0.0,0.0,0.0,0.0,0.0,0.0,0.0,0.0,0.0,0.0,0.0,0.0,0.0,0.0,0.0,0.0,0.0,0.0,0.0,0.0,0.0,0.0,0.0,0.0,0.0,0.0,0.0,0.0,0.0,0.0,0.0,0.0,0.0,0.0,0.0,0.0,0.0,0.0,0.0,0.0,0.0,0.0,0.0,0.0,0.0,0.0,0.0,0.0,0.0,0.0,0.0,0.0,0.0,0.0,0.0,0.0,0.0,0.0,0.8517,0.8517,0.8517,0.8312,0.7782,0.7016,0.7048,0.0,0.0,0.0,0.0,0.0,0.0,0.0,0.0,0.0,0.0,0.0,0.0,0.0,0.0,0.0,0.0,0.0,0.0,0.0,0.0,0.0,0.0,0.0,0.0,0.0,0.0,0.0,0.0,0.0,0.0,0.0,0.0,0.0,0.0,0.0,0.0,0.0,0.0,0.0,0.0,0.0,0.0,0.0,0.0,0.0,0.0,0.0,0.0,0.0,0.0,0.0,0.0,0.0,0.0,0.0,0.0,0.0,0.0,0.0,0.0,0.0,0.0,0.0,0.0,0.0,0.0,0.0,0.0,0.0,0.0,0.0,0.0,0.0,0.0,0.0,0.0,0.0,0.0,0.0,0.0,0.0,0.0,0.0,0.0,0.0,0.0,0.0,0.0,0.0,0.0,0.0,0.0,0.0,0.0,0.0,0.0,0.0,0.0,0.0,0.0,0.0,0.0,0.0,0.0,0.0,0.0,0.0,0.8517,0.8517,0.8517,0.8517,0.8182,0.7995,0.7832,0.717,0.0,0.0,0.0,0.0,0.0,0.0,0.0,0.0,0.0,0.0,0.0,0.0,0.0,0.0,0.0,0.0,0.0,0.0,0.0,0.0,0.0,0.0,0.0,0.0,0.0,0.0,0.0,0.0,0.0,0.0,0.0,0.0,0.0,0.0,0.0,0.0,0.0,0.0,0.0,0.0,0.0,0.0,0.0,0.0,0.0,0.0,0.0,0.0,0.0,0.0,0.0,0.0,0.0,0.0,0.0,0.0,0.0,0.0,0.0,0.0,0.0,0.0,0.0,0.0,0.0,0.0,0.0,0.0,0.0,0.0,0.0,0.0,0.0,0.0,0.0,0.0,0.0,0.0,0.0,0.0,0.0,0.0,0.0,0.0,0.0,0.0,0.0,0.0,0.0,0.0,0.0,0.0,0.0,0.0,0.0,0.0,0.0,0.0,0.0,0.0,0.0,0.0,0.0,0.0,0.0,0.0,0.8313,0.8495,0.8185,0.8185,0.8452,0.8247,0.8028,0.7849,0.6942,0.0,0.0,0.0,0.0,0.0,0.0,0.0,0.0,0.0,0.0,0.0,0.0,0.0,0.0,0.0,0.0,0.0,0.0,0.0,0.0,0.0,0.0,0.0,0.0,0.0,0.0,0.0,0.0,0.0,0.0,0.0,0.0,0.0,0.0,0.0,0.0,0.0,0.0,0.0,0.0,0.0,0.0,0.0,0.0,0.0,0.0,0.0,0.0,0.0,0.0,0.0,0.0,0.0,0.0,0.0,0.0,0.0,0.0,0.0,0.0,0.0,0.0,0.0,0.0,0.0,0.0,0.0,0.0,0.0,0.0,0.0,0.0,0.0,0.0,0.0,0.0,0.0,0.0,0.0,0.0,0.0,0.0,0.0,0.0,0.0,0.0,0.0,0.0,0.0,0.0,0.0,0.0,0.0,0.0,0.0,0.0,0.0,0.0,0.0,0.0,0.0,0.0,0.0,0.0,0.0,0.0,0.8237,0.8398,0.8059,0.8017,0.8376,0.8247,0.8028,0.754,0.0,0.0,0.0,0.0,0.0,0.0,0.0,0.0,0.0,0.0,0.0,0.0,0.0,0.0,0.0,0.0,0.0,0.0,0.0,0.0,0.0,0.0,0.0,0.0,0.0,0.0,0.0,0.0,0.0,0.0,0.0,0.0,0.0,0.0,0.0,0.0,0.0,0.0,0.0,0.0,0.0,0.0,0.0,0.0,0.0,0.0,0.0,0.0,0.0,0.0,0.0,0.0,0.0,0.0,0.0,0.0,0.0,0.0,0.0,0.0,0.0,0.0,0.0,0.0,0.0,0.0,0.0,0.0,0.0,0.0,0.0,0.0,0.0,0.0,0.0,0.0,0.0,0.0,0.0,0.0,0.0,0.0,0.0,0.0,0.0,0.0,0.0,0.0,0.0,0.0,0.0,0.0,0.0,0.0,0.0,0.0,0.0,0.0,0.0,0.0,0.0,0.0,0.0,0.0,0.0,0.0,0.0,0.8359,0.8245,0.8359,0.8332,0.8086,0.8161,0.7901,0.719,0.0,0.0,0.0,0.0,0.0,0.0,0.0,0.0,0.0,0.0,0.0,0.0,0.0,0.0,0.0,0.0,0.0,0.0,0.0,0.0,0.0,0.0,0.0,0.0,0.0,0.0,0.0,0.0,0.0,0.0,0.0,0.0,0.0,0.0,0.0,0.0,0.0,0.0,0.0,0.0,0.0,0.0,0.0,0.0,0.0,0.0,0.0,0.0,0.0,0.0,0.0,0.0,0.0,0.0,0.0,0.0,0.0,0.0,0.0,0.0,0.0,0.0,0.0,0.0,0.0,0.0,0.0,0.0,0.0,0.0,0.0,0.0,0.0,0.0,0.0,0.0,0.0,0.0,0.0,0.0,0.0,0.0,0.0,0.0,0.0,0.0,0.0,0.0,0.0,0.0,0.0,0.0,0.0,0.0,0.0,0.0,0.0,0.0,0.0,0.0,0.0,0.0,0.0,0.0,0.0,0.0,0.7899,0.8086,0.865,0.8918,0.8819,0.8323,0.808,0.7796,0.7509,0.0,0.0,0.0,0.0,0.0,0.0,0.0,0.0,0.0,0.0,0.0,0.0,0.0,0.0,0.0,0.0,0.0,0.0,0.0,0.0,0.0,0.0,0.0,0.0,0.0,0.0,0.0,0.0,0.0,0.0,0.0,0.0,0.0,0.0,0.0,0.0,0.0,0.0,0.0,0.0,0.0,0.0,0.0,0.0,0.0,0.0,0.0,0.0,0.0,0.0,0.0,0.0,0.0,0.0,0.0,0.0,0.0,0.0,0.0,0.0,0.0,0.0,0.0,0.0,0.0,0.0,0.0,0.0,0.0,0.0,0.0,0.0,0.0,0.0,0.0,0.0,0.0,0.0,0.0,0.0,0.0,0.0,0.0,0.0,0.0,0.0,0.0,0.0,0.0,0.0,0.0,0.0,0.0,0.0,0.0,0.0,0.0,0.0,0.0,0.0,0.0,0.0,0.0,0.0,0.0,0.787,0.7772,0.8089,0.8885,0.9186,0.8944,0.8281,0.7861,0.7581,0.7298,0.0,0.0,0.0,0.0,0.0,0.0,0.0,0.0,0.0,0.0,0.0,0.0,0.0,0.0,0.0,0.0,0.0,0.0,0.0,0.0,0.0,0.0,0.0,0.0,0.0,0.0,0.0,0.0,0.0,0.0,0.0,0.0,0.0,0.0,0.0,0.0,0.0,0.0,0.0,0.0,0.0,0.0,0.0,0.0,0.0,0.0,0.0,0.0,0.0,0.0,0.0,0.0,0.0,0.0,0.0,0.0,0.0,0.0,0.0,0.0,0.0,0.0,0.0,0.0,0.0,0.0,0.0,0.0,0.0,0.0,0.0,0.0,0.0,0.0,0.0,0.0,0.0,0.0,0.0,0.0,0.0,0.0,0.0,0.0,0.0,0.0,0.0,0.0,0.0,0.0,0.0,0.0,0.0,0.0,0.0,0.0,0.0,0.0,0.0,0.0,0.0,0.0,0.0,0.0,0.0,0.0,0.8244,0.8587,0.8834,0.8942,0.8523,0.7601,0.7462,0.6957,0.6125,0.0,0.0,0.0,0.0,0.0,0.0,0.0,0.0,0.0,0.0,0.0,0.0,0.0,0.0,0.0,0.0,0.0,0.0,0.0,0.0,0.0,0.0,0.0,0.0,0.0,0.0,0.0,0.0,0.0,0.0,0.0,0.0,0.0,0.0,0.0,0.0,0.0,0.0,0.0,0.0,0.0,0.0,0.0,0.0,0.0,0.0,0.0,0.0,0.0,0.0,0.0,0.0,0.0,0.0,0.0,0.0,0.0,0.0,0.0,0.0,0.0,0.0,0.0,0.0,0.0,0.0,0.0,0.0,0.0,0.0,0.0,0.0,0.0,0.0,0.0,0.0,0.0,0.0,0.0,0.0,0.0,0.0,0.0,0.0,0.0,0.0,0.0,0.0,0.0,0.0,0.0,0.0,0.0,0.0,0.0,0.0,0.0,0.0,0.0,0.0,0.0,0.0,0.0,0.0,0.0,0.0,0.8143,0.8371,0.8788,0.8479,0.8489,0.8865,0.7335,0.6319,0.6155,0.0,0.0,0.0,0.0,0.0,0.0,0.0,0.0,0.0,0.0,0.0,0.0,0.0,0.0,0.0,0.0,0.0,0.0,0.0,0.0,0.0,0.0,0.0,0.0,0.0,0.0,0.0,0.0,0.0,0.0,0.0,0.0,0.0,0.0,0.0,0.0,0.0,0.0,0.0,0.0,0.0,0.0,0.0,0.0,0.0,0.0,0.0,0.0,0.0,0.0,0.0,0.0,0.0,0.0,0.0,0.0,0.0,0.0,0.0,0.0,0.0,0.0,0.0,0.0,0.0,0.0,0.0,0.0,0.0,0.0,0.0,0.0,0.0,0.0,0.0,0.0,0.0,0.0,0.0,0.0,0.0,0.0,0.0,0.0,0.0,0.0,0.0,0.0,0.0,0.0,0.0,0.0,0.0,0.0,0.0,0.0,0.0,0.0,0.0,0.0,0.0,0.0,0.0,0.0,0.0,0.0,0.838,0.8323,0.8193,0.7754,0.7868,0.8505,0.6634,0.5616,0.0,0.0,0.0,0.0,0.0,0.0,0.0,0.0,0.0,0.0,0.0,0.0,0.0,0.0,0.0,0.0,0.0,0.0,0.0,0.0,0.0,0.0,0.0,0.0,0.0,0.0,0.0,0.0,0.0,0.0,0.0,0.0,0.0,0.0,0.0,0.0,0.0,0.0,0.0,0.0,0.0,0.0,0.0,0.0,0.0,0.0,0.0,0.0,0.0,0.0,0.0,0.0,0.0,0.0,0.0,0.0,0.0,0.0,0.0,0.0,0.0,0.0,0.0,0.0,0.0,0.0,0.0,0.0,0.0,0.0,0.0,0.0,0.0,0.0,0.0,0.0,0.0,0.0,0.0,0.0,0.0,0.0,0.0,0.0,0.0,0.0,0.0,0.0,0.0,0.0,0.0,0.0,0.0,0.0,0.0,0.0,0.0,0.0,0.0,0.0,0.0,0.0,0.0,0.0,0.0,0.0,0.0,0.9089,0.8634,0.6933,0.6932,0.6848,0.6426,0.5445,0.481,0.0,0.0,0.0,0.0,0.0,0.0,0.0,0.0,0.0,0.0,0.0,0.0,0.0,0.0,0.0,0.0,0.0,0.0,0.0,0.0,0.0,0.0,0.0,0.0,0.0,0.0,0.0,0.0,0.0,0.0,0.0,0.0,0.0,0.0,0.0,0.0,0.0,0.0,0.0,0.0,0.0,0.0,0.0,0.0,0.0,0.0,0.0,0.0,0.0,0.0,0.0,0.0,0.0,0.0,0.0,0.0,0.0,0.0,0.0,0.0,0.0,0.0,0.0,0.0,0.0,0.0,0.0,0.0,0.0,0.0,0.0,0.0,0.0,0.0,0.0,0.0,0.0,0.0,0.0,0.0,0.0,0.0,0.0,0.0,0.0,0.0,0.0,0.0,0.0,0.0,0.0,0.0,0.0,0.0,0.0,0.0,0.0,0.0,0.0,0.0,0.0,0.0,0.0,0.0,0.0,0.0,0.0,0.7838,0.7779,0.7286,0.6986,0.671,0.658,0.5419,0.4489,0.3875,0.0,0.0,0.0,0.0,0.0,0.0,0.0,0.0,0.0,0.0,0.0,0.0,0.0,0.0,0.0,0.0,0.0,0.0,0.0,0.0,0.0,0.0,0.0,0.0,0.0,0.0,0.0,0.0,0.0,0.0,0.0,0.0,0.0,0.0,0.0,0.0,0.0,0.0,0.0,0.0,0.0,0.0,0.0,0.0,0.0,0.0,0.0,0.0,0.0,0.0,0.0,0.0,0.0,0.0,0.0,0.0,0.0,0.0,0.0,0.0,0.0,0.0,0.0,0.0,0.0,0.0,0.0,0.0,0.0,0.0,0.0,0.0,0.0,0.0,0.0,0.0,0.0,0.0,0.0,0.0,0.0,0.0,0.0,0.0,0.0,0.0,0.0,0.0,0.0,0.0,0.0,0.0,0.0,0.0,0.0,0.0,0.0,0.0,0.0,0.0,0.0,0.0,0.0,0.0,0.0,0.0,0.7459,0.7259,0.6456,0.649,0.652,0.6543,0.5555,0.4375,0.3132,0.0,0.0,0.0,0.0,0.0,0.0,0.0,0.0,0.0,0.0,0.0,0.0,0.0,0.0,0.0,0.0,0.0,0.0,0.0,0.0,0.0,0.0,0.0,0.0,0.0,0.0,0.0,0.0,0.0,0.0,0.0,0.0,0.0,0.0,0.0,0.0,0.0,0.0,0.0,0.0,0.0,0.0,0.0,0.0,0.0,0.0,0.0,0.0,0.0,0.0,0.0,0.0,0.0,0.0,0.0,0.0,0.0,0.0,0.0,0.0,0.0,0.0,0.0,0.0,0.0,0.0,0.0,0.0,0.0,0.0,0.0,0.0,0.0,0.0,0.0,0.0,0.0,0.0,0.0,0.0,0.0,0.0,0.0,0.0,0.0,0.0,0.0,0.0,0.0,0.0,0.0,0.0,0.0,0.0,0.0,0.0,0.0,0.0,0.0,0.0,0.0,0.0,0.0,0.0,0.0,0.0,0.0,0.705,0.4678,0.5472,0.6085,0.6316,0.5817,0.4534,0.2573,0.0,0.0,0.0,0.0,0.0,0.0,0.0,0.0,0.0,0.0,0.0,0.0,0.0,0.0,0.0,0.0,0.0,0.0,0.0,0.0,0.0,0.0,0.0,0.0,0.0,0.0,0.0,0.0,0.0,0.0,0.0,0.0,0.0,0.0,0.0,0.0,0.0,0.0,0.0,0.0,0.0,0.0,0.0,0.0,0.0,0.0,0.0,0.0,0.0,0.0,0.0,0.0,0.0,0.0,0.0,0.0,0.0,0.0,0.0,0.0,0.0,0.0,0.0,0.0,0.0,0.0,0.0,0.0,0.0,0.0,0.0,0.0,0.0,0.0,0.0,0.0,0.0,0.0,0.0,0.0,0.0,0.0,0.0,0.0,0.0,0.0,0.0,0.0,0.0,0.0,0.0,0.0,0.0,0.0,0.0,0.0,0.0,0.0,0.0,0.0,0.0,0.0,0.0,0.0,0.0,0.0,0.8352,0.6698,0.4822,0.4451,0.5034,0.6654,0.6388,0.5599,0.4265,0.0,0.0,0.0,0.0,0.0,0.0,0.0,0.0,0.0,0.0,0.0,0.0,0.0,0.0,0.0,0.0,0.0,0.0,0.0,0.0,0.0,0.0,0.0,0.0,0.0,0.0,0.0,0.0,0.0,0.0,0.0,0.0,0.0,0.0,0.0,0.0,0.0,0.0,0.0,0.0,0.0,0.0,0.0,0.0,0.0,0.0,0.0,0.0,0.0,0.0,0.0,0.0,0.0,0.0,0.0,0.0,0.0,0.0,0.0,0.0,0.0,0.0,0.0,0.0,0.0,0.0,0.0,0.0,0.0,0.0,0.0,0.0,0.0,0.0,0.0,0.0,0.0,0.0,0.0,0.0,0.0,0.0,0.0,0.0,0.0,0.0,0.0,0.0,0.0,0.0,0.0,0.0,0.0,0.0,0.0,0.0,0.0,0.0,0.0,0.0,0.0,0.0,0.0,0.0,0.0,0.0,0.8088,0.6527,0.4855,0.3412,0.2875,0.3347,0.4232,0.4743,0.4676,0.0,0.0,0.0,0.0,0.0,0.0,0.0,0.0,0.0,0.0,0.0,0.0,0.0,0.0,0.0,0.0,0.0,0.0,0.0,0.0,0.0,0.0,0.0,0.0,0.0,0.0,0.0,0.0,0.0,0.0,0.0,0.0,0.0,0.0,0.0,0.0,0.0,0.0,0.0,0.0,0.0,0.0,0.0,0.0,0.0,0.0,0.0,0.0,1.5167,0.0,0.0,0.0,0.0,0.0,0.0,0.0,0.0,0.0,0.0,0.0,0.0,0.0,0.0,0.0,0.0,0.0,0.0,0.0,0.0,0.0,0.0,0.0,0.0,0.0,0.0,0.0,0.0,0.0,0.0,0.0,0.0,0.0,0.0,0.0,0.0,0.0,0.0,0.0,0.0,0.0,0.0,0.0,0.0,0.0,0.0,0.0,0.0,0.0,0.0,0.0,0.0,0.0,0.0,0.0,0.8438,0.7984,0.7499,0.6455,0.4766,0.2428,0.0465,-0.107,0.1006,0.2831,0.4077,0.0,0.0,0.0,0.0,0.0,0.0,0.0,0.0,0.0,0.0,0.0,0.0,0.0,0.0,0.0,0.0,0.0,0.0,0.0,0.0,0.0,0.0,0.0,0.0,0.0,0.0,0.0,0.0,0.0,0.0,0.0,0.0,0.0,0.0,0.0,0.0,0.0,0.0,0.0,0.0,0.0,0.0,0.0,0.0,0.0,0.0,0.0,1.4611,1.5327,0.0,0.0,0.0,0.0,0.0,0.0,0.0,0.0,0.0,0.0,0.0,0.0,0.0,0.0,0.0,0.0,0.0,0.0,0.0,0.0,0.0,0.0,0.0,0.0,0.0,0.0,0.0,0.7408,0.0,0.7622,0.0,0.0,0.0,0.0,0.0,0.0,0.0,0.0,0.0,0.0,0.0,0.0,0.0,0.0,0.0,0.0,0.0,0.0,0.0,0.0,0.0,0.0,0.0,0.0,0.8804,0.8522,0.8275,0.726,0.5934,0.4432,0.1588,0.0466,0.1341,0.1261,0.1705,0.2673,0.0,0.0,0.0,0.0,0.0,0.0,0.0,0.0,0.0,0.0,0.0,0.0,0.0,0.0,0.0,0.0,0.0,0.0,0.0,0.0,0.0,0.0,0.0,0.0,0.0,0.0,0.0,0.0,0.0,0.0,0.0,0.0,0.0,0.0,0.0,0.0,0.0,0.0,0.0,0.0,0.0,0.0,0.0,0.0,0.0,0.0,0.0,1.4036,0.0,0.0,0.0,0.0,0.0,0.0,0.0,0.0,0.0,0.0,0.0,0.0,0.0,0.0,0.0,0.0,0.0,0.0,0.0,0.0,0.0,0.0,0.0,0.0,0.0,0.0,0.0,0.0,0.73,0.7461,0.7515,0.0,0.0,0.0,0.0,0.0,0.0,0.0,0.0,0.0,0.0,0.0,0.0,0.0,0.0,0.0,0.0,0.0,0.0,0.0,0.0,0.0,0.0,0.0,0.878,0.8522,0.8477,0.8531,0.6901,0.5135,0.3327,0.0726,-0.0333,0.0334,-0.0447,0.0062,0.2148,0.0,0.0,0.0,0.0,0.0,0.0,0.0,0.0,0.0,0.0,0.0,0.0,0.0,0.0,0.0,0.0,0.0,0.0,0.0,0.0,0.0,0.0,0.0,0.0,0.0,0.0,0.0,0.0,0.0,0.0,0.0,0.0,0.0,0.0,0.0,0.0,0.0,1.4207,1.4327,0.0,0.0,0.0,0.0,0.0,0.0,0.0,0.0,1.3667,1.4501,0.0,0.0,0.0,0.0,0.0,0.0,0.0,0.0,0.0,0.0,0.0,0.0,0.0,0.0,0.0,0.0,0.0,0.0,0.0,0.0,0.0,0.0,0.0,0.0,0.0,0.0,0.0,0.7257,0.7311,0.7365,0.0,0.0,0.0,0.0,0.0,0.0,0.0,0.0,0.0,0.0,0.0,0.0,0.0,0.0,0.0,0.0,0.0,0.0,0.0,0.0,0.0,0.0,0.0,0.8483,0.8337,0.8466,0.8739,0.6768,0.4284,0.1612,-0.0066,-0.1267,-0.1939,-0.2604,-0.1515,0.1597,0.0,0.0,0.0,0.0,0.0,0.0,0.0,0.0,0.0,0.0,0.0,0.0,0.0,0.0,0.0,0.0,0.0,0.0,0.0,0.0,0.0,0.0,0.0,0.0,0.0,0.0,0.0,0.0,0.0,0.0,0.0,0.0,0.0,0.0,0.0,0.0,0.0,1.4105,1.4159,1.3058,1.2134,0.0,0.0,0.0,0.0,0.0,0.0,0.0,1.3667,1.4048,1.4538,0.0,0.0,0.0,0.0,0.0,0.0,0.0,0.0,0.0,0.0,0.0,0.0,0.0,0.0,0.0,0.0,0.0,0.0,0.0,0.0,0.0,0.0,0.0,0.0,0.0,0.7257,0.7365,0.7461,0.0,0.0,0.0,0.0,0.0,0.0,0.0,0.0,0.0,0.0,0.0,0.0,0.0,0.0,0.0,0.0,0.0,0.0,0.0,0.0,0.0,0.0,0.0,0.0,0.8533,0.8572,0.8581,0.7121,0.3781,-0.1298,-0.0607,-0.1205,-0.3293,-0.3201,-0.2151,-0.0306,0.1319,0.0,0.0,0.0,0.0,0.0,0.0,0.0,0.0,0.0,0.0,0.0,0.0,0.0,0.0,0.0,0.0,0.0,0.0,0.0,0.0,0.0,0.0,0.0,0.0,0.0,0.0,0.0,0.0,0.0,0.0,0.0,0.0,0.0,0.0,0.0,0.0,1.4134,1.3735,1.2695,1.2134,1.2774,0.0,0.0,0.0,0.0,0.0,1.306,1.2739,1.2801,1.37,1.4241,0.0,0.0,0.0,0.0,0.0,0.0,0.0,0.0,0.0,0.0,0.0,0.0,0.0,0.0,0.0,0.0,0.0,0.0,0.0,0.0,0.0,0.0,0.0,0.0,0.7203,0.7311,0.73,0.7365,0.7419,0.0,0.0,0.0,0.0,0.7039,0.0,0.0,0.0,0.0,0.0,0.0,0.0,0.0,0.0,0.0,0.0,0.0,0.0,0.0,0.0,0.0,0.0,0.834,0.8091,0.7235,0.6022,0.2718,-0.2423,-0.156,-0.2026,-0.412,-0.3609,-0.2959,-0.2148,0.0,0.0,0.0,0.0,0.0,0.0,0.0,0.0,0.0,0.0,0.0,0.0,0.0,0.0,0.0,0.0,0.0,0.0,0.0,0.0,0.0,0.0,0.0,0.0,0.0,0.0,0.0,0.0,0.0,0.0,0.0,0.0,0.0,0.0,0.0,0.0,0.0,0.0,1.3819,1.3074,1.2648,1.2875,1.2114,1.1652,1.2254,1.2137,1.2014,1.2093,1.1992,1.208,1.2696,0.0,0.0,0.0,0.0,0.0,0.0,0.0,0.0,0.0,0.0,0.0,0.0,0.0,0.0,0.0,0.0,0.0,0.0,0.0,0.0,0.0,0.0,0.0,0.0,0.0,0.0,0.7257,0.7139,0.7257,0.7257,0.7139,0.0,0.0,0.0,0.6867,0.688,0.0,0.0,0.0,0.0,0.0,0.0,0.0,0.0,0.0,0.0,0.0,0.0,0.0,0.0,0.0,0.0,0.807,0.7638,0.6195,0.4842,0.1872,-0.258,-0.2464,-0.2942,-0.4335,-0.3813,-0.3461,-0.3329,0.0,0.0,0.0,0.0,0.0,0.0,0.0,0.0,0.0,0.0,0.0,0.0,0.0,0.0,0.0,0.0,0.0,0.0,0.0,0.0,0.0,0.0,0.0,0.0,0.0,0.0,0.0,0.0,0.0,0.0,0.0,0.0,0.0,0.0,0.0,0.0,0.0,0.0,0.0,1.36,1.3155,1.2989,1.2277,1.1854,1.1883,1.1654,1.1452,1.1518,1.1556,1.1641,0.0,0.0,0.0,0.0,0.0,0.0,0.0,0.0,0.0,0.0,0.0,0.0,0.0,0.0,0.0,0.0,0.0,0.0,0.0,0.0,0.0,0.0,0.7042,0.6845,0.0,0.0,0.7203,0.7257,0.7311,0.7311,0.7311,0.7257,0.7139,0.7041,0.0,0.6921,0.6966,0.6969,0.0,0.0,0.0,0.0,0.0,0.0,0.0,0.0,0.0,0.0,0.0,0.0,0.0,0.0,0.0,0.0,0.7448,0.6498,0.4452,0.1723,-0.1717,-0.2819,-0.3422,-0.3644,-0.361,-0.3401,-0.3096,0.0,0.0,0.0,0.0,0.0,0.0,0.0,0.0,0.0,0.0,0.0,0.0,0.0,0.0,0.0,0.0,0.0,0.0,0.0,0.0,0.0,0.0,0.0,0.0,0.0,0.9747,0.0,0.0,0.0,0.0,0.0,0.0,0.0,0.0,0.0,0.0,0.0,0.0,0.0,0.0,1.3026,1.3835,1.2535,1.1723,1.2265,1.2179,1.2054,1.2251,1.1874,1.1527,0.0,0.0,0.0,0.0,0.0,0.0,0.0,0.0,0.0,0.0,0.0,0.0,0.0,0.0,0.0,0.0,0.0,0.0,0.0,0.0,0.0,0.0,0.6653,0.6572,0.6652,0.6815,0.7095,0.7192,0.7192,0.7192,0.7192,0.7149,0.6949,0.6779,0.6575,0.6322,0.6191,0.6171,0.0,0.0,0.0,0.0,0.0,0.0,0.0,0.0,0.0,0.0,0.0,0.0,0.7204,0.6976,0.6634,0.7462,0.7122,0.5503,0.4635,0.2199,-0.1985,-0.3543,-0.4435,-0.4725,-0.425,-0.3586,0.0,0.0,0.0,0.0,0.0,0.0,0.0,0.0,0.0,0.0,0.0,0.0,0.0,0.0,0.0,0.0,0.0,0.0,0.0,0.0,0.0,0.0,0.0,0.0,0.0,0.9054,0.9544,1.0173,0.0,0.0,0.0,0.0,0.0,0.0,0.0,0.0,0.0,0.0,0.0,0.0,0.0,1.3917,1.3735,1.3119,1.2498,1.2151,1.2131,1.2011,1.1493,1.1253,1.1021,0.0,0.0,0.0,0.0,0.0,0.0,0.0,0.0,0.0,0.0,0.0,0.0,0.0,0.0,0.0,0.0,0.0,0.0,0.5411,0.5815,0.6086,0.6138,0.612,0.6257,0.6436,0.6652,0.6923,0.6977,0.7031,0.6923,0.6923,0.6825,0.6592,0.6389,0.6163,0.5709,0.5463,0.5374,0.5261,0.0,0.0,0.0,0.0,0.0,0.0,0.0,0.0,0.0,0.0,0.6398,0.6527,0.6266,0.5868,0.6803,0.6197,0.4094,0.436,0.2281,-0.247,-0.4215,-0.5365,-0.5795,-0.4825,-0.3759,0.0,0.0,0.0,0.0,0.0,0.0,0.0,0.0,0.0,0.0,0.0,0.0,0.0,0.0,0.0,0.0,0.0,0.0,0.0,0.0,0.0,0.0,0.0,0.8664,0.8723,0.8791,0.9126,0.9818,1.0624,0.0,1.0952,0.0,0.0,0.0,0.0,0.0,0.0,0.0,0.0,0.0,0.0,1.4065,1.3411,1.3239,1.2899,1.2114,1.2012,1.181,1.101,1.086,1.0627,0.0,0.0,0.0,0.0,0.0,0.0,0.0,0.0,0.0,0.0,0.0,0.0,0.0,0.0,0.0,0.0,0.0,0.0,0.4609,0.5074,0.5441,0.5596,0.553,0.5981,0.6282,0.6436,0.6652,0.6761,0.6707,0.649,0.6381,0.6263,0.5964,0.58,0.5652,0.5266,0.508,0.5107,0.5158,0.0,0.0,0.0,0.0,0.0,0.0,0.0,0.0,0.0,0.0,0.5135,0.4945,0.4816,0.4613,0.526,0.4472,0.2479,0.3085,0.1455,-0.2778,-0.4667,-0.5881,-0.6261,-0.519,-0.3937,0.0,0.0,0.0,0.0,0.0,0.0,0.0,0.0,0.0,0.0,0.0,0.0,0.0,0.0,0.0,0.0,0.0,0.0,0.0,0.0,0.0,0.0,0.0,0.0,0.8942,0.8762,0.8728,0.9056,0.9716,1.0149,1.002,0.0,0.0,0.0,0.0,0.0,0.0,0.0,0.0,0.0,0.0,1.2886,1.2921,1.2439,1.2191,1.2498,1.1922,1.1502,1.1674,1.1272,1.0593,0.9753,1.0164,1.048,0.0,0.0,0.0,0.0,0.0,0.0,0.0,0.0,0.0,0.0,0.0,0.0,0.0,0.0,0.0,0.3605,0.4183,0.4374,0.468,0.4986,0.5376,0.5782,0.6164,0.6154,0.6154,0.61,0.5828,0.5719,0.5618,0.5338,0.5216,0.5167,0.4656,0.4449,0.4411,0.4003,0.0,0.0,0.0,0.0,0.0,0.0,0.0,0.0,0.0,0.0,0.4159,0.4415,0.4193,0.3584,0.5029,0.4214,0.114,0.164,-0.0447,-0.5237,-0.5867,-0.6366,-0.7045,-0.5513,-0.4021,-0.2581,0.0,0.0,0.0,0.0,0.0,0.0,0.0,0.0,0.0,0.0,0.0,0.0,0.0,0.0,0.0,0.0,0.0,0.0,0.0,0.0,0.0,0.0,0.0,0.0,0.9419,0.9753,1.0182,1.0662,1.0719,1.0247,1.0506,0.0,0.0,0.0,0.0,0.0,0.0,0.0,1.2193,0.0,1.2556,1.2191,1.2249,1.2231,1.1922,1.2233,1.2299,1.1695,1.1335,1.0739,0.9781,0.9352,0.9045,0.8965,0.0,0.0,0.0,0.0,0.0,0.0,0.0,0.0,0.0,0.0,0.0,0.0,0.0,0.0,0.2463,0.293,0.3401,0.3795,0.4187,0.4574,0.5037,0.5584,0.5187,0.5282,0.5546,0.4879,0.4636,0.4692,0.4415,0.4206,0.4213,0.3798,0.3664,0.3623,0.3047,0.2372,0.0,0.0,0.0,0.0,0.0,0.0,0.0,0.0,0.0,0.3399,0.3648,0.3312,0.2502,0.3931,0.3033,-0.0339,-0.022,-0.2235,-0.657,-0.6534,-0.6663,-0.7119,-0.5579,-0.3997,-0.2577,0.0,0.0,0.0,0.0,0.2424,0.0,0.0,0.0,0.0,0.0,0.0,0.0,0.0,0.0,0.0,0.0,0.0,0.0,0.0,0.0,0.0,0.0,0.0,0.0,0.0,1.0263,1.0327,1.0762,1.0782,1.02,0.9958,1.0058,1.0478,0.0,0.0,0.0,0.0,0.0,0.0,1.1873,1.2042,1.1696,1.1944,1.2065,1.1377,1.18,1.1907,1.1167,1.0931,1.0668,1.0028,0.9645,0.9396,0.9087,0.893,0.8955,0.9028,0.9486,0.9794,0.9723,0.0,0.0,0.0,0.0,0.0,0.0,0.0,0.0,0.1115,0.1465,0.2521,0.2936,0.2961,0.3572,0.4151,0.4674,0.3789,0.4104,0.5207,0.3618,0.3124,0.3319,0.2949,0.2863,0.2815,0.2723,0.2863,0.297,0.2384,0.1182,-0.0347,-0.0836,-0.0907,-0.0485,0.084,0.1862,0.253,0.1791,0.1808,0.2569,0.2457,0.207,0.1544,0.1593,0.0419,-0.2023,-0.2685,-0.3867,-0.5583,-0.6368,-0.6681,-0.6331,-0.5235,-0.3955,-0.2553,0.0,0.0,0.0,0.0,0.3005,0.0,0.0,0.0,0.0,0.0,0.0,0.0,0.0,0.0,0.0,0.0,0.0,0.0,0.0,0.0,0.0,0.0,0.0,0.0,0.0,0.9673,0.8944,0.942,0.9881,0.9817,1.0003,0.9974,0.0,0.0,0.0,0.0,0.0,1.0805,1.112,1.1303,1.1341,1.1403,1.1499,1.1361,1.1105,1.0472,1.0023,0.9968,1.0025,1.0126,1.0382,1.1327,0.0,0.0,0.0,0.0,0.0,0.0,0.0,0.0,0.0,0.0,0.0,0.0,0.0,0.0,0.0,0.0,-0.0354,0.0228,0.0854,0.1297,0.1615,0.2119,0.2875,0.3675,0.3168,0.3045,0.3151,0.2367,0.1956,0.1933,0.2441,0.2546,0.2318,0.2151,0.1734,0.1158,0.0267,-0.1038,-0.2652,-0.2402,-0.2202,-0.2124,-0.1927,-0.0816,0.0953,0.0986,0.0915,0.0862,0.113,0.082,-0.0125,0.0069,-0.1148,-0.3669,-0.4283,-0.5143,-0.6292,-0.6592,-0.6654,-0.6559,-0.5294,-0.3647,-0.1589,0.119,0.0,0.0,0.1966,0.2539,0.0,0.0,0.0,0.0,0.0,0.0,0.0,0.0,0.0,0.0,0.0,0.0,0.0,0.0,0.0,0.0,0.0,0.0,0.0,0.0,1.0484,1.0221,0.9903,0.9814,0.9855,0.9572,0.9379,0.9614,0.9796,1.0159,1.0802,1.0854,1.0779,1.0739,1.022,0.9834,0.9591,0.9785,1.0007,1.0407,1.0391,1.0363,1.0455,1.0184,0.9815,0.9447,0.9242,0.8999,0.8462,0.8862,0.8777,0.767,0.8368,0.8725,0.7756,0.7533,0.7644,0.8286,0.8772,0.8818,0.7819,0.7692,0.7289,-0.1559,-0.0983,-0.0283,0.0057,0.023,0.0466,0.0916,0.1365,0.0846,0.0662,0.0745,0.0327,0.019,0.037,0.1387,0.1614,0.12,0.081,-0.0,-0.1089,-0.1695,-0.3011,-0.4828,-0.416,-0.3784,-0.3699,-0.3798,-0.3004,-0.1597,-0.0674,-0.0198,-0.0,-0.0067,-0.0466,-0.1175,-0.1063,-0.222,-0.4635,-0.4973,-0.5687,-0.6692,-0.6831,-0.6817,-0.6819,-0.4919,-0.3021,-0.1181,0.1187,0.2488,0.0,0.2159,0.0,0.0,0.0,0.0,0.0,0.0,0.0,0.0,0.0,0.0,0.0,0.0,0.0,0.0,0.0,0.0,0.0,0.0,0.0,0.0,1.0592,1.0754,1.0893,1.0036,0.9412,0.945,0.8935,0.8766,0.9081,0.9221,0.9515,1.017,1.0302,1.024,0.9948,0.9615,0.917,0.869,0.908,0.9504,0.9495,0.9717,0.982,0.9771,0.9887,0.9836,0.9507,0.9461,0.9168,0.8391,0.8329,0.8236,0.7632,0.8023,0.8131,0.7443,0.7128,0.7201,0.7781,0.7994,0.7826,0.7001,0.6707,0.6215,-0.2475,-0.2145,-0.1106,-0.0759,-0.1235,-0.1336,-0.1617,-0.2164,-0.2901,-0.2721,-0.2026,-0.2149,-0.2003,-0.1343,-0.0127,0.0062,-0.0499,-0.1181,-0.2243,-0.3467,-0.3549,-0.4661,-0.6605,-0.6078,-0.5687,-0.5416,-0.4815,-0.4696,-0.4945,-0.3228,-0.1533,-0.0136,-0.1207,-0.1703,-0.1619,-0.1823,-0.2984,-0.494,-0.4861,-0.5459,-0.6774,-0.6994,-0.6979,-0.689,-0.4027,-0.2061,-0.1347,-0.033,0.1277,0.373,0.342,0.0,0.0,0.0,0.0,0.0,0.0,0.0,0.0,0.0,0.0,0.0,0.0,0.0,0.0,0.0,0.0,0.0,0.0,0.0,1.0617,1.0374,1.0381,1.1028,0.967,0.8663,0.8617,0.8296,0.8127,0.8098,0.8243,0.8542,0.898,0.918,0.9163,0.8918,0.9285,0.9333,0.8666,0.9393,0.9658,0.8369,0.8405,0.8463,0.813,0.9074,1.0159,1.0559,1.1925,1.2312,1.0658,0.9234,0.8069,0.6881,0.747,0.8073,0.8459,0.7515,0.681,0.6822,0.6379,0.5777,0.5669,0.5289,0.4634,-0.4276,-0.3596,-0.3148,-0.3119,-0.3305,-0.3259,-0.3632,-0.4213,-0.3755,-0.3736,-0.4051,-0.2422,-0.1827,-0.1778,-0.0756,-0.0753,-0.1676,-0.3027,-0.3808,-0.4187,-0.5274,-0.6153,-0.6709,-0.6602,-0.6544,-0.6454,-0.6389,-0.5996,-0.5352,-0.4894,-0.3955,-0.25,-0.2316,-0.2241,-0.2292,-0.211,-0.2847,-0.4444,-0.4674,-0.5092,-0.5615,-0.6012,-0.5812,-0.5107,-0.2279,-0.1125,-0.2067,0.1214,0.2889,0.2479,0.3561,0.0,0.3942,0.0,0.0,0.0,0.0,0.621,0.7381,0.7912,0.0,0.0,0.0,1.0741,0.0,0.0,0.0,0.0,1.0422,1.004,1.004,1.0729,1.0754,0.9667,0.8983,0.8507,0.8465,0.817,0.7941,0.7888,0.8066,0.8187,0.795,0.8218,0.8505,0.8541,0.8164,0.7766,0.7468,0.7937,0.8268,0.8139,0.8095,0.8434,0.9397,0.9464,0.9669,1.0454,1.0924,1.1009,1.0527,0.9706,0.9014,0.8663,0.8459,0.8418,0.8549,0.8323,0.784,0.7461,0.7449,0.734,0.6861,0.5408,0.4164,-0.5495,-0.4704,-0.4372,-0.4237,-0.4257,-0.422,-0.4447,-0.4851,-0.4334,-0.4281,-0.4542,-0.3156,-0.2523,-0.2365,-0.1656,-0.1582,-0.2046,-0.3587,-0.4413,-0.4513,-0.5658,-0.6376,-0.6537,-0.6449,-0.6399,-0.6405,-0.6518,-0.6328,-0.5711,-0.5265,-0.4704,-0.383,-0.3235,-0.2669,-0.235,-0.2683,-0.3458,-0.4359,-0.4148,-0.443,-0.5139,-0.5397,-0.5561,-0.5344,-0.1905,0.009,0.0178,0.2798,0.4005,0.3306,0.4121,0.4619,0.0,0.4809,0.498,0.5216,0.5542,0.6148,0.7195,0.7717,0.0,0.0,1.0449,1.0931,1.067,0.0,0.0,1.1707,1.1009,1.048,1.042,1.0341,1.0003,0.9216,0.8278,0.7753,0.7973,0.739,0.7025,0.723,0.7242,0.7126,0.7021,0.7325,0.7697,0.8037,0.7903,0.7541,0.7102,0.7563,0.793,0.7738,0.7809,0.834,0.9545,0.9696,1.0175,1.1636,1.1815,1.1836,1.1825,1.1392,1.0905,1.0518,0.982,0.9226,0.932,0.8939,0.8555,0.8239,0.8087,0.7642,0.628,0.464,0.3227,-0.6185,-0.5474,-0.5017,-0.4664,-0.4412,-0.452,-0.4624,-0.4642,-0.4651,-0.4472,-0.3984,-0.4065,-0.3647,-0.2879,-0.2743,-0.2352,-0.1846,-0.3242,-0.4203,-0.4811,-0.5195,-0.5746,-0.6281,-0.5925,-0.5746,-0.5746,-0.5824,-0.5891,-0.5915,-0.4643,-0.4158,-0.4328,-0.3805,-0.3057,-0.2085,-0.3371,-0.4258,-0.4518,-0.348,-0.3616,-0.497,-0.497,-0.5551,-0.6631,-0.2483,0.1228,0.4189,0.437,0.4789,0.5305,0.5014,0.5007,0.563,0.5336,0.52,0.5377,0.5665,0.6248,0.7091,0.7466,0.8117,0.925,1.0036,1.0569,1.0748,1.0475,1.0887,1.2094,1.178,1.1388,1.1073,0.9485,0.8711,0.9007,0.7493,0.6576,0.7075,0.6202,0.5764,0.6331,0.5946,0.5894,0.6477,0.6585,0.6911,0.7618,0.8055,0.8026,0.7387,0.8002,0.8291,0.7422,0.7638,0.8211,0.9263,1.0224,1.153,1.3391,1.4033,1.4013,1.3993,1.3599,1.3131,1.2384,1.1199,1.0351,1.0249,0.9464,0.894,0.892,0.8388,0.7345,0.532,0.3636,0.2195,-0.5663,-0.5976,-0.5848,-0.5297,-0.4559,-0.4661,-0.4714,-0.4743,-0.4272,-0.3934,-0.3831,-0.3193,-0.2798,-0.2565,-0.2554,-0.2493,-0.2463,-0.3367,-0.4002,-0.4418,-0.526,-0.5731,-0.5909,-0.5722,-0.5722,-0.5722,-0.5696,-0.5246,-0.425,-0.3838,-0.3738,-0.3759,-0.3648,-0.31,-0.2178,-0.2485,-0.2811,-0.2959,-0.3116,-0.3289,-0.358,-0.2848,-0.3025,-0.4103,-0.2887,-0.0,0.4466,0.5412,0.5639,0.5517,0.597,0.6139,0.604,0.6131,0.6179,0.6099,0.6149,0.638,0.6941,0.703,0.7727,0.9204,1.0478,1.0651,0.9471,0.9849,1.0143,0.9917,1.0413,1.0238,0.8792,0.8673,0.8246,0.7062,0.6427,0.6062,0.5992,0.5791,0.5588,0.5613,0.586,0.6311,0.6719,0.7149,0.7635,0.8268,0.7918,0.7443,0.7263,0.7868,0.8117,0.7647,0.7865,0.8656,0.9926,1.1903,1.327,1.3899,1.4471,1.4915,1.4874,1.4367,1.3793,1.3172,1.249,1.1538,1.0468,1.0029,0.9596,0.9051,0.8809,0.8361,0.7043,0.5016,0.267,-0.5465,-0.5466,-0.6207,-0.5817,-0.4709,-0.4753,-0.4389,-0.3745,-0.3424,-0.3282,-0.323,-0.2811,-0.2621,-0.2594,-0.2619,-0.2665,-0.2725,-0.3219,-0.3757,-0.4238,-0.3914,-0.4141,-0.4759,-0.4375,-0.4186,-0.4284,-0.4767,-0.4307,-0.2988,-0.2314,-0.2423,-0.3427,-0.3525,-0.3358,-0.2951,-0.223,-0.1973,-0.2379,-0.2445,-0.2211,-0.1857,-0.2136,-0.22,-0.177,-0.1263,0.0477,0.3536,0.4593,0.5203,0.5405,0.5824,0.6183,0.6251,0.6425,0.6549,0.6537,0.6601,0.6845,0.7163,0.7434,0.7965,0.8877,0.9732,0.9963,0.9499,0.9557,0.9318,0.8604,0.9033,0.8885,0.748,0.7316,0.7045,0.6309,0.5841,0.5536,0.5556,0.5344,0.5213,0.5379,0.5963,0.6628,0.7095,0.7693,0.8193,0.8459,0.8093,0.7786,0.7806,0.8113,0.8303,0.8046,0.8153,0.8955,1.0474,1.2264,1.3847,1.4789,1.5457,1.6006,1.6339,1.594,1.5364,1.4941,1.4051,1.3068,1.1982,1.1118,1.0351,0.9706,0.9168,0.8621,0.7832,0.6376,0.4359,-0.5289,-0.4722,-0.5878,-0.5695,-0.4662,-0.4639,-0.3784,-0.2534,-0.2534,-0.2564,-0.2616,-0.2679,-0.2619,-0.2368,-0.2679,-0.2735,-0.2695,-0.2843,-0.3368,-0.3996,-0.2194,-0.2009,-0.3068,-0.2302,-0.2014,-0.2208,-0.3559,-0.3397,-0.187,-0.0591,-0.0993,-0.272,-0.3321,-0.3592,-0.3828,-0.2449,-0.1865,-0.1966,-0.1521,-0.0831,-0.0,-0.1766,-0.1822,-0.0098,0.0978,0.1719,0.2264,0.3402,0.4476,0.5292,0.551,0.5948,0.659,0.6708,0.6756,0.6824,0.7073,0.7379,0.7492,0.805,0.839,0.838,0.848,0.8889,0.9714,0.911,0.8381,0.7541,0.7549,0.7363,0.6716,0.5962,0.5696,0.5997,0.5441,0.5138,0.5532,0.5165,0.5045,0.5635,0.6211,0.6917,0.748,0.8118,0.8513,0.8554,0.854,0.8513,0.8526,0.852,0.8499,0.8492,0.8696,0.9503,1.0863,1.2358,1.4101,1.5671,1.6587,1.7261,1.7915,1.759,1.7175,1.6731,1.5672,1.4685,1.3943,1.2526,1.1328,1.0468,0.9706,0.9044,0.8042,0.761,0.6265,-0.4481,-0.4713,-0.3439,-0.3203,-0.38,-0.3796,-0.3316,-0.2574,-0.2574,-0.2582,-0.2595,-0.2653,-0.19,-0.0865,-0.221,-0.2323,-0.1345,-0.2472,-0.2709,-0.2381,-0.1647,-0.1083,-0.0699,-0.0499,-0.04,-0.0599,-0.25,-0.2404,-0.0402,-0.01,-0.02,-0.0593,-0.1577,-0.2738,-0.4142,-0.3905,-0.2654,-0.0491,0.0395,0.0601,-0.0,-0.0,-0.0,-0.0,0.1342,0.229,0.2828,0.4536,0.5705,0.6116,0.6542,0.7131,0.7664,0.7451,0.7309,0.7422,0.731,0.7267,0.7237,0.7528,0.7752,0.7878,0.75,0.7458,0.7819,0.7047,0.6304,0.5831,0.5701,0.5771,0.6147,0.5867,0.5518,0.5315,0.5514,0.5751,0.5851,0.618,0.6465,0.6583,0.705,0.7498,0.7824,0.8327,0.871,0.8818,0.8852,0.8852,0.8845,0.8737,0.8621,0.8618,0.9556,1.0585,1.0993,1.3467,1.5317,1.6147,1.7265,1.8084,1.837,1.8101,1.7711,1.7175,1.6662,1.5873,1.4685,1.4148,1.3275,1.1328,1.0781,1.0241,0.8933,0.8621,0.8066,-0.3978,-0.4116,-0.1855,-0.1972,-0.3592,-0.3629,-0.299,-0.1968,-0.2485,-0.2212,-0.1479,-0.1153,-0.0631,-0.0,-0.0644,-0.065,-0.0094,-0.1231,-0.1538,-0.1272,-0.198,-0.15,-0.0,-0.0,-0.0,-0.0,-0.1112,-0.1617,-0.1516,-0.0505,0.0804,0.2392,0.1791,0.1088,0.0196,-0.0594,-0.07,-0.0,0.2019,0.2852,0.2381,0.1817,0.1282,0.0774,0.2514,0.3833,0.4512,0.5397,0.6062,0.6276,0.6765,0.7165,0.7402,0.7403,0.7548,0.7657,0.7717,0.7759,0.7752,0.79,0.8055,0.8119,0.7601,0.7051,0.6458,0.5987,0.5807,0.5602,0.5569,0.5684,0.5994,0.621,0.6122,0.5974,0.6187,0.6422,0.6469,0.6647,0.684,0.7001,0.7434,0.7806,0.7929,0.8451,0.8845,0.8927,0.894,0.894,0.8933,0.8872,0.89,0.9255,1.042,1.1487,1.2046,1.3869,1.5813,1.6393,1.7623,1.8552,1.8704,1.8584,1.8287,1.7681,1.7473,1.6914,1.5897,1.5328,1.4567,1.3058,1.1864,1.1,1.0021,0.9044,0.8282,-0.383,-0.3584,-0.1091,-0.0832,-0.2224,-0.2167,-0.18,-0.1127,-0.185,-0.131,-0.0,0.0828,0.1127,0.1052,0.1151,0.1163,0.1179,0.0295,-0.0198,-0.0302,-0.1611,-0.1411,0.0101,0.0303,0.0404,0.0404,0.0404,-0.0505,-0.2122,-0.0404,0.1716,0.4152,0.4351,0.4549,0.4653,0.3433,0.2134,0.103,0.3294,0.4671,0.4748,0.3308,0.2316,0.1953,0.3804,0.5288,0.6432,0.615,0.6128,0.6412,0.6762,0.706,0.7197,0.7451,0.7709,0.7896,0.8244,0.8376,0.8303,0.8445,0.8533,0.8567,0.803,0.7123,0.5647,0.5728,0.5974,0.6085,0.6203,0.6182,0.6293,0.6621,0.6951,0.6967,0.7079,0.7079,0.7079,0.7186,0.7298,0.7304,0.7816,0.8094,0.8106,0.8523,0.894,0.894,0.9051,0.9265,0.9265,0.9258,0.9471,1.0327,1.1293,1.21,1.3049,1.4406,1.5643,1.6906,1.8107,1.8998,1.8998,1.8958,1.8731,1.822,1.8143,1.762,1.7077,1.6336,1.553,1.49,1.3275,1.1755,1.1319,0.9786,0.8484,-0.3834,-0.3584,-0.1091,0.1203,0.3245,0.3161,0.193,-0.009,0.0091,0.0458,0.092,0.2255,0.3355,0.4103,0.2578,0.22,0.2406,0.1203,0.0602,0.0604,0.1107,0.1006,0.0503,0.1512,0.2017,0.2017,0.2118,0.1917,0.1715,0.1917,0.2322,0.2725,0.2725,0.3433,0.4653,0.4552,0.4351,0.4149,0.399,0.4196,0.4786,0.3638,0.3466,0.4315,0.4594,0.5726,0.7624,0.7062,0.6754,0.7119,0.7426,0.7733,0.8269,0.8167,0.8194,0.837,0.8411,0.8536,0.8452,0.8594,0.8743,0.8776,0.8121,0.7287,0.6393,0.6298,0.651,0.6953,0.718,0.7369,0.7492,0.7175,0.7094,0.7194,0.7546,0.7877,0.7865,0.8304,0.8523,0.8523,0.8666,0.8789,0.8783,0.892,0.9044,0.9051,0.9706,1.0249,1.0907,1.0468,1.0476,1.1236,1.211,1.3059,1.3978,1.5444,1.6682,1.7767,1.862,1.9265,1.9265,1.9105,1.8905,1.8798,1.8384,1.7968,1.7741,1.7543,1.6762,1.566,1.4804,1.4256,1.3197,1.1682,1.0257,-0.1782,-0.1444,0.1207,0.3108,0.434,0.4336,0.3652,0.2504,0.2714,0.2821,0.3014,0.3745,0.4208,0.4281,0.3814,0.3723,0.3827,0.3221,0.3017,0.3017,0.3425,0.3327,0.2922,0.343,0.3739,0.3739,0.3739,0.3739,0.3739,0.3739,0.3739,0.3739,0.3736,0.4135,0.4742,0.4742,0.4742,0.4839,0.4503,0.4503,0.4742,0.4263,0.4245,0.4785,0.5381,0.6515,0.8213,0.7951,0.7801,0.7968,0.8077,0.824,0.8472,0.8418,0.8452,0.8594,0.8608,0.8642,0.8723,0.8791,0.8872,0.8836,0.8615,0.814,0.7853,0.7242,0.6904,0.7188,0.7574,0.7786,0.7847,0.7956,0.809,0.8152,0.838,0.8491,0.8491,0.8719,0.894,0.894,0.9265,0.9596,0.9596,1.0036,1.0366,1.0366,1.0806,1.1455,1.2536,1.1973,1.1738,1.2635,1.3413,1.4375,1.5251,1.639,1.7441,1.8058,1.8814,1.9345,1.9359,1.9225,1.9105,1.8931,1.8571,1.8263,1.809,1.7796,1.7357,1.7047,1.6066,1.5441,1.479,1.3184,1.1011,0.0364,0.1204,0.3393,0.4277,0.4277,0.4383,0.4474,0.4553,0.4494,0.461,0.4622,0.4781,0.4559,0.4228,0.4634,0.4834,0.4834,0.4834,0.4834,0.4834,0.4843,0.4742,0.4742,0.4746,0.475,0.475,0.475,0.475,0.475,0.475,0.475,0.475,0.4742,0.4839,0.4834,0.4855,0.4863,0.4766,0.4892,0.4883,0.4839,0.4956,0.5099,0.5163,0.6329,0.7437,0.8492,0.852,0.8533,0.8533,0.8567,0.8587,0.8587,0.8587,0.8642,0.8743,0.8764,0.8811,0.8927,0.894,0.894,0.894,0.9044,0.9154,0.9154,0.8595,0.8042,0.7709,0.8036,0.8263,0.8263,0.8602,0.894,0.894,0.894,0.883,0.894,0.894,0.9051,0.9154,0.9816,1.0249,1.0578,1.1126,1.1673,1.2001,1.211,1.2644,1.3717,1.3578,1.3567,1.4245,1.4922,1.5576,1.6357,1.7054,1.7776,1.8172,1.8929,1.9332,1.9359,1.9359,1.9292,1.9065,1.8798,1.8504,1.821,1.7983,1.7903,1.7793,1.7169,1.6515,1.6104,1.4343,1.1925,0.1545,0.3796,0.4185,0.4278,0.4285,0.445,0.4532,0.4576,0.4622,0.4696,0.4797,0.4708,0.4757,0.4726,0.4734,0.4834,0.4834,0.4834,0.4834,0.4834,0.4834,0.4839,0.4834,0.4834,0.4839,0.4839,0.4834,0.4839,0.4839,0.4839,0.4834,0.4834,0.4834,0.4839,0.4847,0.4916,0.4957,0.4858,0.4934,0.5002,0.4851,0.5426,0.5892,0.6107,0.7038,0.7941,0.852,0.8621,0.8582,0.8703,0.8818,0.8893,0.8886,0.8893,0.8899,0.8913,0.8913,0.8927,0.8933,0.894,0.8933,0.894,0.9699,1.0029,1.0139,1.0688,1.0468,0.9265,0.883,0.8823,0.883,0.883,0.894,0.9051,0.894,0.894,0.894,0.894,0.9154,1.0036,1.0249,1.0468,1.1345,1.1782,1.2327,1.3403,1.3511,1.3943,1.5232,1.5435,1.553,1.6086,1.6443,1.6567,1.7009,1.7385,1.7888,1.8638,1.9172,1.9332,1.9372,1.9372,1.9345,1.9252,1.9052,1.8744,1.8557,1.841,1.829,1.8223,1.7987,1.7909,1.6658,1.5332,1.3715,0.3185,0.4173,0.3427,0.3516,0.4266,0.4386,0.4504,0.4528,0.4651,0.4736,0.4781,0.4785,0.4802,0.4834,0.4834,0.4834,0.4834,0.4834,0.4834,0.4834,0.4834,0.4834,0.4834,0.4834,0.4834,0.4834,0.4834,0.4834,0.4834,0.4834,0.4834,0.4834,0.4834,0.4859,0.4912,0.4953,0.4994,0.5151,0.551,0.5807,0.6157,0.6078,0.6338,0.704,0.7517,0.8126,0.8642,0.8818,0.8845,0.8845,0.8906,0.894,0.894,0.894,0.894,0.894,0.894,0.9113,0.945,0.9443,0.966,1.0201,1.0526,1.0891,1.1008,1.1345,1.1244,1.0586,1.0029,0.9706,0.9706,0.9265,0.9051,0.9485,0.9265,0.9154,0.9596,0.9706,0.9816,1.0249,1.1126,1.2001,1.2753,1.3619,1.4266,1.4911,1.5018,1.5339,1.6205,1.6299,1.6511,1.7054,1.7173,1.7303,1.7551,1.7961,1.8348,1.8765,1.9172,1.9359,1.9372,1.9372,1.9372,1.9372,1.9145,1.8945,1.8771,1.8597,1.8464,1.8504,1.8784,1.877,1.8173,1.6656,1.5025,0.3984,0.4073,0.3147,0.3421,0.4535,0.4648,0.4806,0.5093,0.5094,0.5075,0.5031,0.5135,0.5135,0.5035,0.4834,0.4834,0.4834,0.4834,0.4834,0.4834,0.4834,0.4834,0.4834,0.4834,0.4834,0.4834,0.4834,0.4834,0.4834,0.4834,0.4834,0.4834,0.4859,0.5006,0.5279,0.5326,0.5282,0.5448,0.6017,0.6797,0.7446,0.6899,0.6921,0.7618,0.7985,0.8388,0.8933,0.894,0.894,0.894,0.894,0.894,0.894,0.9154,0.9265,0.9265,0.9223,0.937,0.9885,1.0052,1.0469,1.115,1.1372,1.1782,1.2163,1.2436,1.2654,1.2753,1.1991,1.1337,1.0789,1.0249,1.0249,1.0899,1.046,1.0351,1.1,1.1008,1.1227,1.1446,1.2644,1.363,1.4266,1.5137,1.5779,1.5992,1.6099,1.6311,1.6842,1.6935,1.7041,1.7477,1.7582,1.7662,1.7903,1.8141,1.8557,1.8798,1.9078,1.9359,1.9372,1.9372,1.9372,1.9345,1.9199,1.9132,1.9092,1.8905,1.8824,1.9025,1.9252,1.9452,1.9322,1.7433,1.625,0.3034,0.425,0.4258,0.4539,0.5179,0.5279,0.5666,0.6149,0.6273,0.6032,0.5632,0.6037,0.6037,0.5536,0.5135,0.4834,0.4834,0.4834,0.4834,0.4834,0.4834,0.4834,0.4834,0.4834,0.4834,0.4834,0.4834,0.4834,0.4834,0.4834,0.4834,0.4839,0.4916,0.5382,0.5945,0.5993,0.5872,0.5764,0.6613,0.7686,0.8589,0.8134,0.7841,0.7979,0.8517,0.8816,0.894,0.894,0.894,0.894,0.9051,0.894,0.894,0.9706,1.0147,1.0123,0.9985,0.9892,1.0059,1.0451,1.0958,1.1327,1.2087,1.2733,1.348,1.4169,1.4815,1.5565,1.4578,1.3706,1.2635,1.2191,1.2299,1.295,1.3048,1.295,1.3048,1.294,1.3491,1.403,1.4363,1.4804,1.5672,1.5885,1.6217,1.6549,1.6643,1.6881,1.7357,1.753,1.7649,1.7649,1.7649,1.7609,1.7675,1.813,1.845,1.8718,1.9092,1.9426,1.9386,1.9372,1.9399,1.9439,1.9546,1.9546,1.9452,1.9426,1.9452,1.9546,1.9586,1.9693,1.976,1.8212,1.7012,0.4005,0.4903,0.5339,0.5649,0.5847,0.5958,0.6123,0.6263,0.6382,0.6337,0.6137,0.6337,0.6237,0.6137,0.5937,0.5636,0.5336,0.4935,0.4834,0.4834,0.4834,0.4834,0.4834,0.4834,0.4834,0.4834,0.4834,0.4834,0.4834,0.4834,0.4867,0.5022,0.5364,0.5756,0.6095,0.6501,0.6676,0.6853,0.7465,0.8048,0.883,0.8719,0.8575,0.853,0.8796,0.894,0.894,0.894,0.894,0.894,0.9949,1.039,0.9816,1.0036,1.0413,1.0741,1.0238,1.02,1.1034,1.1346,1.1802,1.2625,1.3278,1.3876,1.45,1.5137,1.5684,1.5779,1.5672,1.5232,1.5007,1.3922,1.3275,1.3922,1.3706,1.3588,1.403,1.4137,1.4245,1.4685,1.5328,1.6086,1.6311,1.6736,1.7132,1.7407,1.7554,1.7741,1.8008,1.8156,1.8238,1.8156,1.8156,1.8156,1.817,1.8303,1.8557,1.8878,1.9225,1.9653,1.98,1.984,1.988,1.9826,1.992,1.9933,1.9826,1.9786,1.9867,1.992,1.996,1.9987,2.004,1.8604,1.7509,0.4885,0.5501,0.6051,0.63,0.653,0.6514,0.6669,0.6813,0.6901,0.6936,0.703,0.7229,0.7329,0.7428,0.7428,0.7223,0.6725,0.5632,0.5035,0.5035,0.4834,0.4834,0.4834,0.4834,0.4834,0.4834,0.4834,0.4834,0.4834,0.514,0.5289,0.5377,0.593,0.6358,0.6737,0.7122,0.7621,0.8029,0.8269,0.8491,0.883,0.894,0.894,0.894,0.894,0.894,0.894,0.894,0.9044,0.9493,1.0729,1.1388,1.1135,1.1017,1.1276,1.1791,1.1336,1.1263,1.204,1.2334,1.2899,1.3653,1.4367,1.4908,1.5506,1.5885,1.6205,1.6418,1.6418,1.663,1.6617,1.5636,1.4995,1.5435,1.4995,1.4888,1.5435,1.5541,1.5648,1.5755,1.6405,1.6948,1.7067,1.7463,1.7716,1.8023,1.832,1.8714,1.8865,1.925,1.936,1.9346,1.9098,1.8975,1.8878,1.8863,1.8897,1.9206,1.9506,1.9933,2.016,2.0227,2.0281,2.0241,2.0227,2.0241,2.0214,2.016,2.0187,2.0241,2.0281,2.0294,1.9846,1.9123,1.8137,0.5598,0.6178,0.6189,0.6649,0.713,0.7149,0.7413,0.7813,0.7932,0.8031,0.8216,0.8817,0.9015,0.941,0.9312,0.941,0.8916,0.6924,0.5932,0.5832,0.5336,0.5131,0.5031,0.5031,0.4935,0.4834,0.4834,0.4834,0.4935,0.5756,0.6118,0.6014,0.6542,0.7079,0.7846,0.7968,0.8257,0.8712,0.883,0.8823,0.894,0.894,0.894,0.894,0.894,0.9051,0.9051,0.8933,0.9265,1.0147,1.1169,1.2055,1.2663,1.2536,1.2733,1.3398,1.3184,1.2967,1.3109,1.3545,1.3947,1.4401,1.5033,1.578,1.6343,1.663,1.6948,1.7265,1.7477,1.7582,1.7477,1.7265,1.716,1.7582,1.7147,1.7147,1.7371,1.7477,1.7582,1.7371,1.7477,1.7582,1.7649,1.7929,1.8131,1.8265,1.8988,1.9718,1.9818,2.0274,2.0937,2.0937,2.0494,2.014,1.9695,1.9403,1.9367,1.9475,1.98,2.0214,2.0321,2.0401,2.0494,2.0494,2.0588,2.0601,2.0468,2.0428,2.0441,2.0494,2.0548,2.0588,2.027,1.9661,1.8662,0.6289,0.6888,0.7271,0.753,0.7668,0.7766,0.7799,0.8038,0.8038,0.8336,0.8916,0.9114,0.9517,1.001,1.0109,1.0207,1.001,0.8817,0.8117,0.7813,0.7614,0.7111,0.6608,0.6321,0.5632,0.4935,0.4834,0.5035,0.545,0.6326,0.6638,0.6642,0.718,0.763,0.7968,0.8355,0.8719,0.883,0.894,0.894,0.894,0.894,0.894,0.8933,0.9485,0.9926,1.0044,0.9361,0.9354,1.0249,1.2265,1.3692,1.4072,1.3727,1.3858,1.4662,1.375,1.3566,1.4378,1.4387,1.4546,1.51,1.5774,1.6248,1.6685,1.7054,1.7371,1.7582,1.7582,1.7582,1.7582,1.7582,1.7582,1.7582,1.7582,1.7582,1.7582,1.7582,1.7582,1.7582,1.7582,1.7675,1.7943,1.8454,1.8849,1.8877,1.9598,2.0269,2.0456,2.0906,2.1204,2.1541,2.1317,2.1339,2.1018,2.0754,2.053,2.0322,2.0356,2.0551,2.0563,2.0548,2.0655,2.0762,2.0869,2.0869,2.0748,2.0695,2.0695,2.0722,2.0762,2.0842,2.081,2.0307,1.9373,0.6852,0.7504,0.774,0.7991,0.8038,0.8038,0.8038,0.8038,0.8038,0.8634,0.9517,0.9616,1.0306,1.11,1.1296,1.1287,1.1296,1.0886,1.0583,1.0092,0.9099,0.8294,0.7582,0.7198,0.6719,0.5827,0.5118,0.524,0.6002,0.7004,0.7443,0.7387,0.7911,0.8234,0.8367,0.8712,0.894,0.894,0.9272,0.9265,0.9154,0.9596,0.9816,0.9713,1.0366,1.0924,1.1261,1.0562,1.0546,1.1345,1.3128,1.4429,1.4934,1.4708,1.495,1.5446,1.5082,1.4734,1.5462,1.5324,1.5258,1.5878,1.6522,1.686,1.7121,1.7477,1.7582,1.7582,1.7582,1.7582,1.7582,1.7582,1.7582,1.7582,1.7582,1.7582,1.7582,1.7582,1.7582,1.7687,1.7898,1.8153,1.8586,1.9362,1.9997,2.0032,2.0794,2.1459,2.1684,2.2055,2.2539,2.2749,2.2573,2.2542,2.2492,2.2162,2.174,2.1336,2.0977,2.1008,2.1149,2.0779,2.0762,2.0909,2.1029,2.1015,2.0909,2.0895,2.0895,2.0922,2.0935,2.0989,2.0916,2.0803,2.0017,0.7273,0.7898,0.7868,0.7909,0.8031,0.8038,0.8038,0.8038,0.8038,0.8832,1.0117,1.0314,1.1198,1.2467,1.2565,1.2565,1.2759,1.2565,1.2467,1.1873,1.0485,0.8985,0.8181,0.8287,0.8096,0.731,0.5892,0.5756,0.6901,0.7885,0.8334,0.8025,0.8399,0.8791,0.9023,0.8933,0.9154,0.9375,0.9919,0.9919,0.9375,1.0586,1.1253,1.0822,1.1354,1.191,1.2365,1.2436,1.2644,1.3098,1.3867,1.4622,1.5148,1.5684,1.6086,1.6685,1.6586,1.6393,1.6458,1.6445,1.6458,1.6509,1.7108,1.7582,1.7582,1.7582,1.7582,1.7582,1.7582,1.7582,1.7582,1.7582,1.7582,1.7582,1.7582,1.7582,1.7582,1.7582,1.7687,1.7793,1.8318,1.8969,1.942,2.0465,2.1091,2.1582,2.2321,2.2895,2.3055,2.3328,2.4368,2.4256,2.3792,2.3664,2.3456,2.278,2.2466,2.2673,2.1963,2.1565,2.1605,2.1408,2.1107,2.1271,2.1182,2.1195,2.1082,2.1029,2.1015,2.1029,2.1056,2.1096,2.0996,2.0895,2.0592,0.6844,0.7758,0.7828,0.7902,0.8031,0.8038,0.8038,0.8038,0.8038,0.8931,1.0117,1.0413,1.1296,1.2662,1.2759,1.2759,1.2759,1.2759,1.2759,1.2759,1.2165,1.1072,1.0386,1.0904,1.0314,0.8605,0.7403,0.6971,0.8044,0.8584,0.8639,0.8487,0.8818,0.9216,0.9699,0.9816,1.0257,1.0806,1.1017,1.1126,1.1017,1.1345,1.1691,1.2037,1.2346,1.29,1.3702,1.4094,1.4385,1.4622,1.4719,1.5244,1.6099,1.6418,1.6736,1.7134,1.7305,1.7252,1.7252,1.7252,1.7252,1.7265,1.7423,1.7582,1.7582,1.7582,1.7582,1.7582,1.7582,1.7582,1.7582,1.7582,1.7582,1.7582,1.782,1.7806,1.7687,1.7582,1.7793,1.8408,1.8736,1.952,2.0589,2.1495,2.2087,2.2227,2.2895,2.3536,2.376,2.376,2.4239,2.4701,2.4479,2.4479,2.4239,2.3552,2.3344,2.3713,2.3165,2.2175,2.2333,2.2379,2.2025,2.1902,2.1756,2.1686,2.1294,2.1082,2.1096,2.1109,2.1109,2.1109,2.1203,2.1129,2.0889,0.7044,0.7719,0.7719,0.7807,0.7943,0.7912,0.8038,0.8038,0.8038,0.8931,1.0117,1.0413,1.1296,1.2662,1.2759,1.2759,1.2759,1.2759,1.2759,1.2759,1.2759,1.2262,1.198,1.251,1.1805,1.0199,0.96,0.9554,0.9666,0.992,0.9989,0.9969,0.9983,1.0359,1.0688,1.0798,1.1017,1.1573,1.19,1.2001,1.1673,1.2337,1.2564,1.29,1.3325,1.4202,1.4871,1.5267,1.547,1.5482,1.547,1.5779,1.6524,1.6723,1.6948,1.7582,1.7582,1.7582,1.7582,1.7582,1.7582,1.7582,1.7582,1.7582,1.7582,1.7582,1.7582,1.7582,1.7582,1.7582,1.7687,1.7898,1.8478,1.9208,1.9223,1.8969,1.8227,1.8422,1.8898,1.9702,2.03,2.0845,2.2177,2.3228,2.3528,2.3595,2.3966,2.4223,2.4111,2.3999,2.4128,2.4641,2.5009,2.4898,2.4915,2.4452,2.4569,2.4923,2.4749,2.3552,2.3037,2.3145,2.2767,2.2442,2.2342,2.1976,2.1478,2.1069,2.1109,2.1109,2.1109,2.1189,2.1296,2.1483,2.1228,0.7448,0.7597,0.7597,0.7692,0.7855,0.7984,0.8038,0.8137,0.8237,0.913,1.0314,1.0511,1.1492,1.2759,1.2759,1.2759,1.2759,1.2759,1.2759,1.2759,1.2759,1.2662,1.2662,1.2673,1.2381,1.1688,1.2422,1.1764,1.1187,1.153,1.1654,1.135,1.1345,1.1564,1.1673,1.1682,1.1782,1.2119,1.2772,1.2772,1.2555,1.3315,1.3748,1.3532,1.4396,1.5256,1.5791,1.5992,1.5992,1.6099,1.6004,1.6311,1.6723,1.6829,1.7054,1.7477,1.7582,1.7582,1.7582,1.7582,1.7582,1.7582,1.7582,1.7582,1.7582,1.7582,1.7687,1.7898,1.7687,1.7898,1.8227,1.8646,1.9732,2.0767,2.1385,2.0872,1.9941,1.9762,2.0508,2.1595,2.2391,2.3178,2.4153,2.5004,2.5667,2.4879,2.5221,2.5128,2.5069,2.5138,2.5061,2.5078,2.5336,2.5353,2.5353,2.5259,2.5786,2.6151,2.6092,2.5218,2.4219,2.3927,2.3306,2.3066,2.3292,2.2552,2.1311,2.1128,2.1209,2.1122,2.1149,2.1296,2.1483,2.1724,2.1635,0.6982,0.7597,0.7597,0.7746,0.7977,0.8024,0.8336,0.8924,0.8924,0.9813,1.1091,1.1296,1.1883,1.2759,1.2759,1.2759,1.2759,1.2759,1.2759,1.2759,1.2759,1.2759,1.2759,1.2759,1.2662,1.2467,1.1991,1.1934,1.183,1.1661,1.1406,1.1629,1.19,1.2001,1.2555,1.2663,1.2989,1.3532,1.3867,1.3759,1.3748,1.4288,1.4719,1.46,1.5256,1.5885,1.6418,1.6524,1.6736,1.6948,1.6842,1.6736,1.7265,1.7371,1.7477,1.7582,1.7582,1.7582,1.7582,1.7582,1.7582,1.7582,1.7582,1.7582,1.7582,1.7687,1.7898,1.8304,1.8513,1.8826,1.9509,2.0419,2.1233,2.2006,2.2816,2.325,2.2955,2.2501,2.2623,2.3338,2.3826,2.4316,2.5344,2.5772,2.6169,2.6136,2.6118,2.6118,2.6134,2.6167,2.6051,2.5993,2.6246,2.643,2.6448,2.6465,2.6816,2.7169,2.711,2.6954,2.5823,2.4995,2.4601,2.4436,2.4579,2.3367,2.2061,2.1769,2.1978,2.1655,2.1356,2.1456,2.1683,2.1937,2.2191,0.6969,0.7851,0.7636,0.8065,0.8698,0.8659,0.9023,0.9616,0.9813,1.0404,1.1385,1.159,1.2078,1.2759,1.2759,1.2759,1.2759,1.2759,1.2759,1.2759,1.2759,1.2759,1.2759,1.2759,1.2759,1.278,1.2495,1.2535,1.2577,1.2457,1.2558,1.2743,1.2772,1.3098,1.3423,1.3542,1.3759,1.4083,1.4526,1.473,1.4719,1.5148,1.5565,1.5779,1.6099,1.6524,1.7041,1.716,1.7265,1.7477,1.7265,1.7265,1.7477,1.7582,1.7582,1.7582,1.7582,1.7582,1.7582,1.7582,1.7582,1.7582,1.7582,1.7582,1.7793,1.7884,1.8304,1.8826,1.9257,1.991,2.1131,2.2166,2.2904,2.4018,2.472,2.5445,2.5766,2.4809,2.4333,2.5089,2.5496,2.5927,2.6379,2.6686,2.6565,2.6645,2.6918,2.6828,2.6664,2.6809,2.7009,2.7024,2.7337,2.7578,2.7728,2.7765,2.7934,2.8103,2.8008,2.787,2.7347,2.6714,2.598,2.5746,2.5294,2.4574,2.336,2.3186,2.2663,2.2019,2.1787,2.1773,2.1897,2.2164,2.2405,0.7326,0.8351,0.8007,0.8699,0.9622,0.9437,0.978,1.0511,1.0708,1.1287,1.1883,1.197,1.2651,1.2953,1.2953,1.2856,1.2759,1.2759,1.2759,1.2759,1.2759,1.2759,1.2759,1.2759,1.2802,1.2834,1.2886,1.3132,1.3367,1.3706,1.3593,1.404,1.4083,1.3975,1.4083,1.4191,1.4191,1.4407,1.4719,1.5041,1.5244,1.5672,1.6205,1.6736,1.6842,1.7054,1.7371,1.7477,1.7582,1.7582,1.7582,1.7582,1.7582,1.7582,1.7582,1.7582,1.7582,1.7582,1.7582,1.7582,1.7582,1.7582,1.7582,1.7687,1.7884,1.8569,1.9197,1.9791,2.0442,2.1664,2.2927,2.4018,2.5195,2.633,2.6816,2.7487,2.7728,2.6548,2.6349,2.6692,2.6892,2.7043,2.7428,2.7649,2.7384,2.7225,2.7479,2.763,2.7474,2.7567,2.792,2.8294,2.8632,2.8934,2.9106,2.9068,2.924,2.9106,2.9087,2.8797,2.8542,2.7705,2.6863,2.6219,2.5698,2.5067,2.464,2.4317,2.3569,2.261,2.2208,2.2442,2.2467,2.2512,2.2592,0.8456,0.9311,0.919,0.9486,0.9949,0.994,1.0448,1.1375,1.1863,1.2457,1.3147,1.3619,1.3811,1.3931,1.3545,1.3158,1.3008,1.304,1.3008,1.2899,1.2889,1.2889,1.2759,1.2802,1.2877,1.3017,1.3136,1.3297,1.3502,1.3717,1.3976,1.4148,1.4191,1.4191,1.4191,1.4191,1.4515,1.4826,1.4922,1.5232,1.5672,1.6205,1.6723,1.7265,1.7371,1.7477,1.7582,1.7582,1.7582,1.7582,1.7582,1.7582,1.7687,1.7687,1.7687,1.7582,1.7582,1.7582,1.7582,1.7582,1.7582,1.7582,1.782,1.8122,1.8688,1.9567,2.0659,2.1718,2.298,2.4199,2.4887,2.5687,2.6349,2.7084,2.7526,2.8058,2.8116,2.7912,2.7439,2.7748,2.7931,2.7951,2.8028,2.8106,2.793,2.7918,2.816,2.8243,2.8236,2.8747,2.9374,2.9642,3.0007,3.0277,3.0509,3.0471,3.0451,3.0142,3.0006,2.9773,2.9263,2.8491,2.7692,2.7262,2.6781,2.6382,2.5928,2.5317,2.4641,2.3753,2.3476,2.3233,2.3106,2.2982,2.2686,0.8681,0.9837,0.958,1.015,1.0885,1.0735,1.1375,1.2543,1.2845,1.3329,1.3811,1.4208,1.4377,1.4364,1.4302,1.408,1.3975,1.401,1.3853,1.3577,1.3434,1.316,1.2921,1.2975,1.2985,1.3157,1.333,1.3502,1.3663,1.39,1.4062,1.4159,1.4191,1.4299,1.4504,1.4374,1.4708,1.5244,1.5791,1.5992,1.6311,1.6829,1.7252,1.7477,1.7582,1.7582,1.7582,1.7582,1.7582,1.7582,1.7582,1.7582,1.7793,1.8003,1.7989,1.7793,1.7687,1.7582,1.7582,1.7582,1.7687,1.8016,1.8534,1.9266,2.0181,2.1401,2.2682,2.3755,2.4881,2.5956,2.6181,2.7084,2.7506,2.769,2.8058,2.8262,2.8301,2.8301,2.8301,2.8301,2.8155,2.8135,2.8262,2.834,2.8418,2.8574,2.8789,2.8901,2.9007,2.9524,3.0217,3.0412,3.049,3.0665,3.0898,3.0898,3.0898,3.0782,3.0645,3.0411,3.0077,2.9368,2.8874,2.8462,2.8002,2.7557,2.6779,2.6017,2.5456,2.4967,2.4314,2.384,2.3573,2.3426,2.327,0.8973,1.0482,1.0032,1.079,1.2048,1.1765,1.2289,1.3499,1.3738,1.4016,1.44,1.4592,1.4824,1.4937,1.4961,1.4983,1.519,1.5166,1.4743,1.4325,1.4178,1.3865,1.3512,1.3259,1.3423,1.3678,1.3773,1.3919,1.3836,1.404,1.4277,1.4407,1.4407,1.4622,1.503,1.49,1.5328,1.6004,1.7013,1.7318,1.7173,1.7371,1.7582,1.7582,1.7582,1.7582,1.7582,1.7898,1.7898,1.7898,1.7898,1.7989,1.8213,1.8513,1.8513,1.8199,1.8003,1.7898,1.8003,1.7793,1.824,1.9074,1.9881,2.0755,2.195,2.3408,2.4909,2.5878,2.6446,2.7027,2.7247,2.7854,2.8116,2.8262,2.8262,2.8301,2.8301,2.8301,2.8301,2.8301,2.8301,2.8301,2.832,2.8535,2.8652,2.8906,2.9121,2.9531,2.9637,3.0062,3.0527,3.0723,3.0859,3.0859,3.0898,3.0898,3.0898,3.0898,3.0898,3.0645,3.0586,3.0272,2.9817,2.9554,2.8895,2.8359,2.747,2.6952,2.6878,2.6389,2.5149,2.4635,2.48,2.4613,2.4409,1.0472,1.1176,1.1121,1.1728,1.2564,1.2642,1.3193,1.4172,1.4688,1.4892,1.4987,1.5369,1.5704,1.5908,1.5895,1.5582,1.5417,1.5352,1.534,1.5052,1.504,1.4903,1.4779,1.4309,1.4344,1.4482,1.4514,1.4223,1.4217,1.4308,1.4504,1.4838,1.4934,1.5148,1.5672,1.5541,1.5992,1.6643,1.7318,1.7543,1.749,1.7582,1.7582,1.7582,1.7582,1.7701,1.7911,1.8318,1.8513,1.8722,1.8722,1.9034,1.9554,1.9138,1.9346,1.9346,1.9242,1.8826,1.9153,1.893,1.9255,2.0361,2.1071,2.2087,2.3738,2.5086,2.6446,2.7873,2.7805,2.7746,2.7873,2.8135,2.8301,2.8301,2.8301,2.8301,2.8301,2.8301,2.8301,2.8359,2.8379,2.8359,2.8359,2.8652,2.8906,2.918,2.9492,2.9883,3.0234,3.0508,3.0664,3.082,3.0898,3.0898,3.0898,3.0898,3.0898,3.0898,3.0976,3.0996,3.0976,3.0876,3.093,3.0566,3.0026,2.9115,2.8062,2.7748,2.8167,2.7916,2.7107,2.668,2.644,2.609,2.5532,1.1089,1.1348,1.1607,1.2136,1.2757,1.3053,1.3821,1.4613,1.4987,1.5274,1.5452,1.5642,1.6072,1.6414,1.6675,1.6795,1.6588,1.6458,1.6266,1.5959,1.5819,1.5654,1.5299,1.5275,1.5281,1.5234,1.5435,1.5423,1.5079,1.5056,1.5363,1.547,1.5565,1.5779,1.6311,1.6074,1.6499,1.7041,1.7503,1.7609,1.7595,1.7582,1.7582,1.7582,1.7582,1.803,1.8793,1.875,1.9138,1.9346,1.9554,1.9864,2.038,2.038,2.0688,2.1473,2.1065,2.0672,2.0364,2.0261,2.098,2.2084,2.2959,2.4368,2.612,2.6959,2.7477,2.8223,2.8125,2.8144,2.8242,2.8281,2.8301,2.8301,2.8301,2.8301,2.8301,2.8301,2.832,2.8398,2.8496,2.8594,2.8672,2.8887,2.9258,2.9648,2.9883,3.0176,3.0488,3.0723,3.082,3.0859,3.0898,3.0898,3.0898,3.0898,3.0918,3.0976,3.125,3.1289,3.1387,3.1404,3.1517,3.1629,3.1351,3.0285,2.8799,2.8993,2.9614,2.9386,2.9028,2.861,2.8077,2.7604,2.6972,1.1521,1.1693,1.1929,1.2487,1.3223,1.3598,1.4272,1.5248,1.5274,1.5452,1.5777,1.5992,1.6326,1.6754,1.7248,1.741,1.7555,1.7582,1.7252,1.6899,1.6613,1.642,1.611,1.6125,1.5976,1.5805,1.6111,1.6196,1.6123,1.6205,1.6205,1.6099,1.6099,1.6418,1.6723,1.6698,1.6909,1.7477,1.7582,1.7595,1.7582,1.7582,1.7582,1.7582,1.7806,1.8373,1.9702,1.9613,1.9554,2.0467,2.0688,2.0979,2.1709,2.1794,2.2114,2.2802,2.2802,2.2601,2.2232,2.2097,2.2707,2.3806,2.5013,2.6424,2.7622,2.8301,2.8301,2.8281,2.8281,2.8262,2.8301,2.8301,2.8301,2.8301,2.8301,2.8301,2.8301,2.8388,2.8525,2.8613,2.8789,2.9062,2.916,2.9258,2.957,3.0059,3.0332,3.0508,3.0684,3.0879,3.0898,3.0898,3.0898,3.0898,3.0898,3.0898,3.0918,3.1074,3.1367,3.1601,3.1719,3.1973,3.2124,3.2235,3.2428,3.2037,3.0941,3.0959,3.1084,3.0567,3.0228,3.0031,2.9573,2.9189,2.841,1.2186,1.2625,1.2186,1.2838,1.4141,1.4231,1.4825,1.5629,1.5737,1.5737,1.5899,1.6339,1.6567,1.6834,1.7235,1.7555,1.7582,1.7582,1.7555,1.7437,1.7542,1.7265,1.7055,1.6778,1.663,1.658,1.6744,1.6731,1.6842,1.7265,1.7054,1.6736,1.6736,1.7054,1.7265,1.7358,1.7252,1.7582,1.7582,1.7582,1.7582,1.7687,1.7687,1.7687,1.7806,1.8359,2.003,2.0132,2.0688,2.1895,2.1996,2.24,2.312,2.3003,2.322,2.3917,2.4214,2.4115,2.4053,2.3651,2.3959,2.543,2.6769,2.7593,2.8144,2.8242,2.8281,2.8281,2.8301,2.8301,2.8301,2.8301,2.8301,2.8408,2.8368,2.8522,2.8522,2.8794,2.8846,2.8878,2.9153,2.9758,2.9912,3.003,3.0035,3.0486,3.0547,3.0723,3.0762,3.0898,3.0898,3.0898,3.0898,3.0898,3.0898,3.0918,3.0976,3.123,3.1543,3.1836,3.209,3.2383,3.2611,3.2727,3.2883,3.2894,3.2991,3.2546,3.2104,3.1683,3.1327,3.1299,3.1156,3.0663,2.9847,1.2711,1.3149,1.3139,1.3598,1.4321,1.4604,1.5101,1.5765,1.5832,1.5832,1.5858,1.6259,1.654,1.678,1.7088,1.7422,1.7569,1.7582,1.7674,1.7582,1.7582,1.7582,1.7516,1.7583,1.7462,1.7331,1.7397,1.7729,1.8003,1.8213,1.8617,1.8408,1.7779,1.7779,1.8003,1.8003,1.7687,1.7582,1.7582,1.7582,1.7687,1.8094,1.8422,1.8555,1.9049,2.0235,2.1771,2.1554,2.2215,2.2902,2.322,2.3818,2.4332,2.3917,2.4115,2.4843,2.5039,2.5039,2.5352,2.4914,2.5239,2.5876,2.6943,2.7637,2.791,2.793,2.8086,2.8184,2.8301,2.8301,2.8301,2.8301,2.8301,2.8388,2.8542,2.8635,2.8951,2.9221,2.9318,2.9514,3.0235,3.088,3.0994,3.0963,3.0833,3.078,3.0917,3.0898,3.0898,3.0898,3.0898,3.0898,3.0898,3.0898,3.0898,3.0976,3.1074,3.1406,3.1758,3.2129,3.248,3.2891,3.3184,3.3262,3.3242,3.3175,3.3233,3.3398,3.3029,3.2546,3.2585,3.2758,3.2562,3.2181,3.1047,1.3272,1.3716,1.3809,1.4065,1.4501,1.4967,1.5378,1.5765,1.5832,1.5832,1.5858,1.6139,1.6562,1.6905,1.7291,1.7701,1.7942,1.8086,1.8011,1.7997,1.8086,1.8039,1.8047,1.8053,1.8094,1.808,1.814,1.8485,1.9153,1.9138,1.9657,1.9657,1.9138,1.893,1.893,1.8736,1.808,1.7711,1.8185,1.8304,1.8513,1.8826,1.9376,1.9613,2.0101,2.128,2.257,2.2705,2.302,2.3818,2.4332,2.4627,2.4824,2.4922,2.5039,2.5235,2.545,2.5333,2.5547,2.5918,2.6133,2.6559,2.707,2.7422,2.7578,2.7754,2.8105,2.8242,2.8301,2.8301,2.8281,2.8301,2.8601,2.8794,2.8765,2.8958,2.9559,2.9829,3.0078,3.0263,3.1058,3.1751,3.1787,3.1633,3.1146,3.0994,3.0937,3.0898,3.0898,3.0898,3.0898,3.0898,3.0898,3.0898,3.0898,3.1094,3.1328,3.1758,3.2129,3.2519,3.291,3.3262,3.3418,3.3359,3.3359,3.3398,3.3418,3.3418,3.3418,3.3253,3.3292,3.3272,3.3019,3.2492,3.1726,1.3814,1.4409,1.3986,1.4255,1.4927,1.5271,1.5551,1.5805,1.5832,1.5927,1.6062,1.6319,1.6843,1.7329,1.7711,1.8067,1.8537,1.8721,1.8721,1.8651,1.8596,1.879,1.874,1.8644,1.87,1.9197,1.9125,1.9316,2.0086,2.0086,2.0498,2.0909,2.0498,1.9968,2.0086,2.0086,1.9243,1.817,1.9406,1.9761,2.0235,2.0323,2.0514,2.0838,2.1232,2.2283,2.3243,2.3391,2.3818,2.4627,2.4843,2.5137,2.543,2.5528,2.5528,2.5625,2.5625,2.5625,2.5742,2.6133,2.6445,2.6699,2.6953,2.7363,2.7656,2.793,2.8184,2.8262,2.8301,2.8281,2.8281,2.8388,2.8794,2.908,2.9126,2.9455,3.0028,3.0665,3.0901,3.1123,3.17,3.2359,3.2496,3.2354,3.1667,3.1208,3.0995,3.0898,3.0898,3.0898,3.0898,3.0898,3.0898,3.1016,3.1074,3.1309,3.1621,3.2051,3.2441,3.2773,3.3066,3.332,3.3418,3.3418,3.3418,3.3418,3.3418,3.3418,3.3418,3.3418,3.3418,3.3292,3.3165,3.2785,3.2019,1.4084,1.4536,1.4546,1.4887,1.5244,1.5351,1.5565,1.5805,1.5832,1.6333,1.7037,1.7028,1.7251,1.789,1.8282,1.8559,1.892,1.8882,1.8882,1.895,1.9033,1.9048,1.9169,1.9275,1.937,1.977,1.9731,2.0071,2.0909,2.0909,2.142,2.1843,2.1725,2.1113,2.0395,2.0205,2.0071,2.0679,2.1004,2.1178,2.24,2.2232,2.1996,2.2249,2.2619,2.3356,2.4225,2.4134,2.4627,2.5235,2.5333,2.5528,2.5645,2.5723,2.5723,2.5723,2.5723,2.5723,2.584,2.6094,2.625,2.6426,2.6699,2.7109,2.7226,2.7637,2.7949,2.8223,2.8388,2.8502,2.856,2.9011,2.937,2.9492,2.9642,3.0206,3.0789,3.1483,3.195,3.2192,3.2647,3.3161,3.3369,3.298,3.2395,3.1556,3.1228,3.0995,3.0898,3.0898,3.0898,3.0898,3.0937,3.1094,3.1269,3.1601,3.1953,3.2383,3.2656,3.2891,3.3164,3.3379,3.3418,3.3418,3.3418,3.3418,3.3418,3.3418,3.3418,3.3418,3.3418,3.3418,3.3292,3.2912,3.2147,1.4322,1.4683,1.4883,1.5372,1.5882,1.5631,1.5859,1.6292,1.6588,1.729,1.7991,1.765,1.7991,1.8722,1.8973,1.9413,1.9765,1.986,1.967,1.9702,1.9814,1.9926,2.0037,1.9975,2.0348,2.0515,2.0656,2.0909,2.1725,2.1725,2.203,2.2434,2.2736,2.2097,2.1387,2.12,2.1452,2.2012,2.2063,2.2756,2.3687,2.3817,2.3302,2.352,2.3917,2.4548,2.4824,2.5137,2.5333,2.5625,2.5723,2.5723,2.5723,2.5723,2.5723,2.5723,2.5723,2.5723,2.582,2.6133,2.625,2.6152,2.6484,2.6914,2.7266,2.7734,2.8008,2.8329,2.8475,2.872,2.9062,2.9516,2.9971,3.0084,3.0395,3.0877,3.1412,3.2127,3.2499,3.2836,3.3443,3.3852,3.414,3.3556,3.3006,3.2227,3.1325,3.1228,3.1015,3.1054,3.0996,3.1074,3.1172,3.1387,3.166,3.1992,3.2344,3.2734,3.293,3.3086,3.3203,3.3418,3.3418,3.3418,3.3418,3.3418,3.3418,3.3418,3.3418,3.3418,3.3418,3.3418,3.3418,3.2912,3.2275,1.4442,1.4923,1.4977,1.5755,1.6692,1.6358,1.6574,1.7355,1.79,1.8396,1.8846,1.8489,1.8936,1.982,2.0002,2.0508,2.1212,2.1392,2.1139,2.1046,2.1067,2.113,2.106,2.0981,2.1412,2.1678,2.1829,2.2013,2.2636,2.2619,2.2619,2.2837,2.3238,2.2902,2.2584,2.2484,2.2501,2.2584,2.3138,2.3945,2.4889,2.4659,2.4251,2.443,2.4745,2.4941,2.5137,2.5333,2.5528,2.5723,2.5723,2.5723,2.5723,2.5723,2.5723,2.5723,2.5723,2.5723,2.582,2.6172,2.6445,2.6504,2.7168,2.7539,2.7715,2.791,2.8212,2.8443,2.874,2.912,2.9497,3.0158,3.0766,3.0908,3.113,3.1645,3.2036,3.2535,3.2787,3.3284,3.4131,3.46,3.4648,3.4246,3.3685,3.2892,3.2227,3.1998,3.1828,3.1191,3.129,3.1387,3.1523,3.1758,3.2051,3.2363,3.2637,3.2969,3.3164,3.332,3.3398,3.3418,3.3418,3.3418,3.3418,3.3418,3.3418,3.3418,3.3418,3.3418,3.3418,3.3418,3.3418,3.3038,3.2549,1.4629,1.4977,1.519,1.5948,1.7016,1.7885,1.8288,1.8427,1.8566,1.9228,2.0463,2.0036,2.0348,2.1177,2.1195,2.1463,2.1553,2.1642,2.1571,2.1717,2.2026,2.1928,2.2002,2.2329,2.2779,2.2909,2.3067,2.3103,2.3285,2.3267,2.3502,2.3737,2.3737,2.3701,2.3701,2.3619,2.3313,2.3178,2.3863,2.4702,2.5388,2.5312,2.5156,2.5235,2.5235,2.5333,2.543,2.5528,2.5723,2.5723,2.5723,2.5723,2.5723,2.5723,2.5723,2.5723,2.5723,2.5742,2.5859,2.6426,2.6797,2.7035,2.7702,2.7773,2.7891,2.8094,2.8483,2.887,2.9227,2.9704,3.0151,3.0752,3.1053,3.118,3.1517,3.2075,3.2466,3.2655,3.2955,3.3769,3.4521,3.4918,3.5087,3.5024,3.4469,3.3685,3.3119,3.2913,3.2612,3.1968,3.1702,3.1939,3.2056,3.2394,3.2505,3.2695,3.2949,3.3184,3.334,3.3418,3.3418,3.3418,3.3418,3.3418,3.3418,3.3418,3.3418,3.3418,3.3418,3.3418,3.3418,3.3418,3.3292,3.3038,3.2804,1.5228,1.5613,1.5763,1.6757,1.8211,1.9637,2.0127,1.9887,1.9729,2.0417,2.1302,2.1122,2.1356,2.1909,2.1998,2.2087,2.2264,2.2353,2.234,2.2388,2.263,2.2777,2.3067,2.3353,2.3564,2.3782,2.3818,2.3701,2.3764,2.3998,2.4152,2.4035,2.4233,2.4332,2.4412,2.451,2.4473,2.4337,2.4571,2.5175,2.5488,2.5684,2.5645,2.5723,2.5723,2.5723,2.5723,2.5723,2.5742,2.5723,2.5723,2.5917,2.611,2.64,2.64,2.64,2.6207,2.6496,2.6714,2.6823,2.7159,2.7617,2.8277,2.8555,2.8615,2.878,2.9039,2.9374,2.9887,3.0333,3.0799,3.1247,3.1275,3.1292,3.1842,3.2535,3.2678,3.2799,3.3429,3.4148,3.4762,3.5138,3.5318,3.5395,3.5135,3.4469,3.4022,3.3685,3.3388,3.2903,3.2662,3.2614,3.2755,3.3014,3.3026,3.3237,3.327,3.3426,3.3359,3.3418,3.3418,3.3418,3.3418,3.3418,3.3418,3.3418,3.3418,3.3418,3.3418,3.3418,3.3418,3.3418,3.3418,3.3292,3.3038,1.5992,1.6667,1.6773,1.8055,1.9861,2.1087,2.1642,2.1731,2.1266,2.1374,2.1731,2.182,2.2087,2.2441,2.2441,2.2599,2.2794,2.2882,2.2917,2.3157,2.348,2.3598,2.3647,2.4012,2.4239,2.4214,2.4233,2.4412,2.4196,2.443,2.4665,2.4233,2.4726,2.4922,2.4922,2.5235,2.5216,2.5197,2.5197,2.5528,2.5645,2.5742,2.5723,2.5723,2.5723,2.5723,2.5723,2.5742,2.5742,2.5723,2.6033,2.642,2.6955,2.7431,2.7336,2.7241,2.6955,2.7241,2.7469,2.7598,2.7763,2.8371,2.9085,2.9662,2.9891,2.9577,2.9808,3.013,3.0615,3.0865,3.1359,3.2059,3.2264,3.2413,3.2715,3.3068,3.3141,3.359,3.431,3.4941,3.5352,3.5709,3.5825,3.5927,3.5927,3.5245,3.4914,3.4692,3.4644,3.4237,3.3886,3.3788,3.3981,3.4166,3.4083,3.4117,3.3697,3.367,3.3544,3.3418,3.3418,3.3418,3.3418,3.3418,3.3418,3.3418,3.3418,3.3418,3.3418,3.3418,3.3418,3.3418,3.3418,3.3418,3.3292,1.6783,1.7581,1.8978,1.9793,2.0059,2.1177,2.1909,2.2176,2.2087,2.2069,2.2264,2.2618,2.2794,2.2882,2.2882,2.2969,2.3057,2.3164,2.3329,2.3648,2.3963,2.4145,2.4335,2.4849,2.502,2.4941,2.502,2.5137,2.5118,2.5254,2.5469,2.5333,2.5528,2.5528,2.5606,2.5917,2.5917,2.6014,2.6187,2.6091,2.5917,2.582,2.5723,2.5723,2.582,2.5936,2.5839,2.5723,2.611,2.6496,2.7215,2.7556,2.7715,2.7904,2.7904,2.7788,2.7694,2.7998,2.8391,2.8634,2.9,2.9458,3.0226,3.096,3.1176,3.0764,3.0739,3.1026,3.1329,3.1547,3.1871,3.2684,3.3258,3.3379,3.3573,3.3598,3.3743,3.4477,3.5254,3.5671,3.6038,3.6167,3.631,3.6386,3.6495,3.6254,3.6036,3.6018,3.6493,3.6341,3.5637,3.5552,3.5523,3.5638,3.5355,3.5025,3.4652,3.4298,3.4173,3.3922,3.3544,3.3418,3.3418,3.3418,3.3418,3.3418,3.3418,3.3418,3.3418,3.3418,3.3418,3.3418,3.3418,3.3418,3.3418,1.7504,1.8633,2.0394,2.1087,2.1159,2.198,2.2441,2.2706,2.2706,2.2706,2.2706,2.2969,2.3144,2.3144,2.3144,2.3144,2.3144,2.3144,2.3574,2.4023,2.4336,2.4636,2.5043,2.5412,2.5392,2.543,2.5528,2.5625,2.5839,2.5742,2.5742,2.611,2.6207,2.64,2.6592,2.6668,2.6688,2.6764,2.7146,2.7051,2.6668,2.6668,2.6668,2.6668,2.6688,2.6805,2.6648,2.6416,2.6431,2.7179,2.801,2.8104,2.8279,2.8746,2.8746,2.8516,2.8495,2.8724,2.9421,2.9929,3.0307,3.0975,3.1739,3.2555,3.27,3.2376,3.2174,3.2499,3.2681,3.2961,3.2558,3.3064,3.3469,3.3758,3.4122,3.4534,3.5017,3.5866,3.6493,3.6922,3.6948,3.6743,3.6801,3.6796,3.682,3.6998,3.689,3.734,3.7825,3.8073,3.7474,3.7032,3.6991,3.6639,3.5992,3.5767,3.5644,3.5273,3.4901,3.4652,3.4278,3.367,3.3418,3.3418,3.3418,3.3418,3.3418,3.3418,3.3418,3.3418,3.3418,3.3418,3.3418,3.3418,3.3418,1.8481,1.9758,2.1315,2.2187,2.2403,2.2882,2.3057,2.3057,2.3057,2.3057,2.3057,2.3057,2.3144,2.3144,2.3144,2.3144,2.3184,2.3301,2.3769,2.4219,2.4492,2.4905,2.5314,2.5625,2.5625,2.5586,2.5722,2.6014,2.6267,2.6344,2.6592,2.6955,2.7146,2.7336,2.7788,2.7977,2.7788,2.7715,2.7904,2.807,2.807,2.8092,2.804,2.804,2.8113,2.8271,2.7977,2.7474,2.7066,2.7806,2.8768,2.8861,2.8932,2.9393,2.9577,2.9441,2.9351,3.0079,3.1113,3.1318,3.1941,3.2642,3.3394,3.3871,3.3993,3.3997,3.3808,3.3734,3.3899,3.3801,3.3492,3.352,3.3926,3.443,3.504,3.5551,3.6357,3.7097,3.7538,3.7976,3.7733,3.7379,3.731,3.7203,3.7405,3.7476,3.7929,3.8539,3.8899,3.8895,3.8663,3.832,3.8146,3.7582,3.6967,3.6624,3.6624,3.638,3.6013,3.5644,3.5025,3.4047,3.3418,3.3418,3.3418,3.3418,3.3418,3.3418,3.3418,3.3418,3.3418,3.3418,3.3418,3.3418,3.3418,1.9716,2.0943,2.2293,2.2717,2.253,2.2882,2.3144,2.3144,2.3144,2.3144,2.3144,2.3144,2.3144,2.3144,2.3144,2.3144,2.3184,2.3418,2.3887,2.4375,2.4707,2.5234,2.5663,2.5877,2.5723,2.5818,2.5988,2.6486,2.729,2.7535,2.762,2.7809,2.7809,2.7904,2.7998,2.8092,2.8279,2.8373,2.8746,2.891,2.8588,2.8675,2.8892,2.8798,2.8639,2.8524,2.8271,2.7977,2.8215,2.8817,2.9577,2.976,2.9943,3.0125,3.0306,3.0534,3.0418,3.1176,3.2059,3.2697,3.3409,3.3887,3.4535,3.4896,3.5114,3.5379,3.5065,3.4582,3.4702,3.4605,3.4364,3.4752,3.5138,3.5868,3.6554,3.6972,3.759,3.8039,3.8386,3.8502,3.8307,3.8065,3.7878,3.7916,3.8094,3.8393,3.8779,3.9418,3.9989,3.9994,3.9726,3.943,3.9267,3.917,3.8693,3.7834,3.7473,3.7352,3.6868,3.6258,3.5397,3.4047,3.3544,3.3418,3.3418,3.3418,3.3418,3.3418,3.3418,3.3418,3.3418,3.3418,3.3418,3.3418,3.3418]},{"header":{"parameterUnit":"m.s-1","parameterCategory":1,"la1":31.0,"la2":29.5877,"lo1":-88.7671,"lo2":-86.6584,"dx":0.0162,"dy":0.0185,"nx":115,"ny":88,"refTime":"2023-01-04T18:00:00:Z","depth":0,"parameterNumber":3,"parameterNumberName":"V-component_of_WINDS"},"data":[0.0,0.0,0.0,0.0,0.0,0.0,0.0,0.0,0.0,0.0,0.0,0.0,0.0,0.0,0.0,0.0,0.0,0.0,0.0,0.0,0.0,0.0,0.0,0.0,0.0,0.0,0.0,0.0,0.0,0.0,0.0,0.0,0.0,0.0,0.0,0.0,0.0,0.0,0.0,0.0,0.0,-2.7547,-2.7015,-2.6688,-2.5891,-2.5308,-2.4991,0.0,0.0,0.0,0.0,0.0,0.0,0.0,0.0,0.0,0.0,0.0,0.0,0.0,0.0,0.0,0.0,0.0,0.0,0.0,0.0,0.0,0.0,0.0,0.0,0.0,0.0,0.0,0.0,0.0,0.0,0.0,0.0,0.0,0.0,0.0,0.0,0.0,0.0,0.0,0.0,0.0,0.0,0.0,0.0,0.0,0.0,0.0,0.0,0.0,0.0,0.0,0.0,0.0,0.0,0.0,0.0,0.0,0.0,0.0,0.0,0.0,0.0,0.0,0.0,0.0,0.0,0.0,0.0,0.0,0.0,0.0,0.0,0.0,0.0,0.0,0.0,0.0,0.0,0.0,0.0,0.0,0.0,0.0,0.0,0.0,0.0,0.0,0.0,0.0,0.0,0.0,0.0,0.0,0.0,0.0,0.0,0.0,0.0,0.0,0.0,0.0,0.0,0.0,0.0,0.0,0.0,0.0,0.0,0.0,0.0,-2.8288,-2.7593,-2.665,-2.5829,-2.5181,0.0,0.0,0.0,0.0,0.0,0.0,0.0,0.0,0.0,0.0,0.0,0.0,0.0,0.0,0.0,0.0,0.0,0.0,0.0,0.0,0.0,0.0,0.0,0.0,0.0,0.0,0.0,0.0,0.0,0.0,0.0,0.0,0.0,0.0,0.0,0.0,0.0,0.0,0.0,0.0,0.0,0.0,0.0,0.0,0.0,0.0,0.0,0.0,0.0,0.0,0.0,0.0,0.0,0.0,0.0,0.0,0.0,0.0,0.0,0.0,0.0,0.0,0.0,0.0,0.0,0.0,0.0,0.0,0.0,0.0,0.0,0.0,0.0,0.0,0.0,0.0,0.0,0.0,0.0,0.0,0.0,0.0,0.0,0.0,0.0,0.0,0.0,0.0,0.0,0.0,0.0,0.0,0.0,0.0,0.0,0.0,0.0,0.0,0.0,0.0,0.0,0.0,0.0,0.0,0.0,0.0,0.0,0.0,0.0,0.0,-2.8499,-2.8288,-2.6902,-2.607,-2.5904,0.0,0.0,0.0,0.0,0.0,0.0,0.0,0.0,0.0,0.0,0.0,0.0,0.0,0.0,0.0,0.0,0.0,0.0,0.0,0.0,0.0,0.0,0.0,0.0,0.0,0.0,0.0,0.0,0.0,0.0,0.0,0.0,0.0,0.0,0.0,0.0,0.0,0.0,0.0,0.0,0.0,0.0,0.0,0.0,0.0,0.0,0.0,0.0,0.0,0.0,0.0,0.0,0.0,0.0,0.0,0.0,0.0,0.0,0.0,0.0,0.0,0.0,0.0,0.0,0.0,0.0,0.0,0.0,0.0,0.0,0.0,0.0,0.0,0.0,0.0,0.0,0.0,0.0,0.0,0.0,0.0,0.0,0.0,0.0,0.0,0.0,0.0,0.0,0.0,0.0,0.0,0.0,0.0,0.0,0.0,0.0,0.0,0.0,0.0,0.0,0.0,0.0,0.0,0.0,0.0,0.0,0.0,0.0,0.0,0.0,-2.8906,-2.8621,-2.7698,-2.7062,-2.6706,-2.5963,0.0,0.0,0.0,0.0,0.0,0.0,0.0,0.0,0.0,0.0,0.0,0.0,0.0,0.0,0.0,0.0,0.0,0.0,0.0,0.0,0.0,0.0,0.0,0.0,0.0,0.0,0.0,0.0,0.0,0.0,0.0,0.0,0.0,0.0,0.0,0.0,0.0,0.0,0.0,0.0,0.0,0.0,0.0,0.0,0.0,0.0,0.0,0.0,0.0,0.0,0.0,0.0,0.0,0.0,0.0,0.0,0.0,0.0,0.0,0.0,0.0,0.0,0.0,0.0,0.0,0.0,0.0,0.0,0.0,0.0,0.0,0.0,0.0,0.0,0.0,0.0,0.0,0.0,0.0,0.0,0.0,0.0,0.0,0.0,0.0,0.0,0.0,0.0,0.0,0.0,0.0,0.0,0.0,0.0,0.0,0.0,0.0,0.0,0.0,0.0,0.0,0.0,0.0,0.0,0.0,0.0,0.0,0.0,0.0,-2.9382,-2.8816,-2.8617,-2.8196,-2.7355,-2.6563,0.0,0.0,0.0,0.0,0.0,0.0,0.0,0.0,0.0,0.0,0.0,0.0,0.0,0.0,0.0,0.0,0.0,0.0,0.0,0.0,0.0,0.0,0.0,0.0,0.0,0.0,0.0,0.0,0.0,0.0,0.0,0.0,0.0,0.0,0.0,0.0,0.0,0.0,0.0,0.0,0.0,0.0,0.0,0.0,0.0,0.0,0.0,0.0,0.0,0.0,0.0,0.0,0.0,0.0,0.0,0.0,0.0,0.0,0.0,0.0,0.0,0.0,0.0,0.0,0.0,0.0,0.0,0.0,0.0,0.0,0.0,0.0,0.0,0.0,0.0,0.0,0.0,0.0,0.0,0.0,0.0,0.0,0.0,0.0,0.0,0.0,0.0,0.0,0.0,0.0,0.0,0.0,0.0,0.0,0.0,0.0,0.0,0.0,0.0,0.0,0.0,0.0,0.0,0.0,0.0,0.0,0.0,0.0,0.0,-2.9626,-2.9457,-2.894,-2.8212,-2.7434,-2.6631,0.0,0.0,0.0,0.0,0.0,0.0,0.0,0.0,0.0,0.0,0.0,0.0,0.0,0.0,0.0,0.0,0.0,0.0,0.0,0.0,0.0,0.0,0.0,0.0,0.0,0.0,0.0,0.0,0.0,0.0,0.0,0.0,0.0,0.0,0.0,0.0,0.0,0.0,0.0,0.0,0.0,0.0,0.0,0.0,0.0,0.0,0.0,0.0,0.0,0.0,0.0,0.0,0.0,0.0,0.0,0.0,0.0,0.0,0.0,0.0,0.0,0.0,0.0,0.0,0.0,0.0,0.0,0.0,0.0,0.0,0.0,0.0,0.0,0.0,0.0,0.0,0.0,0.0,0.0,0.0,0.0,0.0,0.0,0.0,0.0,0.0,0.0,0.0,0.0,0.0,0.0,0.0,0.0,0.0,0.0,0.0,0.0,0.0,0.0,0.0,0.0,0.0,0.0,0.0,0.0,0.0,0.0,0.0,0.0,-2.9701,-2.9682,-2.9341,-2.8801,-2.801,-2.7199,0.0,0.0,0.0,0.0,0.0,0.0,0.0,0.0,0.0,0.0,0.0,0.0,0.0,0.0,0.0,0.0,0.0,0.0,0.0,0.0,0.0,0.0,0.0,0.0,0.0,0.0,0.0,0.0,0.0,0.0,0.0,0.0,0.0,0.0,0.0,0.0,0.0,0.0,0.0,0.0,0.0,0.0,0.0,0.0,0.0,0.0,0.0,0.0,0.0,0.0,0.0,0.0,0.0,0.0,0.0,0.0,0.0,0.0,0.0,0.0,0.0,0.0,0.0,0.0,0.0,0.0,0.0,0.0,0.0,0.0,0.0,0.0,0.0,0.0,0.0,0.0,0.0,0.0,0.0,0.0,0.0,0.0,0.0,0.0,0.0,0.0,0.0,0.0,0.0,0.0,0.0,0.0,0.0,0.0,0.0,0.0,0.0,0.0,0.0,0.0,0.0,0.0,0.0,0.0,0.0,0.0,0.0,0.0,-2.9701,-2.9701,-2.9701,-2.9719,-2.9297,-2.8404,-2.7752,0.0,0.0,0.0,0.0,0.0,0.0,0.0,0.0,0.0,0.0,0.0,0.0,0.0,0.0,0.0,0.0,0.0,0.0,0.0,0.0,0.0,0.0,0.0,0.0,0.0,0.0,0.0,0.0,0.0,0.0,0.0,0.0,0.0,0.0,0.0,0.0,0.0,0.0,0.0,0.0,0.0,0.0,0.0,0.0,0.0,0.0,0.0,0.0,0.0,0.0,0.0,0.0,0.0,0.0,0.0,0.0,0.0,0.0,0.0,0.0,0.0,0.0,0.0,0.0,0.0,0.0,0.0,0.0,0.0,0.0,0.0,0.0,0.0,0.0,0.0,0.0,0.0,0.0,0.0,0.0,0.0,0.0,0.0,0.0,0.0,0.0,0.0,0.0,0.0,0.0,0.0,0.0,0.0,0.0,0.0,0.0,0.0,0.0,0.0,0.0,0.0,0.0,0.0,0.0,0.0,0.0,0.0,-2.9701,-2.9701,-2.9701,-2.9701,-2.9755,-2.9077,-2.7541,-2.7478,0.0,0.0,0.0,0.0,0.0,0.0,0.0,0.0,0.0,0.0,0.0,0.0,0.0,0.0,0.0,0.0,0.0,0.0,0.0,0.0,0.0,0.0,0.0,0.0,0.0,0.0,0.0,0.0,0.0,0.0,0.0,0.0,0.0,0.0,0.0,0.0,0.0,0.0,0.0,0.0,0.0,0.0,0.0,0.0,0.0,0.0,0.0,0.0,0.0,0.0,0.0,0.0,0.0,0.0,0.0,0.0,0.0,0.0,0.0,0.0,0.0,0.0,0.0,0.0,0.0,0.0,0.0,0.0,0.0,0.0,0.0,0.0,0.0,0.0,0.0,0.0,0.0,0.0,0.0,0.0,0.0,0.0,0.0,0.0,0.0,0.0,0.0,0.0,0.0,0.0,0.0,0.0,0.0,0.0,0.0,0.0,0.0,0.0,0.0,0.0,0.0,0.0,0.0,0.0,0.0,0.0,-2.9231,-2.9626,-2.9267,-2.9267,-2.972,-2.9737,-2.8946,-2.7373,-2.7335,0.0,0.0,0.0,0.0,0.0,0.0,0.0,0.0,0.0,0.0,0.0,0.0,0.0,0.0,0.0,0.0,0.0,0.0,0.0,0.0,0.0,0.0,0.0,0.0,0.0,0.0,0.0,0.0,0.0,0.0,0.0,0.0,0.0,0.0,0.0,0.0,0.0,0.0,0.0,0.0,0.0,0.0,0.0,0.0,0.0,0.0,0.0,0.0,0.0,0.0,0.0,0.0,0.0,0.0,0.0,0.0,0.0,0.0,0.0,0.0,0.0,0.0,0.0,0.0,0.0,0.0,0.0,0.0,0.0,0.0,0.0,0.0,0.0,0.0,0.0,0.0,0.0,0.0,0.0,0.0,0.0,0.0,0.0,0.0,0.0,0.0,0.0,0.0,0.0,0.0,0.0,0.0,0.0,0.0,0.0,0.0,0.0,0.0,0.0,0.0,0.0,0.0,0.0,0.0,0.0,0.0,-2.8725,-2.9288,-2.8816,-2.8909,-2.9701,-2.9737,-2.8946,-2.742,0.0,0.0,0.0,0.0,0.0,0.0,0.0,0.0,0.0,0.0,0.0,0.0,0.0,0.0,0.0,0.0,0.0,0.0,0.0,0.0,0.0,0.0,0.0,0.0,0.0,0.0,0.0,0.0,0.0,0.0,0.0,0.0,0.0,0.0,0.0,0.0,0.0,0.0,0.0,0.0,0.0,0.0,0.0,0.0,0.0,0.0,0.0,0.0,0.0,0.0,0.0,0.0,0.0,0.0,0.0,0.0,0.0,0.0,0.0,0.0,0.0,0.0,0.0,0.0,0.0,0.0,0.0,0.0,0.0,0.0,0.0,0.0,0.0,0.0,0.0,0.0,0.0,0.0,0.0,0.0,0.0,0.0,0.0,0.0,0.0,0.0,0.0,0.0,0.0,0.0,0.0,0.0,0.0,0.0,0.0,0.0,0.0,0.0,0.0,0.0,0.0,0.0,0.0,0.0,0.0,0.0,0.0,-2.8446,-2.8519,-2.8446,-2.882,-2.966,-2.968,-2.8981,-2.7554,0.0,0.0,0.0,0.0,0.0,0.0,0.0,0.0,0.0,0.0,0.0,0.0,0.0,0.0,0.0,0.0,0.0,0.0,0.0,0.0,0.0,0.0,0.0,0.0,0.0,0.0,0.0,0.0,0.0,0.0,0.0,0.0,0.0,0.0,0.0,0.0,0.0,0.0,0.0,0.0,0.0,0.0,0.0,0.0,0.0,0.0,0.0,0.0,0.0,0.0,0.0,0.0,0.0,0.0,0.0,0.0,0.0,0.0,0.0,0.0,0.0,0.0,0.0,0.0,0.0,0.0,0.0,0.0,0.0,0.0,0.0,0.0,0.0,0.0,0.0,0.0,0.0,0.0,0.0,0.0,0.0,0.0,0.0,0.0,0.0,0.0,0.0,0.0,0.0,0.0,0.0,0.0,0.0,0.0,0.0,0.0,0.0,0.0,0.0,0.0,0.0,0.0,0.0,0.0,0.0,0.0,-2.8009,-2.8199,-2.897,-2.807,-2.8184,-2.9513,-2.8648,-2.7876,-2.7307,0.0,0.0,0.0,0.0,0.0,0.0,0.0,0.0,0.0,0.0,0.0,0.0,0.0,0.0,0.0,0.0,0.0,0.0,0.0,0.0,0.0,0.0,0.0,0.0,0.0,0.0,0.0,0.0,0.0,0.0,0.0,0.0,0.0,0.0,0.0,0.0,0.0,0.0,0.0,0.0,0.0,0.0,0.0,0.0,0.0,0.0,0.0,0.0,0.0,0.0,0.0,0.0,0.0,0.0,0.0,0.0,0.0,0.0,0.0,0.0,0.0,0.0,0.0,0.0,0.0,0.0,0.0,0.0,0.0,0.0,0.0,0.0,0.0,0.0,0.0,0.0,0.0,0.0,0.0,0.0,0.0,0.0,0.0,0.0,0.0,0.0,0.0,0.0,0.0,0.0,0.0,0.0,0.0,0.0,0.0,0.0,0.0,0.0,0.0,0.0,0.0,0.0,0.0,0.0,0.0,-2.8139,-2.7558,-2.7751,-2.8613,-2.7655,-2.7734,-2.9119,-2.8344,-2.757,-2.7,0.0,0.0,0.0,0.0,0.0,0.0,0.0,0.0,0.0,0.0,0.0,0.0,0.0,0.0,0.0,0.0,0.0,0.0,0.0,0.0,0.0,0.0,0.0,0.0,0.0,0.0,0.0,0.0,0.0,0.0,0.0,0.0,0.0,0.0,0.0,0.0,0.0,0.0,0.0,0.0,0.0,0.0,0.0,0.0,0.0,0.0,0.0,0.0,0.0,0.0,0.0,0.0,0.0,0.0,0.0,0.0,0.0,0.0,0.0,0.0,0.0,0.0,0.0,0.0,0.0,0.0,0.0,0.0,0.0,0.0,0.0,0.0,0.0,0.0,0.0,0.0,0.0,0.0,0.0,0.0,0.0,0.0,0.0,0.0,0.0,0.0,0.0,0.0,0.0,0.0,0.0,0.0,0.0,0.0,0.0,0.0,0.0,0.0,0.0,0.0,0.0,0.0,0.0,0.0,0.0,0.0,-2.7176,-2.7028,-2.6989,-2.7118,-2.7662,-2.8617,-2.938,-2.87,-2.6529,0.0,0.0,0.0,0.0,0.0,0.0,0.0,0.0,0.0,0.0,0.0,0.0,0.0,0.0,0.0,0.0,0.0,0.0,0.0,0.0,0.0,0.0,0.0,0.0,0.0,0.0,0.0,0.0,0.0,0.0,0.0,0.0,0.0,0.0,0.0,0.0,0.0,0.0,0.0,0.0,0.0,0.0,0.0,0.0,0.0,0.0,0.0,0.0,0.0,0.0,0.0,0.0,0.0,0.0,0.0,0.0,0.0,0.0,0.0,0.0,0.0,0.0,0.0,0.0,0.0,0.0,0.0,0.0,0.0,0.0,0.0,0.0,0.0,0.0,0.0,0.0,0.0,0.0,0.0,0.0,0.0,0.0,0.0,0.0,0.0,0.0,0.0,0.0,0.0,0.0,0.0,0.0,0.0,0.0,0.0,0.0,0.0,0.0,0.0,0.0,0.0,0.0,0.0,0.0,0.0,0.0,-2.7491,-2.7382,-2.7661,-2.7308,-2.755,-2.8333,-2.8364,-2.7927,-2.7203,0.0,0.0,0.0,0.0,0.0,0.0,0.0,0.0,0.0,0.0,0.0,0.0,0.0,0.0,0.0,0.0,0.0,0.0,0.0,0.0,0.0,0.0,0.0,0.0,0.0,0.0,0.0,0.0,0.0,0.0,0.0,0.0,0.0,0.0,0.0,0.0,0.0,0.0,0.0,0.0,0.0,0.0,0.0,0.0,0.0,0.0,0.0,0.0,0.0,0.0,0.0,0.0,0.0,0.0,0.0,0.0,0.0,0.0,0.0,0.0,0.0,0.0,0.0,0.0,0.0,0.0,0.0,0.0,0.0,0.0,0.0,0.0,0.0,0.0,0.0,0.0,0.0,0.0,0.0,0.0,0.0,0.0,0.0,0.0,0.0,0.0,0.0,0.0,0.0,0.0,0.0,0.0,0.0,0.0,0.0,0.0,0.0,0.0,0.0,0.0,0.0,0.0,0.0,0.0,0.0,0.0,-2.7624,-2.7437,-2.7884,-2.7725,-2.7896,-2.8484,-2.8175,-2.7917,0.0,0.0,0.0,0.0,0.0,0.0,0.0,0.0,0.0,0.0,0.0,0.0,0.0,0.0,0.0,0.0,0.0,0.0,0.0,0.0,0.0,0.0,0.0,0.0,0.0,0.0,0.0,0.0,0.0,0.0,0.0,0.0,0.0,0.0,0.0,0.0,0.0,0.0,0.0,0.0,0.0,0.0,0.0,0.0,0.0,0.0,0.0,0.0,0.0,0.0,0.0,0.0,0.0,0.0,0.0,0.0,0.0,0.0,0.0,0.0,0.0,0.0,0.0,0.0,0.0,0.0,0.0,0.0,0.0,0.0,0.0,0.0,0.0,0.0,0.0,0.0,0.0,0.0,0.0,0.0,0.0,0.0,0.0,0.0,0.0,0.0,0.0,0.0,0.0,0.0,0.0,0.0,0.0,0.0,0.0,0.0,0.0,0.0,0.0,0.0,0.0,0.0,0.0,0.0,0.0,0.0,0.0,-2.7563,-2.7177,-2.7297,-2.8063,-2.8525,-2.8984,-2.9025,-2.8741,0.0,0.0,0.0,0.0,0.0,0.0,0.0,0.0,0.0,0.0,0.0,0.0,0.0,0.0,0.0,0.0,0.0,0.0,0.0,0.0,0.0,0.0,0.0,0.0,0.0,0.0,0.0,0.0,0.0,0.0,0.0,0.0,0.0,0.0,0.0,0.0,0.0,0.0,0.0,0.0,0.0,0.0,0.0,0.0,0.0,0.0,0.0,0.0,0.0,0.0,0.0,0.0,0.0,0.0,0.0,0.0,0.0,0.0,0.0,0.0,0.0,0.0,0.0,0.0,0.0,0.0,0.0,0.0,0.0,0.0,0.0,0.0,0.0,0.0,0.0,0.0,0.0,0.0,0.0,0.0,0.0,0.0,0.0,0.0,0.0,0.0,0.0,0.0,0.0,0.0,0.0,0.0,0.0,0.0,0.0,0.0,0.0,0.0,0.0,0.0,0.0,0.0,0.0,0.0,0.0,0.0,0.0,-2.7336,-2.6906,-2.6274,-2.6072,-2.691,-2.8789,-2.7877,-2.7566,-2.8014,0.0,0.0,0.0,0.0,0.0,0.0,0.0,0.0,0.0,0.0,0.0,0.0,0.0,0.0,0.0,0.0,0.0,0.0,0.0,0.0,0.0,0.0,0.0,0.0,0.0,0.0,0.0,0.0,0.0,0.0,0.0,0.0,0.0,0.0,0.0,0.0,0.0,0.0,0.0,0.0,0.0,0.0,0.0,0.0,0.0,0.0,0.0,0.0,0.0,0.0,0.0,0.0,0.0,0.0,0.0,0.0,0.0,0.0,0.0,0.0,0.0,0.0,0.0,0.0,0.0,0.0,0.0,0.0,0.0,0.0,0.0,0.0,0.0,0.0,0.0,0.0,0.0,0.0,0.0,0.0,0.0,0.0,0.0,0.0,0.0,0.0,0.0,0.0,0.0,0.0,0.0,0.0,0.0,0.0,0.0,0.0,0.0,0.0,0.0,0.0,0.0,0.0,0.0,0.0,0.0,0.0,-2.7361,-2.7091,-2.6892,-2.6522,-2.7158,-2.8917,-2.7929,-2.7624,-2.8029,0.0,0.0,0.0,0.0,0.0,0.0,0.0,0.0,0.0,0.0,0.0,0.0,0.0,0.0,0.0,0.0,0.0,0.0,0.0,0.0,0.0,0.0,0.0,0.0,0.0,0.0,0.0,0.0,0.0,0.0,0.0,0.0,0.0,0.0,0.0,0.0,0.0,0.0,0.0,0.0,0.0,0.0,0.0,0.0,0.0,0.0,0.0,0.0,0.0,0.0,0.0,0.0,0.0,0.0,0.0,0.0,0.0,0.0,0.0,0.0,0.0,0.0,0.0,0.0,0.0,0.0,0.0,0.0,0.0,0.0,0.0,0.0,0.0,0.0,0.0,0.0,0.0,0.0,0.0,0.0,0.0,0.0,0.0,0.0,0.0,0.0,0.0,0.0,0.0,0.0,0.0,0.0,0.0,0.0,0.0,0.0,0.0,0.0,0.0,0.0,0.0,0.0,0.0,0.0,0.0,0.0,0.0,-2.7509,-2.8723,-2.8821,-2.8937,-2.9088,-2.8913,-2.8627,-2.8007,0.0,0.0,0.0,0.0,0.0,0.0,0.0,0.0,0.0,0.0,0.0,0.0,0.0,0.0,0.0,0.0,0.0,0.0,0.0,0.0,0.0,0.0,0.0,0.0,0.0,0.0,0.0,0.0,0.0,0.0,0.0,0.0,0.0,0.0,0.0,0.0,0.0,0.0,0.0,0.0,0.0,0.0,0.0,0.0,0.0,0.0,0.0,0.0,0.0,0.0,0.0,0.0,0.0,0.0,0.0,0.0,0.0,0.0,0.0,0.0,0.0,0.0,0.0,0.0,0.0,0.0,0.0,0.0,0.0,0.0,0.0,0.0,0.0,0.0,0.0,0.0,0.0,0.0,0.0,0.0,0.0,0.0,0.0,0.0,0.0,0.0,0.0,0.0,0.0,0.0,0.0,0.0,0.0,0.0,0.0,0.0,0.0,0.0,0.0,0.0,0.0,0.0,0.0,0.0,0.0,0.0,-2.6692,-2.7115,-2.8818,-2.8917,-2.9297,-3.0013,-2.8232,-2.7522,-2.8116,0.0,0.0,0.0,0.0,0.0,0.0,0.0,0.0,0.0,0.0,0.0,0.0,0.0,0.0,0.0,0.0,0.0,0.0,0.0,0.0,0.0,0.0,0.0,0.0,0.0,0.0,0.0,0.0,0.0,0.0,0.0,0.0,0.0,0.0,0.0,0.0,0.0,0.0,0.0,0.0,0.0,0.0,0.0,0.0,0.0,0.0,0.0,0.0,0.0,0.0,0.0,0.0,0.0,0.0,0.0,0.0,0.0,0.0,0.0,0.0,0.0,0.0,0.0,0.0,0.0,0.0,0.0,0.0,0.0,0.0,0.0,0.0,0.0,0.0,0.0,0.0,0.0,0.0,0.0,0.0,0.0,0.0,0.0,0.0,0.0,0.0,0.0,0.0,0.0,0.0,0.0,0.0,0.0,0.0,0.0,0.0,0.0,0.0,0.0,0.0,0.0,0.0,0.0,0.0,0.0,0.0,-2.7304,-2.7718,-2.9011,-2.9373,-2.9862,-3.0559,-2.8318,-2.7246,-2.7575,0.0,0.0,0.0,0.0,0.0,0.0,0.0,0.0,0.0,0.0,0.0,0.0,0.0,0.0,0.0,0.0,0.0,0.0,0.0,0.0,0.0,0.0,0.0,0.0,0.0,0.0,0.0,0.0,0.0,0.0,0.0,0.0,0.0,0.0,0.0,0.0,0.0,0.0,0.0,0.0,0.0,0.0,0.0,0.0,0.0,0.0,0.0,0.0,-2.808,0.0,0.0,0.0,0.0,0.0,0.0,0.0,0.0,0.0,0.0,0.0,0.0,0.0,0.0,0.0,0.0,0.0,0.0,0.0,0.0,0.0,0.0,0.0,0.0,0.0,0.0,0.0,0.0,0.0,0.0,0.0,0.0,0.0,0.0,0.0,0.0,0.0,0.0,0.0,0.0,0.0,0.0,0.0,0.0,0.0,0.0,0.0,0.0,0.0,0.0,0.0,0.0,0.0,0.0,0.0,-2.8259,-2.831,-2.8482,-2.8817,-2.9263,-3.0019,-3.0465,-3.0645,-2.881,-2.7511,-2.688,0.0,0.0,0.0,0.0,0.0,0.0,0.0,0.0,0.0,0.0,0.0,0.0,0.0,0.0,0.0,0.0,0.0,0.0,0.0,0.0,0.0,0.0,0.0,0.0,0.0,0.0,0.0,0.0,0.0,0.0,0.0,0.0,0.0,0.0,0.0,0.0,0.0,0.0,0.0,0.0,0.0,0.0,0.0,0.0,0.0,0.0,0.0,-2.7624,-2.8526,0.0,0.0,0.0,0.0,0.0,0.0,0.0,0.0,0.0,0.0,0.0,0.0,0.0,0.0,0.0,0.0,0.0,0.0,0.0,0.0,0.0,0.0,0.0,0.0,0.0,0.0,0.0,-2.4613,0.0,-2.4547,0.0,0.0,0.0,0.0,0.0,0.0,0.0,0.0,0.0,0.0,0.0,0.0,0.0,0.0,0.0,0.0,0.0,0.0,0.0,0.0,0.0,0.0,0.0,0.0,-2.8352,-2.8316,-2.8389,-2.8585,-2.9168,-3.0105,-3.031,-3.0504,-3.0713,-2.8879,-2.7878,-2.7762,0.0,0.0,0.0,0.0,0.0,0.0,0.0,0.0,0.0,0.0,0.0,0.0,0.0,0.0,0.0,0.0,0.0,0.0,0.0,0.0,0.0,0.0,0.0,0.0,0.0,0.0,0.0,0.0,0.0,0.0,0.0,0.0,0.0,0.0,0.0,0.0,0.0,0.0,0.0,0.0,0.0,0.0,0.0,0.0,0.0,0.0,0.0,-2.8618,0.0,0.0,0.0,0.0,0.0,0.0,0.0,0.0,0.0,0.0,0.0,0.0,0.0,0.0,0.0,0.0,0.0,0.0,0.0,0.0,0.0,0.0,0.0,0.0,0.0,0.0,0.0,0.0,-2.4645,-2.4596,-2.458,0.0,0.0,0.0,0.0,0.0,0.0,0.0,0.0,0.0,0.0,0.0,0.0,0.0,0.0,0.0,0.0,0.0,0.0,0.0,0.0,0.0,0.0,0.0,-2.8277,-2.8316,-2.8166,-2.7905,-2.8472,-2.9121,-2.9776,-3.0226,-3.0506,-3.0584,-2.9293,-2.8398,-2.8082,0.0,0.0,0.0,0.0,0.0,0.0,0.0,0.0,0.0,0.0,0.0,0.0,0.0,0.0,0.0,0.0,0.0,0.0,0.0,0.0,0.0,0.0,0.0,0.0,0.0,0.0,0.0,0.0,0.0,0.0,0.0,0.0,0.0,0.0,0.0,0.0,0.0,-2.7438,-2.7376,0.0,0.0,0.0,0.0,0.0,0.0,0.0,0.0,-2.8493,-2.9085,0.0,0.0,0.0,0.0,0.0,0.0,0.0,0.0,0.0,0.0,0.0,0.0,0.0,0.0,0.0,0.0,0.0,0.0,0.0,0.0,0.0,0.0,0.0,0.0,0.0,0.0,0.0,-2.4698,-2.4682,-2.4666,0.0,0.0,0.0,0.0,0.0,0.0,0.0,0.0,0.0,0.0,0.0,0.0,0.0,0.0,0.0,0.0,0.0,0.0,0.0,0.0,0.0,0.0,0.0,-2.8409,-2.8371,-2.8129,-2.7717,-2.8464,-2.91,-2.9526,-3.0156,-3.056,-3.0603,-2.9769,-2.8906,-2.8119,0.0,0.0,0.0,0.0,0.0,0.0,0.0,0.0,0.0,0.0,0.0,0.0,0.0,0.0,0.0,0.0,0.0,0.0,0.0,0.0,0.0,0.0,0.0,0.0,0.0,0.0,0.0,0.0,0.0,0.0,0.0,0.0,0.0,0.0,0.0,0.0,0.0,-2.7535,-2.7639,-2.8003,-2.8586,0.0,0.0,0.0,0.0,0.0,0.0,0.0,-2.9142,-2.9955,-2.9808,0.0,0.0,0.0,0.0,0.0,0.0,0.0,0.0,0.0,0.0,0.0,0.0,0.0,0.0,0.0,0.0,0.0,0.0,0.0,0.0,0.0,0.0,0.0,0.0,0.0,-2.4698,-2.4666,-2.4596,0.0,0.0,0.0,0.0,0.0,0.0,0.0,0.0,0.0,0.0,0.0,0.0,0.0,0.0,0.0,0.0,0.0,0.0,0.0,0.0,0.0,0.0,0.0,0.0,-2.8353,-2.8708,-2.9439,-2.9102,-2.9721,-3.1301,-3.0892,-3.0679,-3.0683,-2.9829,-2.8944,-2.8045,-2.7468,0.0,0.0,0.0,0.0,0.0,0.0,0.0,0.0,0.0,0.0,0.0,0.0,0.0,0.0,0.0,0.0,0.0,0.0,0.0,0.0,0.0,0.0,0.0,0.0,0.0,0.0,0.0,0.0,0.0,0.0,0.0,0.0,0.0,0.0,0.0,0.0,-2.7739,-2.8634,-2.8513,-2.8586,-2.9203,0.0,0.0,0.0,0.0,0.0,-2.9162,-2.9474,-2.9617,-2.9213,-2.8254,0.0,0.0,0.0,0.0,0.0,0.0,0.0,0.0,0.0,0.0,0.0,0.0,0.0,0.0,0.0,0.0,0.0,0.0,0.0,0.0,0.0,0.0,0.0,0.0,-2.4714,-2.4682,-2.4645,-2.4666,-2.465,0.0,0.0,0.0,0.0,-2.5167,0.0,0.0,0.0,0.0,0.0,0.0,0.0,0.0,0.0,0.0,0.0,0.0,0.0,0.0,0.0,0.0,0.0,-2.8614,-2.8929,-2.8752,-2.927,-3.0308,-3.1665,-3.1055,-3.091,-3.1292,-3.049,-2.9383,-2.8082,0.0,0.0,0.0,0.0,0.0,0.0,0.0,0.0,0.0,0.0,0.0,0.0,0.0,0.0,0.0,0.0,0.0,0.0,0.0,0.0,0.0,0.0,0.0,0.0,0.0,0.0,0.0,0.0,0.0,0.0,0.0,0.0,0.0,0.0,0.0,0.0,0.0,0.0,-2.881,-2.8856,-2.9088,-2.9968,-2.961,-2.9207,-2.9044,-2.9853,-3.0114,-2.9196,-2.987,-3.0087,-2.8854,0.0,0.0,0.0,0.0,0.0,0.0,0.0,0.0,0.0,0.0,0.0,0.0,0.0,0.0,0.0,0.0,0.0,0.0,0.0,0.0,0.0,0.0,0.0,0.0,0.0,0.0,-2.4698,-2.4692,-2.4698,-2.4698,-2.4692,0.0,0.0,0.0,-2.4972,-2.5454,0.0,0.0,0.0,0.0,0.0,0.0,0.0,0.0,0.0,0.0,0.0,0.0,0.0,0.0,0.0,0.0,-2.8854,-2.9011,-2.8235,-2.9329,-3.0607,-3.1888,-3.1309,-3.1268,-3.1855,-3.1056,-2.98,-2.8124,0.0,0.0,0.0,0.0,0.0,0.0,0.0,0.0,0.0,0.0,0.0,0.0,0.0,0.0,0.0,0.0,0.0,0.0,0.0,0.0,0.0,0.0,0.0,0.0,0.0,0.0,0.0,0.0,0.0,0.0,0.0,0.0,0.0,0.0,0.0,0.0,0.0,0.0,0.0,-2.9001,-2.9547,-3.06,-3.0387,-3.0093,-3.0166,-3.0965,-3.1041,-2.9428,-3.0501,-3.0929,0.0,0.0,0.0,0.0,0.0,0.0,0.0,0.0,0.0,0.0,0.0,0.0,0.0,0.0,0.0,0.0,0.0,0.0,0.0,0.0,0.0,0.0,-2.7229,-2.5544,0.0,0.0,-2.4714,-2.4698,-2.4682,-2.4682,-2.4682,-2.4698,-2.4692,-2.476,0.0,-2.5605,-2.5997,-2.6239,0.0,0.0,0.0,0.0,0.0,0.0,0.0,0.0,0.0,0.0,0.0,0.0,0.0,0.0,0.0,0.0,-2.9061,-2.9928,-2.9352,-3.0342,-3.2767,-3.2221,-3.1887,-3.1981,-3.108,-2.9846,-2.8268,0.0,0.0,0.0,0.0,0.0,0.0,0.0,0.0,0.0,0.0,0.0,0.0,0.0,0.0,0.0,0.0,0.0,0.0,0.0,0.0,0.0,0.0,0.0,0.0,0.0,-2.3825,0.0,0.0,0.0,0.0,0.0,0.0,0.0,0.0,0.0,0.0,0.0,0.0,0.0,0.0,-2.9605,-3.0183,-3.083,-3.1148,-3.0939,-3.1727,-3.2025,-3.0902,-3.1759,-3.1887,0.0,0.0,0.0,0.0,0.0,0.0,0.0,0.0,0.0,0.0,0.0,0.0,0.0,0.0,0.0,0.0,0.0,0.0,0.0,0.0,0.0,0.0,-2.6683,-2.5414,-2.4827,-2.4783,-2.4745,-2.4676,-2.4676,-2.4676,-2.4676,-2.4729,-2.5273,-2.5521,-2.5655,-2.6081,-2.6553,-2.6999,0.0,0.0,0.0,0.0,0.0,0.0,0.0,0.0,0.0,0.0,0.0,0.0,-3.0007,-2.9338,-2.8175,-2.8855,-2.9383,-2.969,-3.0114,-3.1447,-3.3652,-3.3014,-3.259,-3.2589,-3.1748,-3.0296,0.0,0.0,0.0,0.0,0.0,0.0,0.0,0.0,0.0,0.0,0.0,0.0,0.0,0.0,0.0,0.0,0.0,0.0,0.0,0.0,0.0,0.0,0.0,0.0,0.0,-2.4056,-2.4076,-2.441,0.0,0.0,0.0,0.0,0.0,0.0,0.0,0.0,0.0,0.0,0.0,0.0,0.0,-2.9844,-3.0315,-3.1096,-3.1729,-3.1863,-3.2664,-3.2999,-3.2231,-3.3389,-3.3918,0.0,0.0,0.0,0.0,0.0,0.0,0.0,0.0,0.0,0.0,0.0,0.0,0.0,0.0,0.0,0.0,0.0,0.0,-2.7838,-2.7956,-2.7739,-2.7127,-2.6249,-2.5332,-2.4884,-2.4827,-2.4753,-2.4738,-2.4723,-2.4753,-2.4753,-2.4821,-2.5489,-2.5863,-2.5918,-2.6022,-2.6553,-2.7328,-2.6753,0.0,0.0,0.0,0.0,0.0,0.0,0.0,0.0,0.0,0.0,-2.947,-2.9441,-2.8859,-2.7905,-2.9178,-2.9792,-2.9601,-3.1023,-3.2616,-3.4247,-3.3722,-3.34,-3.3288,-3.2772,-3.118,0.0,0.0,0.0,0.0,0.0,0.0,0.0,0.0,0.0,0.0,0.0,0.0,0.0,0.0,0.0,0.0,0.0,0.0,0.0,0.0,0.0,0.0,0.0,-2.5523,-2.4634,-2.4485,-2.4571,-2.4765,-2.5492,0.0,-2.6117,0.0,0.0,0.0,0.0,0.0,0.0,0.0,0.0,0.0,0.0,-3.0335,-3.0843,-3.1766,-3.2536,-3.2837,-3.3456,-3.3817,-3.3634,-3.4708,-3.531,0.0,0.0,0.0,0.0,0.0,0.0,0.0,0.0,0.0,0.0,0.0,0.0,0.0,0.0,0.0,0.0,0.0,0.0,-2.8299,-2.8775,-2.7992,-2.7204,-2.63,-2.5399,-2.4964,-2.4884,-2.4827,-2.4798,-2.4813,-2.487,-2.4898,-2.4888,-2.5082,-2.512,-2.5234,-2.5317,-2.5833,-2.6584,-2.6535,0.0,0.0,0.0,0.0,0.0,0.0,0.0,0.0,0.0,0.0,-2.8049,-2.8044,-2.8027,-2.7942,-2.9456,-3.0376,-3.0642,-3.2039,-3.3328,-3.4341,-3.4293,-3.4225,-3.4197,-3.4218,-3.2654,0.0,0.0,0.0,0.0,0.0,0.0,0.0,0.0,0.0,0.0,0.0,0.0,0.0,0.0,0.0,0.0,0.0,0.0,0.0,0.0,0.0,0.0,0.0,0.0,-2.5427,-2.5448,-2.517,-2.4222,-2.5476,-2.6439,-2.6447,0.0,0.0,0.0,0.0,0.0,0.0,0.0,0.0,0.0,0.0,-3.1109,-3.1981,-3.3049,-3.3723,-3.3652,-3.3902,-3.4377,-3.5143,-3.5479,-3.5198,-3.3736,-3.3246,-3.2739,0.0,0.0,0.0,0.0,0.0,0.0,0.0,0.0,0.0,0.0,0.0,0.0,0.0,0.0,0.0,-2.7381,-2.7575,-2.7229,-2.6544,-2.5653,-2.5294,-2.5044,-2.4953,-2.4915,-2.4915,-2.4929,-2.4994,-2.5019,-2.5082,-2.5662,-2.5926,-2.5975,-2.6072,-2.6583,-2.746,-2.8036,0.0,0.0,0.0,0.0,0.0,0.0,0.0,0.0,0.0,0.0,-2.8684,-2.8686,-2.8482,-2.8171,-3.0051,-3.0964,-3.0721,-3.2654,-3.4138,-3.504,-3.5059,-3.4773,-3.4244,-3.4326,-3.3352,-3.1065,0.0,0.0,0.0,0.0,0.0,0.0,0.0,0.0,0.0,0.0,0.0,0.0,0.0,0.0,0.0,0.0,0.0,0.0,0.0,0.0,0.0,0.0,0.0,0.0,-2.7163,-2.7543,-2.7053,-2.7958,-2.8479,-2.8154,-2.81,0.0,0.0,0.0,0.0,0.0,0.0,0.0,-2.962,0.0,-3.1874,-3.2391,-3.3203,-3.3834,-3.3902,-3.4787,-3.5467,-3.5465,-3.5951,-3.6255,-3.5878,-3.4902,-3.4054,-3.3752,0.0,0.0,0.0,0.0,0.0,0.0,0.0,0.0,0.0,0.0,0.0,0.0,0.0,0.0,-2.6801,-2.6754,-2.6738,-2.6172,-2.536,-2.5293,-2.5324,-2.5449,-2.5214,-2.5394,-2.5817,-2.5395,-2.5321,-2.5629,-2.6034,-2.6188,-2.6226,-2.6605,-2.7373,-2.8481,-2.9609,-3.0141,0.0,0.0,0.0,0.0,0.0,0.0,0.0,0.0,0.0,-2.8194,-2.8675,-2.8519,-2.7896,-3.0372,-3.1495,-3.1092,-3.3671,-3.5281,-3.5888,-3.6133,-3.595,-3.5385,-3.5225,-3.4417,-3.275,0.0,0.0,0.0,0.0,-2.7707,0.0,0.0,0.0,0.0,0.0,0.0,0.0,0.0,0.0,0.0,0.0,0.0,0.0,0.0,0.0,0.0,0.0,0.0,0.0,0.0,-2.9185,-2.8374,-2.9172,-2.9622,-2.9208,-2.892,-2.8802,-2.8984,0.0,0.0,0.0,0.0,0.0,0.0,-3.1968,-3.2863,-3.3029,-3.3729,-3.4308,-3.4501,-3.5266,-3.5847,-3.5962,-3.632,-3.6602,-3.6782,-3.5996,-3.5375,-3.5456,-3.4528,-3.3714,-3.3694,-3.3081,-3.2542,-3.2564,0.0,0.0,0.0,0.0,0.0,0.0,0.0,0.0,-2.6891,-2.6835,-2.6796,-2.6282,-2.5493,-2.5414,-2.5841,-2.6505,-2.5738,-2.6283,-2.7758,-2.6157,-2.5906,-2.6551,-2.5887,-2.5622,-2.5706,-2.6462,-2.7822,-2.9499,-3.1159,-3.1853,-3.1834,-3.1942,-3.1979,-3.1754,-2.9597,-2.8416,-2.8207,-2.7324,-2.6697,-2.6085,-2.739,-2.7853,-2.7183,-3.0388,-3.1989,-3.1928,-3.5093,-3.6789,-3.6805,-3.755,-3.7892,-3.7833,-3.7251,-3.6112,-3.4358,0.0,0.0,0.0,0.0,-2.8003,0.0,0.0,0.0,0.0,0.0,0.0,0.0,0.0,0.0,0.0,0.0,0.0,0.0,0.0,0.0,0.0,0.0,0.0,0.0,0.0,-2.9551,-2.7323,-2.8359,-2.9317,-2.9339,-2.9894,-3.0027,0.0,0.0,0.0,0.0,0.0,-3.0941,-3.2526,-3.3537,-3.4142,-3.408,-3.4872,-3.5492,-3.5491,-3.5071,-3.5243,-3.688,-3.6459,-3.5904,-3.5912,-3.6199,0.0,0.0,0.0,0.0,0.0,0.0,0.0,0.0,0.0,0.0,0.0,0.0,0.0,0.0,0.0,0.0,-2.7068,-2.6132,-2.608,-2.5827,-2.5496,-2.5498,-2.6249,-2.745,-2.7278,-2.7802,-2.8773,-2.7751,-2.7117,-2.6805,-2.6568,-2.644,-2.65,-2.7337,-2.8345,-2.9469,-3.0585,-3.1702,-3.2783,-3.3312,-3.36,-3.3526,-3.2678,-3.1161,-2.9125,-2.8225,-2.7954,-2.8229,-2.8767,-2.8895,-2.8672,-3.1484,-3.2871,-3.2842,-3.5524,-3.7185,-3.7602,-3.7868,-3.7738,-3.7199,-3.7085,-3.6223,-3.4651,-3.4081,0.0,0.0,-3.1031,-3.0559,0.0,0.0,0.0,0.0,0.0,0.0,0.0,0.0,0.0,0.0,0.0,0.0,0.0,0.0,0.0,0.0,0.0,0.0,0.0,0.0,-3.0886,-3.0109,-2.9598,-2.9545,-3.0108,-2.946,-2.9522,-3.0963,-3.107,-3.1036,-3.1149,-3.2205,-3.3175,-3.3804,-3.478,-3.5459,-3.5484,-3.6201,-3.6707,-3.6596,-3.6844,-3.7055,-3.7069,-3.6415,-3.6314,-3.754,-3.7068,-3.7128,-3.8975,-3.9166,-3.9185,-3.9457,-3.9794,-3.9357,-3.7288,-3.6616,-3.6353,-3.6252,-3.654,-3.673,-3.6396,-3.6982,-3.7501,-2.7456,-2.6505,-2.5897,-2.5937,-2.6405,-2.6715,-2.7993,-2.9773,-2.9832,-3.0344,-3.1046,-2.9998,-2.9062,-2.824,-2.7621,-2.7374,-2.7474,-2.8543,-2.9805,-3.1192,-3.2338,-3.3576,-3.4902,-3.5145,-3.5266,-3.5197,-3.4675,-3.3498,-3.1796,-3.0891,-3.0312,-2.9961,-3.0547,-3.0504,-2.9899,-3.2483,-3.3873,-3.4061,-3.6538,-3.8054,-3.8445,-3.8738,-3.8661,-3.8185,-3.8003,-3.7339,-3.6074,-3.627,-3.5577,0.0,-3.2937,0.0,0.0,0.0,0.0,0.0,0.0,0.0,0.0,0.0,0.0,0.0,0.0,0.0,0.0,0.0,0.0,0.0,0.0,0.0,0.0,-3.1427,-3.1455,-3.1861,-3.0213,-2.9184,-2.9746,-2.9456,-2.9832,-3.1409,-3.2425,-3.291,-3.2754,-3.3695,-3.457,-3.498,-3.5883,-3.6442,-3.6198,-3.7108,-3.7768,-3.773,-3.7915,-3.7969,-3.778,-3.7225,-3.736,-3.8854,-3.8664,-3.8935,-4.0786,-4.1875,-4.2371,-4.2206,-4.3286,-4.3345,-4.0652,-3.9915,-3.9823,-4.0032,-4.0189,-4.0262,-4.0215,-4.0622,-4.0977,-2.829,-2.8043,-2.6657,-2.6747,-2.8293,-2.9149,-3.0856,-3.3015,-3.3155,-3.364,-3.4354,-3.2781,-3.1616,-3.0752,-2.9218,-2.8555,-2.8589,-3.0055,-3.207,-3.4435,-3.6036,-3.7288,-3.7945,-3.7321,-3.6948,-3.6791,-3.5377,-3.5078,-3.5753,-3.5125,-3.3441,-3.1054,-3.2517,-3.2494,-3.0895,-3.3388,-3.499,-3.5715,-3.8208,-3.9468,-3.9422,-4.0177,-4.0616,-4.0631,-3.9993,-3.9321,-3.857,-3.7811,-3.6579,-3.4761,-3.3969,0.0,0.0,0.0,0.0,0.0,0.0,0.0,0.0,0.0,0.0,0.0,0.0,0.0,0.0,0.0,0.0,0.0,0.0,0.0,-3.1501,-3.1006,-3.1251,-3.2723,-3.0209,-2.8559,-2.8858,-3.0169,-3.1145,-3.1313,-3.3372,-3.4908,-3.5039,-3.4866,-3.5113,-3.6102,-3.6896,-3.7086,-3.6445,-3.7675,-3.8736,-3.8955,-3.8307,-3.8175,-3.9085,-3.8917,-3.8931,-3.9754,-4.0915,-4.19,-4.2351,-4.3443,-4.4072,-4.3443,-4.5247,-4.6373,-4.4556,-4.3734,-4.3612,-4.4322,-4.3993,-4.3879,-4.4563,-4.4688,-4.5036,-3.0917,-2.9823,-2.9952,-3.0309,-3.08,-3.1669,-3.3161,-3.4942,-3.4994,-3.5546,-3.6259,-3.4642,-3.3466,-3.2569,-3.1514,-3.1358,-3.1987,-3.2947,-3.4085,-3.5378,-3.6377,-3.7269,-3.8046,-3.8421,-3.859,-3.8565,-3.8695,-3.8955,-3.9325,-3.9148,-3.6859,-3.2678,-3.3122,-3.3088,-3.2771,-3.4506,-3.6177,-3.755,-3.949,-4.0738,-4.126,-4.2112,-4.2022,-4.0854,-4.0131,-3.9671,-3.9438,-3.9747,-3.8877,-3.6596,-3.6153,0.0,-3.2693,0.0,0.0,0.0,0.0,-3.0188,-2.9883,-2.9787,0.0,0.0,0.0,-3.1418,0.0,0.0,0.0,0.0,-3.0701,-3.0005,-3.0005,-3.1834,-3.2855,-3.2377,-3.1071,-3.1205,-3.3639,-3.339,-3.3726,-3.5581,-3.6382,-3.7315,-3.8644,-3.7069,-3.6121,-3.6996,-3.8,-3.8601,-3.8421,-4.036,-4.1568,-4.0917,-4.1165,-4.1455,-4.1528,-4.0992,-4.1064,-4.2322,-4.3412,-4.4156,-4.4273,-4.518,-4.5841,-4.563,-4.678,-4.774,-4.7875,-4.7201,-4.6848,-4.7108,-4.7031,-4.7008,-4.7318,-4.7466,-4.7592,-3.421,-3.2947,-3.2126,-3.2183,-3.289,-3.3761,-3.4953,-3.6239,-3.6619,-3.6861,-3.6988,-3.6073,-3.4987,-3.3824,-3.2966,-3.2931,-3.3453,-3.4855,-3.5941,-3.6755,-3.7861,-3.8618,-3.9066,-3.9595,-3.9841,-3.9879,-4.002,-4.0524,-4.1287,-4.0676,-3.9014,-3.644,-3.6066,-3.5917,-3.586,-3.7208,-3.8556,-3.9801,-4.1198,-4.2151,-4.2621,-4.3179,-4.2962,-4.2005,-4.1558,-4.1172,-4.0859,-4.1311,-4.0663,-3.8765,-3.7626,-3.6309,0.0,-3.3169,-3.2353,-3.2474,-3.1429,-3.056,-2.9969,-2.9839,0.0,0.0,-3.1228,-3.1972,-3.0988,0.0,0.0,-3.3522,-3.3141,-3.2739,-3.2799,-3.4091,-3.4883,-3.4695,-3.3202,-3.3249,-3.5963,-3.5529,-3.5722,-3.7632,-3.8147,-3.8923,-4.0331,-3.9045,-3.8257,-3.9065,-3.9729,-4.0197,-4.0277,-4.1822,-4.2787,-4.2266,-4.265,-4.2908,-4.2616,-4.2421,-4.2791,-4.4197,-4.4877,-4.5356,-4.5722,-4.6556,-4.7234,-4.7442,-4.8269,-4.9181,-4.968,-4.9433,-4.9144,-4.9237,-4.8985,-4.8938,-4.9368,-4.9313,-4.923,-3.7462,-3.6624,-3.3572,-3.3189,-3.4681,-3.5534,-3.6348,-3.7133,-3.788,-3.7783,-3.713,-3.7122,-3.6223,-3.4646,-3.3913,-3.3629,-3.3817,-3.6144,-3.7617,-3.8489,-4.0134,-4.0887,-4.0808,-4.0862,-4.0887,-4.0887,-4.0166,-4.063,-4.2086,-4.0752,-4.0412,-4.1179,-4.0446,-3.9961,-3.9789,-4.0563,-4.1383,-4.2102,-4.3023,-4.3522,-4.3624,-4.3624,-4.3633,-4.3719,-4.3719,-4.3303,-4.2528,-4.2471,-4.2033,-4.0986,-3.8739,-3.7401,-3.7114,-3.467,-3.2833,-3.2131,-3.1725,-3.1057,-3.0114,-2.9943,-2.9773,-2.9563,-3.1117,-3.2052,-3.1663,-3.2001,-3.3017,-3.5124,-3.708,-3.8141,-3.7989,-3.7007,-3.6996,-3.8251,-3.6026,-3.5053,-3.6826,-3.7063,-3.745,-3.8348,-3.92,-4.0037,-4.0896,-4.0998,-4.1301,-4.2129,-4.1928,-4.1775,-4.1893,-4.2654,-4.3156,-4.3195,-4.3316,-4.3251,-4.3118,-4.3422,-4.4184,-4.5207,-4.5543,-4.5835,-4.6494,-4.7425,-4.8164,-4.8321,-4.9491,-5.0313,-5.0374,-5.0448,-5.0702,-5.0587,-5.0123,-4.9892,-5.0619,-5.0416,-5.0265,-3.6793,-3.7733,-3.6922,-3.6532,-3.6474,-3.7288,-3.7714,-3.7947,-3.8239,-3.8236,-3.805,-3.7442,-3.6573,-3.5572,-3.5416,-3.5655,-3.6362,-3.7545,-3.8896,-4.0345,-4.1346,-4.2112,-4.2718,-4.2744,-4.2744,-4.2744,-4.255,-4.2726,-4.315,-4.2797,-4.2727,-4.2961,-4.2774,-4.1721,-3.9901,-4.0627,-4.1506,-4.2318,-4.3208,-4.4253,-4.5484,-4.4949,-4.4663,-4.4656,-4.4046,-4.3594,-4.3404,-4.3296,-4.2833,-4.1904,-4.1171,-4.0474,-3.9818,-3.6639,-3.5045,-3.5495,-3.239,-3.0672,-3.099,-3.0449,-2.9876,-2.9414,-3.3231,-3.4568,-3.2231,-3.3789,-3.5371,-3.6691,-3.8863,-3.9233,-3.6977,-3.7566,-3.8382,-3.9054,-3.7896,-3.8273,-4.1326,-4.0565,-4.0397,-4.1931,-4.1699,-4.2226,-4.4298,-4.4508,-4.5021,-4.6299,-4.4338,-4.2755,-4.2826,-4.4624,-4.5453,-4.4504,-4.518,-4.5592,-4.4772,-4.4813,-4.5161,-4.5462,-4.5898,-4.6248,-4.6466,-4.7361,-4.8101,-4.8315,-4.9181,-4.9974,-5.0329,-5.0418,-5.0542,-5.0682,-5.0606,-5.0642,-5.0921,-5.0925,-5.0946,-3.7692,-3.8284,-3.8645,-3.835,-3.7675,-3.8024,-3.7793,-3.7195,-3.7265,-3.7513,-3.787,-3.7825,-3.7487,-3.7097,-3.7448,-3.811,-3.8967,-3.9792,-4.0882,-4.2092,-4.2594,-4.3004,-4.3451,-4.3452,-4.3471,-4.35,-4.3529,-4.3734,-4.4118,-4.4158,-4.4387,-4.4791,-4.4783,-4.3895,-4.2202,-4.2559,-4.3041,-4.3568,-4.4777,-4.6041,-4.7268,-4.6592,-4.5806,-4.5043,-4.4513,-4.3708,-4.2549,-4.2801,-4.2377,-4.1052,-4.0166,-3.9598,-3.9469,-3.6906,-3.5773,-3.6608,-3.4769,-3.3647,-3.37,-3.4241,-3.4162,-3.3128,-3.4797,-3.5625,-3.5145,-3.6302,-3.7371,-3.8023,-4.0329,-4.0921,-3.8936,-3.9961,-4.1001,-4.1594,-4.0913,-4.135,-4.3671,-4.2753,-4.2455,-4.3812,-4.3815,-4.4351,-4.6098,-4.6596,-4.7066,-4.7971,-4.6488,-4.5312,-4.5428,-4.6604,-4.7086,-4.6219,-4.6835,-4.7165,-4.6291,-4.6172,-4.6375,-4.6903,-4.7222,-4.7492,-4.7792,-4.8338,-4.8729,-4.8492,-4.9002,-4.9637,-4.991,-5.0149,-5.0313,-5.0521,-5.0701,-5.0837,-5.0885,-5.1009,-5.1103,-3.886,-3.8461,-3.9329,-3.9277,-3.8665,-3.8471,-3.7583,-3.624,-3.624,-3.6668,-3.7409,-3.8305,-3.8661,-3.8717,-3.9558,-4.0376,-4.1123,-4.1974,-4.2797,-4.3489,-4.3695,-4.3821,-4.3877,-4.3924,-4.3938,-4.3968,-4.3997,-4.4401,-4.5078,-4.5113,-4.5497,-4.6131,-4.6052,-4.564,-4.4876,-4.4855,-4.4961,-4.5035,-4.6459,-4.761,-4.8437,-4.7584,-4.637,-4.4922,-4.4833,-4.3755,-4.1462,-4.205,-4.1714,-4.02,-3.8593,-3.8093,-3.8859,-3.7094,-3.6449,-3.7271,-3.7702,-3.7523,-3.6824,-3.8703,-3.947,-3.8193,-3.6729,-3.6672,-3.8601,-3.9069,-3.9431,-3.972,-4.1745,-4.2848,-4.2401,-4.3105,-4.4008,-4.4796,-4.4316,-4.4234,-4.5052,-4.4467,-4.4284,-4.5079,-4.5634,-4.6283,-4.7224,-4.7871,-4.8279,-4.8509,-4.8432,-4.8279,-4.8355,-4.8317,-4.8202,-4.8163,-4.8087,-4.7775,-4.7524,-4.7359,-4.7604,-4.859,-4.8863,-4.9084,-4.9556,-4.9673,-4.9528,-4.8938,-4.8959,-4.9182,-4.9439,-4.9776,-5.0062,-5.0329,-5.0521,-5.0644,-5.0773,-5.0919,-5.1023,-3.7861,-3.8384,-3.9303,-3.9597,-3.9466,-3.9427,-3.8882,-3.7999,-3.7999,-3.8116,-3.8311,-3.9168,-3.9564,-3.9639,-4.0486,-4.0911,-4.1072,-4.1919,-4.2766,-4.3607,-4.4383,-4.5104,-4.5737,-4.5778,-4.5779,-4.5777,-4.5791,-4.5874,-4.6053,-4.6054,-4.5781,-4.5269,-4.5168,-4.476,-4.4024,-4.4634,-4.5,-4.4997,-4.5311,-4.5894,-4.668,-4.5234,-4.4297,-4.3984,-4.3925,-4.369,-4.315,-4.3161,-4.3337,-4.3518,-4.2507,-4.2611,-4.4025,-4.1207,-3.9922,-4.0537,-3.8969,-3.7824,-3.767,-3.8728,-3.9879,-4.1008,-4.1476,-4.1245,-4.0224,-4.1555,-4.282,-4.3557,-4.4047,-4.4589,-4.5169,-4.5325,-4.5762,-4.6651,-4.6589,-4.6836,-4.765,-4.6939,-4.6742,-4.7594,-4.7171,-4.7339,-4.8711,-4.9103,-4.9394,-5.001,-5.0202,-5.0202,-5.0164,-4.9548,-4.8894,-4.826,-4.8043,-4.7747,-4.7615,-4.8152,-4.858,-4.8969,-4.9787,-5.0368,-5.0472,-5.0071,-4.9671,-4.9528,-4.9085,-4.8853,-4.9182,-4.934,-4.9541,-5.0062,-5.0183,-5.0336,-5.0664,-5.0837,-5.0928,-3.8663,-3.9159,-4.0465,-4.1046,-4.1054,-4.1482,-4.1455,-4.0968,-3.9218,-3.8961,-3.9855,-4.0648,-4.1284,-4.1719,-4.2143,-4.2534,-4.289,-4.3381,-4.4036,-4.4826,-4.5347,-4.5835,-4.625,-4.6289,-4.6289,-4.6289,-4.6315,-4.63,-4.6303,-4.6286,-4.6087,-4.564,-4.559,-4.5338,-4.496,-4.5387,-4.5815,-4.625,-4.6245,-4.6632,-4.7401,-4.6253,-4.5177,-4.4329,-4.4265,-4.3817,-4.2928,-4.3179,-4.3131,-4.2626,-4.2116,-4.2248,-4.3079,-4.1453,-4.1229,-4.2876,-4.2151,-4.1865,-4.2343,-4.315,-4.3995,-4.4897,-4.5423,-4.5156,-4.3863,-4.4718,-4.5648,-4.646,-4.6189,-4.6293,-4.712,-4.7171,-4.7301,-4.7792,-4.7804,-4.797,-4.8319,-4.8058,-4.7913,-4.8284,-4.8298,-4.8596,-4.9367,-4.9835,-5.0164,-5.0625,-5.0702,-5.0702,-5.0664,-5.0317,-4.9836,-4.9335,-4.9022,-4.8783,-4.8768,-4.9175,-4.9775,-5.008,-5.082,-5.132,-5.1389,-5.1059,-5.0585,-4.993,-4.9341,-4.9123,-4.8927,-4.8986,-4.9177,-4.9599,-4.9898,-5.0135,-5.038,-5.0644,-5.0853,-3.9777,-3.9957,-4.1665,-4.2375,-4.2442,-4.3149,-4.34,-4.3032,-4.0348,-4.0018,-4.1367,-4.2179,-4.3032,-4.3815,-4.3969,-4.4399,-4.5024,-4.5116,-4.5468,-4.6093,-4.6144,-4.6189,-4.6211,-4.6249,-4.6287,-4.6287,-4.6287,-4.6286,-4.6279,-4.6287,-4.6257,-4.6298,-4.6241,-4.6183,-4.6212,-4.6201,-4.6553,-4.7215,-4.7111,-4.7427,-4.8204,-4.7306,-4.6114,-4.4723,-4.4604,-4.3862,-4.2405,-4.3079,-4.2924,-4.1658,-4.1523,-4.1632,-4.1886,-4.1723,-4.2629,-4.4778,-4.5589,-4.6319,-4.7086,-4.7894,-4.8394,-4.8586,-4.8638,-4.8385,-4.7714,-4.7507,-4.7792,-4.8684,-4.792,-4.7766,-4.8618,-4.8653,-4.8686,-4.8802,-4.8825,-4.8825,-4.8825,-4.881,-4.8833,-4.8871,-4.9346,-4.9697,-4.9774,-5.0259,-5.0702,-5.0702,-5.0682,-5.0604,-5.0604,-5.0566,-5.0486,-5.0199,-4.991,-4.9922,-5.0005,-5.0241,-5.077,-5.1269,-5.1851,-5.2197,-5.2197,-5.2087,-5.1463,-5.0401,-4.9848,-4.9413,-4.8901,-4.8824,-4.8881,-4.9118,-4.9541,-4.9924,-5.0024,-5.0347,-5.0701,-3.9816,-3.9957,-4.1665,-4.2405,-4.2415,-4.2539,-4.2104,-4.1406,-4.1719,-4.1951,-4.2177,-4.3027,-4.3856,-4.4656,-4.5396,-4.5806,-4.5913,-4.5922,-4.5973,-4.6129,-4.6119,-4.6122,-4.613,-4.6186,-4.6206,-4.6206,-4.6201,-4.621,-4.6218,-4.621,-4.6231,-4.6209,-4.6209,-4.6201,-4.6212,-4.6222,-4.6241,-4.626,-4.5607,-4.5667,-4.6512,-4.497,-4.4043,-4.3811,-4.3704,-4.3492,-4.3239,-4.3968,-4.453,-4.4947,-4.4977,-4.5599,-4.6894,-4.6317,-4.6471,-4.7471,-4.7702,-4.7798,-4.7932,-4.874,-4.9586,-5.0414,-5.0563,-5.0256,-4.9393,-4.8657,-4.8629,-4.9475,-4.8771,-4.8585,-4.9396,-4.9482,-4.9691,-5.0387,-5.0494,-5.0443,-5.0366,-5.0296,-5.0259,-5.0259,-5.0433,-5.0491,-5.0452,-5.0587,-5.0644,-5.0682,-5.0521,-5.0374,-5.0236,-5.0329,-5.0367,-5.0163,-4.9959,-5.0043,-5.0402,-5.0912,-5.1342,-5.1968,-5.2582,-5.2931,-5.2931,-5.2491,-5.194,-5.1646,-5.0508,-4.9703,-4.9412,-4.886,-4.8679,-4.8922,-4.9188,-4.9309,-4.9683,-5.0101,-5.0412,-4.082,-4.1342,-4.2561,-4.3091,-4.3102,-4.3063,-4.2813,-4.2465,-4.2844,-4.3033,-4.3098,-4.3903,-4.4724,-4.5502,-4.5896,-4.6021,-4.6052,-4.6059,-4.6034,-4.6034,-4.6084,-4.613,-4.6118,-4.6162,-4.6216,-4.6216,-4.6216,-4.6216,-4.6216,-4.6216,-4.6216,-4.6216,-4.6177,-4.6104,-4.6085,-4.6085,-4.6085,-4.6035,-4.5716,-4.5716,-4.6085,-4.5308,-4.5113,-4.553,-4.5464,-4.5631,-4.5991,-4.6275,-4.6617,-4.6985,-4.7006,-4.7335,-4.8048,-4.774,-4.7932,-4.874,-4.8817,-4.9009,-4.9471,-4.9856,-5.0317,-5.076,-5.0798,-5.0678,-5.0289,-4.9946,-4.9915,-5.0349,-4.9937,-4.9864,-5.025,-5.0233,-5.037,-5.0756,-5.0758,-5.074,-5.074,-5.0741,-5.0702,-5.0702,-5.0604,-5.0542,-5.0542,-5.0457,-5.039,-5.039,-5.0298,-5.0114,-4.9814,-4.9872,-4.9848,-4.9749,-4.9625,-4.9721,-5.0277,-5.0821,-5.1378,-5.2075,-5.2762,-5.3151,-5.3188,-5.2821,-5.2491,-5.2013,-5.1022,-5.0178,-4.9701,-4.8893,-4.8678,-4.9159,-4.9447,-4.9728,-5.0333,-5.0979,-5.1252,-4.1678,-4.2444,-4.3109,-4.3423,-4.3423,-4.353,-4.3481,-4.3316,-4.3676,-4.386,-4.3976,-4.4549,-4.5279,-4.6017,-4.6017,-4.5997,-4.5997,-4.5997,-4.5997,-4.5997,-4.6074,-4.6085,-4.6085,-4.6124,-4.6162,-4.6162,-4.6162,-4.6162,-4.6162,-4.6162,-4.6162,-4.6162,-4.6085,-4.6035,-4.5997,-4.6191,-4.6268,-4.6318,-4.654,-4.6463,-4.6035,-4.618,-4.6557,-4.714,-4.7273,-4.7626,-4.8163,-4.8317,-4.8394,-4.8394,-4.8586,-4.8702,-4.8702,-4.8702,-4.9009,-4.9586,-4.9702,-4.9971,-5.0625,-5.0702,-5.0702,-5.0702,-5.0644,-5.0624,-5.0624,-5.0682,-5.0773,-5.0825,-5.0735,-5.0738,-5.0738,-5.0721,-5.0702,-5.0702,-5.0702,-5.0721,-5.0702,-5.0702,-5.0682,-5.0624,-5.05,-5.0374,-5.0306,-5.0188,-5.0063,-4.9986,-4.9959,-4.9787,-4.9461,-4.9378,-4.934,-4.9271,-4.9193,-4.9399,-4.9969,-5.0602,-5.1263,-5.2035,-5.272,-5.3115,-5.3188,-5.3188,-5.3004,-5.238,-5.1646,-5.0839,-5.0031,-4.9407,-4.9187,-4.9559,-4.9861,-5.0452,-5.1076,-5.172,-5.217,-4.1651,-4.233,-4.249,-4.248,-4.2558,-4.3248,-4.3122,-4.2646,-4.3976,-4.4676,-4.4704,-4.4792,-4.5258,-4.5929,-4.6007,-4.5997,-4.5997,-4.5997,-4.5997,-4.5997,-4.5997,-4.6035,-4.5997,-4.5997,-4.6035,-4.6035,-4.5997,-4.6035,-4.6035,-4.6035,-4.5997,-4.5997,-4.5997,-4.6035,-4.6113,-4.6773,-4.7162,-4.7212,-4.795,-4.7589,-4.6152,-4.6717,-4.7133,-4.7184,-4.7805,-4.8099,-4.8317,-4.8894,-4.9298,-4.9356,-5.001,-5.0433,-5.0394,-5.0433,-5.0471,-5.0548,-5.0548,-5.0625,-5.0664,-5.0702,-5.0664,-5.0702,-5.0483,-5.0418,-5.0396,-5.0283,-5.0329,-5.0604,-5.0721,-5.0683,-5.0721,-5.0721,-5.0702,-5.0682,-5.0702,-5.0702,-5.0702,-5.0702,-5.0624,-5.0457,-5.0374,-5.0329,-5.0139,-5.0038,-4.9906,-4.9588,-4.9558,-4.9439,-4.9057,-4.8952,-4.8881,-4.8783,-4.8788,-4.9158,-4.9751,-5.0489,-5.1224,-5.1912,-5.2674,-5.3115,-5.3225,-5.3225,-5.3151,-5.2894,-5.2344,-5.1499,-5.0986,-5.0582,-5.0251,-5.0068,-5.0444,-5.0927,-5.1268,-5.1761,-5.2092,-4.1636,-4.2373,-4.2362,-4.2315,-4.2364,-4.2626,-4.285,-4.3083,-4.4248,-4.5064,-4.5491,-4.553,-4.5686,-4.5997,-4.5997,-4.5997,-4.5997,-4.5997,-4.5997,-4.5997,-4.5997,-4.5997,-4.5997,-4.5997,-4.5997,-4.5997,-4.5997,-4.5997,-4.5997,-4.5997,-4.5997,-4.5997,-4.5997,-4.623,-4.6735,-4.7123,-4.7512,-4.8006,-4.8359,-4.8167,-4.7572,-4.7779,-4.8139,-4.8555,-4.8839,-4.9216,-4.9644,-5.001,-5.0164,-5.0164,-5.051,-5.0702,-5.0702,-5.0702,-5.0702,-5.0702,-5.0702,-5.0394,-4.9775,-4.9736,-4.9695,-4.9586,-4.9519,-4.9639,-5.0174,-5.0139,-5.0201,-5.0344,-5.0418,-5.0521,-5.0521,-5.0604,-5.0682,-5.0563,-5.0604,-5.0624,-5.0542,-5.0521,-5.05,-5.0374,-5.0188,-4.9986,-4.9759,-4.9529,-4.9346,-4.9155,-4.9123,-4.9023,-4.8785,-4.8713,-4.8641,-4.8495,-4.8494,-4.8863,-4.9562,-5.037,-5.1103,-5.1908,-5.2674,-5.3188,-5.3225,-5.3225,-5.3225,-5.3225,-5.2601,-5.205,-5.1573,-5.1096,-5.0729,-5.0839,-5.161,-5.2279,-5.2407,-5.2827,-5.3273,-4.1371,-4.2304,-4.2344,-4.2284,-4.2257,-4.2441,-4.3014,-4.3846,-4.4711,-4.542,-4.5936,-4.5964,-4.5964,-4.5975,-4.5997,-4.5997,-4.5997,-4.5997,-4.5997,-4.5997,-4.5997,-4.5997,-4.5997,-4.5997,-4.5997,-4.5997,-4.5997,-4.5997,-4.5997,-4.5997,-4.5997,-4.5997,-4.623,-4.6646,-4.7245,-4.7672,-4.8227,-4.8759,-4.9007,-4.9141,-4.9087,-4.9088,-4.9243,-4.9495,-4.9714,-5.0123,-5.0664,-5.0702,-5.0702,-5.0702,-5.0702,-5.0702,-5.0702,-5.0624,-5.0604,-5.0604,-5.0374,-4.9949,-4.9133,-4.8859,-4.8732,-4.8781,-4.877,-4.9074,-4.9705,-4.9879,-4.9824,-4.9759,-4.9948,-5.01,-5.0221,-5.0374,-5.0374,-5.0197,-5.0291,-5.0313,-5.0135,-5.0174,-5.0125,-5.0076,-4.9787,-4.9566,-4.9346,-4.9127,-4.8925,-4.8855,-4.882,-4.875,-4.8569,-4.8495,-4.8458,-4.8344,-4.8306,-4.8526,-4.9187,-5.0181,-5.0986,-5.1646,-5.2417,-5.3188,-5.3225,-5.3225,-5.3225,-5.3151,-5.2747,-5.2564,-5.2454,-5.194,-5.172,-5.227,-5.2894,-5.3445,-5.345,-5.4055,-5.4423,-4.0825,-4.2208,-4.2286,-4.2296,-4.2183,-4.2997,-4.3775,-4.4459,-4.5349,-4.5815,-4.5866,-4.5854,-4.5854,-4.5917,-4.5964,-4.5997,-4.5997,-4.5997,-4.5997,-4.5997,-4.5997,-4.5997,-4.5997,-4.5997,-4.5997,-4.5997,-4.5997,-4.5997,-4.5997,-4.5997,-4.5997,-4.6035,-4.6773,-4.7233,-4.7559,-4.8813,-4.9615,-4.9627,-5.0231,-5.067,-5.0644,-5.064,-5.0212,-4.9676,-5.022,-5.0645,-5.0702,-5.0702,-5.0702,-5.0702,-5.0682,-5.0702,-5.0702,-5.0521,-5.0435,-5.032,-4.963,-4.9171,-4.8898,-4.8136,-4.7943,-4.858,-4.8477,-4.8796,-4.9445,-4.9415,-4.9225,-4.8993,-4.9214,-4.9424,-4.9749,-4.9819,-4.9792,-4.9627,-4.9561,-4.9627,-4.9561,-4.9589,-4.9483,-4.9333,-4.9277,-4.9188,-4.8959,-4.889,-4.8822,-4.8752,-4.8679,-4.868,-4.8678,-4.8491,-4.8489,-4.8489,-4.8489,-4.8379,-4.8563,-4.9811,-5.0692,-5.1426,-5.2454,-5.3371,-5.3261,-5.3225,-5.3298,-5.3408,-5.3702,-5.3702,-5.3445,-5.3371,-5.3445,-5.3702,-5.3812,-5.4106,-5.4289,-5.4828,-5.5212,-4.0663,-4.2216,-4.2714,-4.2911,-4.2963,-4.3776,-4.4266,-4.4562,-4.5413,-4.5814,-4.5841,-4.5814,-4.5827,-4.5841,-4.5867,-4.5905,-4.5941,-4.5986,-4.5997,-4.5997,-4.5997,-4.5997,-4.5997,-4.5997,-4.5997,-4.5997,-4.5997,-4.5997,-4.5997,-4.5997,-4.6307,-4.6802,-4.7078,-4.774,-4.8761,-4.9378,-4.9868,-5.0356,-5.0703,-5.0812,-5.0721,-5.0741,-5.0567,-5.0297,-5.0529,-5.0702,-5.0702,-5.0702,-5.0702,-5.0702,-5.0593,-5.0505,-5.05,-5.0457,-5.0061,-4.9472,-4.922,-4.8509,-4.7324,-4.6809,-4.6897,-4.7531,-4.7475,-4.7995,-4.8952,-4.9127,-4.8996,-4.8925,-4.8959,-4.9057,-4.9085,-4.9363,-4.9541,-4.9363,-4.9424,-4.9416,-4.9333,-4.9302,-4.9271,-4.9182,-4.8986,-4.8783,-4.875,-4.8605,-4.8716,-4.9157,-4.9229,-4.9412,-4.9814,-4.9884,-4.9771,-4.9884,-4.9884,-4.9884,-4.9921,-5.0288,-5.0986,-5.1867,-5.2821,-5.3995,-5.4399,-5.4509,-5.462,-5.4473,-5.473,-5.4766,-5.4473,-5.4363,-5.4583,-5.473,-5.484,-5.4913,-5.506,-5.5603,-5.5957,-4.1274,-4.2497,-4.3053,-4.3452,-4.3694,-4.4249,-4.4622,-4.4916,-4.5495,-4.5727,-4.5673,-4.5642,-4.5626,-4.561,-4.561,-4.5603,-4.5679,-4.5866,-4.5975,-4.5975,-4.5997,-4.5997,-4.5997,-4.5997,-4.5997,-4.5997,-4.5997,-4.5997,-4.5997,-4.6003,-4.6418,-4.7195,-4.7443,-4.8294,-4.9504,-4.9885,-5.0245,-5.0696,-5.0776,-5.074,-5.0721,-5.0702,-5.0702,-5.0702,-5.0702,-5.0702,-5.0702,-5.0702,-5.0644,-5.0602,-5.0474,-5.0329,-5.0226,-5.0212,-4.9834,-4.9112,-4.8618,-4.7832,-4.6554,-4.6032,-4.6121,-4.684,-4.6993,-4.7644,-4.8807,-4.889,-4.8785,-4.8714,-4.8714,-4.8642,-4.8605,-4.8847,-4.9048,-4.8952,-4.9048,-4.908,-4.8952,-4.8919,-4.8885,-4.885,-4.8677,-4.8532,-4.8532,-4.864,-4.9005,-4.9517,-4.9658,-5.0053,-5.0456,-5.0477,-5.0435,-5.0399,-5.041,-5.0415,-5.0492,-5.079,-5.1568,-5.2412,-5.3592,-5.4766,-5.539,-5.5574,-5.5721,-5.5611,-5.5574,-5.5611,-5.5537,-5.539,-5.5464,-5.5611,-5.5721,-5.5757,-5.6043,-5.6335,-5.666,-4.2524,-4.3272,-4.3349,-4.3834,-4.4392,-4.4508,-4.49,-4.5466,-4.5565,-4.5547,-4.5435,-4.5362,-4.5323,-4.5243,-4.5263,-4.5243,-4.5342,-4.565,-4.5829,-4.5841,-4.5941,-4.5925,-4.5936,-4.5936,-4.5986,-4.5997,-4.5997,-4.5997,-4.5986,-4.6048,-4.6474,-4.7275,-4.8072,-4.8825,-4.9539,-5.031,-5.0699,-5.0702,-5.0721,-5.0683,-5.0702,-5.0702,-5.0702,-5.0702,-5.0702,-5.0682,-5.0682,-5.0664,-5.0604,-5.0435,-5.0378,-5.0214,-4.9862,-4.9814,-4.9683,-4.9144,-4.7947,-4.7156,-4.6873,-4.6098,-4.5978,-4.6738,-4.7318,-4.7856,-4.8492,-4.8642,-4.8532,-4.842,-4.8344,-4.8306,-4.8344,-4.842,-4.8458,-4.8306,-4.8421,-4.8421,-4.8382,-4.8344,-4.8306,-4.8382,-4.8344,-4.8306,-4.8489,-4.8928,-4.9478,-4.9845,-5.0117,-5.038,-5.0635,-5.0496,-4.9928,-4.9928,-5.0407,-5.0802,-5.0976,-5.1213,-5.2145,-5.3146,-5.4399,-5.5537,-5.5831,-5.6051,-5.6308,-5.6308,-5.6565,-5.6602,-5.6235,-5.6124,-5.6161,-5.6308,-5.6455,-5.6565,-5.6846,-5.71,-5.7435,-4.3374,-4.4114,-4.4646,-4.4999,-4.5214,-4.5197,-4.5389,-4.5586,-4.5586,-4.5532,-4.5342,-4.5303,-4.526,-4.5154,-4.5132,-4.5109,-4.5154,-4.5362,-4.5453,-4.5466,-4.55,-4.5542,-4.5578,-4.5698,-4.5866,-4.5986,-4.5997,-4.5975,-4.6046,-4.6485,-4.7231,-4.8019,-4.8771,-4.9572,-5.031,-5.0604,-5.0741,-5.0721,-5.0702,-5.0702,-5.0702,-5.0702,-5.0702,-5.0664,-5.0563,-5.0478,-5.0495,-5.0507,-5.0469,-5.0374,-5.0123,-4.9792,-4.9483,-4.9499,-4.9138,-4.8333,-4.795,-4.7312,-4.6663,-4.6333,-4.6488,-4.7173,-4.7488,-4.7864,-4.8458,-4.8495,-4.8382,-4.8306,-4.8306,-4.8306,-4.8306,-4.8306,-4.8306,-4.8306,-4.8306,-4.8306,-4.8306,-4.8306,-4.8306,-4.8306,-4.8306,-4.8563,-4.8964,-4.9358,-4.9752,-5.0826,-5.1055,-5.1129,-5.1601,-5.142,-5.1509,-5.1369,-5.1463,-5.12,-5.1375,-5.1692,-5.2453,-5.3288,-5.4444,-5.5705,-5.6116,-5.6455,-5.6748,-5.7042,-5.7336,-5.7336,-5.7005,-5.6859,-5.6859,-5.6932,-5.7042,-5.7262,-5.7565,-5.7744,-5.7899,-4.3882,-4.4845,-4.5043,-4.5316,-4.5586,-4.5586,-4.5586,-4.5586,-4.5586,-4.5477,-4.526,-4.5239,-4.5087,-4.4938,-4.4889,-4.4852,-4.4889,-4.491,-4.4943,-4.5055,-4.5227,-4.5302,-4.5307,-4.5449,-4.5641,-4.5803,-4.5809,-4.5991,-4.6371,-4.6862,-4.7664,-4.8701,-4.9251,-4.9872,-5.0681,-5.0702,-5.0702,-5.0702,-5.0642,-5.0604,-5.0624,-5.0542,-5.05,-5.056,-5.039,-5.0312,-5.0278,-5.023,-5.0153,-5.0139,-4.9863,-4.9502,-4.923,-4.9257,-4.8898,-4.8252,-4.7835,-4.7452,-4.6891,-4.6814,-4.6958,-4.7453,-4.7646,-4.7942,-4.8347,-4.8344,-4.8306,-4.8306,-4.8306,-4.8306,-4.8306,-4.8306,-4.8306,-4.8306,-4.8306,-4.8306,-4.8306,-4.8306,-4.8306,-4.8267,-4.819,-4.8553,-4.9058,-4.9471,-4.9807,-5.118,-5.1466,-5.1488,-5.2029,-5.1958,-5.1835,-5.1701,-5.1607,-5.1535,-5.1728,-5.221,-5.281,-5.3479,-5.4292,-5.545,-5.6191,-5.6703,-5.7042,-5.7446,-5.7776,-5.774,-5.7446,-5.7409,-5.7409,-5.7483,-5.7519,-5.7666,-5.7859,-5.7941,-5.8134,-4.4052,-4.5372,-4.4624,-4.4855,-4.5547,-4.5586,-4.5586,-4.5586,-4.5586,-4.5438,-4.517,-4.5125,-4.4914,-4.4578,-4.4551,-4.4551,-4.4496,-4.4551,-4.4578,-4.47,-4.4966,-4.517,-4.5243,-4.5263,-4.5337,-4.551,-4.5519,-4.6048,-4.6877,-4.7118,-4.7874,-4.9273,-4.9527,-4.9856,-5.0529,-5.0664,-5.0624,-5.0584,-5.044,-5.044,-5.0584,-5.0344,-5.0239,-5.0374,-5.0177,-5.0088,-5.0058,-4.9879,-4.9787,-4.975,-4.9582,-4.9364,-4.9164,-4.8996,-4.8783,-4.8458,-4.7831,-4.7608,-4.7462,-4.7425,-4.7462,-4.7609,-4.7978,-4.8306,-4.8306,-4.8306,-4.8306,-4.8306,-4.8306,-4.8306,-4.8306,-4.8306,-4.8306,-4.8306,-4.8306,-4.8306,-4.8306,-4.8306,-4.8267,-4.8229,-4.8032,-4.8156,-4.8986,-4.9406,-4.9991,-5.0843,-5.1334,-5.1422,-5.1479,-5.1485,-5.1088,-5.1141,-5.1315,-5.1331,-5.147,-5.1772,-5.2292,-5.2458,-5.3351,-5.4397,-5.5556,-5.6134,-5.6832,-5.7271,-5.7804,-5.784,-5.7923,-5.7776,-5.774,-5.7776,-5.785,-5.796,-5.8079,-5.8198,-5.8555,-4.3211,-4.4564,-4.4393,-4.4816,-4.5547,-4.5586,-4.5586,-4.5586,-4.5586,-4.5419,-4.517,-4.5103,-4.4889,-4.4524,-4.4496,-4.4496,-4.4496,-4.4496,-4.4496,-4.4496,-4.4621,-4.4825,-4.4988,-4.4986,-4.5125,-4.5323,-4.5456,-4.5959,-4.6814,-4.7472,-4.8375,-4.9393,-5.001,-5.0335,-5.0483,-5.05,-5.0412,-5.0298,-5.0212,-5.0188,-5.0212,-5.0139,-5.0139,-5.0138,-4.9982,-4.9882,-4.983,-4.9558,-4.9352,-4.9364,-4.9295,-4.9094,-4.882,-4.8714,-4.8605,-4.8384,-4.8198,-4.8051,-4.8051,-4.8051,-4.8051,-4.8088,-4.8197,-4.8306,-4.8306,-4.8306,-4.8306,-4.8306,-4.8306,-4.8306,-4.8306,-4.8306,-4.8306,-4.8306,-4.8302,-4.8265,-4.8267,-4.8306,-4.8229,-4.7955,-4.787,-4.8315,-4.91,-4.9435,-4.9901,-5.1119,-5.1422,-5.1347,-5.1244,-5.1244,-5.1105,-5.0927,-5.1034,-5.1034,-5.1105,-5.1383,-5.1521,-5.1438,-5.2029,-5.2882,-5.3917,-5.4701,-5.5559,-5.6321,-5.7047,-5.724,-5.7721,-5.7923,-5.796,-5.7997,-5.7997,-5.7997,-5.8253,-5.8447,-5.8989,-4.2665,-4.3778,-4.3778,-4.4278,-4.5047,-4.5449,-4.5586,-4.5586,-4.5586,-4.5419,-4.517,-4.5103,-4.4889,-4.4524,-4.4496,-4.4496,-4.4496,-4.4496,-4.4496,-4.4496,-4.4496,-4.4595,-4.4712,-4.4729,-4.4839,-4.5071,-4.5163,-4.5931,-4.6985,-4.769,-4.8553,-4.9554,-5.0189,-5.0352,-5.0283,-5.0259,-5.0212,-5.0127,-5.005,-4.9986,-5.0063,-4.9944,-4.9928,-4.9882,-4.973,-4.9527,-4.9412,-4.9168,-4.9064,-4.9101,-4.9064,-4.8925,-4.8678,-4.8569,-4.8532,-4.8306,-4.8306,-4.8306,-4.8306,-4.8306,-4.8306,-4.8306,-4.8306,-4.8306,-4.8306,-4.8306,-4.8306,-4.8306,-4.8306,-4.8306,-4.8267,-4.819,-4.8138,-4.8146,-4.8182,-4.8156,-4.8108,-4.7992,-4.7975,-4.7861,-4.7823,-4.8227,-4.9519,-4.925,-4.9886,-5.089,-5.1105,-5.107,-5.1123,-5.1175,-5.1158,-5.1086,-5.0994,-5.1049,-5.1084,-5.1264,-5.1511,-5.1384,-5.1598,-5.2284,-5.2982,-5.3871,-5.4963,-5.5897,-5.6358,-5.6879,-5.7444,-5.7886,-5.7997,-5.7997,-5.7997,-5.8217,-5.851,-5.9024,-5.9532,-4.2239,-4.3085,-4.3085,-4.3624,-4.4547,-4.5278,-4.5586,-4.5568,-4.555,-4.538,-4.5125,-4.508,-4.484,-4.4496,-4.4496,-4.4496,-4.4496,-4.4496,-4.4496,-4.4496,-4.4496,-4.4524,-4.4524,-4.4561,-4.4643,-4.4789,-4.4794,-4.5899,-4.7048,-4.7568,-4.8542,-4.9657,-5.0139,-5.0089,-5.0063,-5.0101,-5.0038,-4.9997,-4.9835,-4.9835,-4.989,-4.9692,-4.9574,-4.9634,-4.939,-4.9131,-4.8962,-4.8855,-4.8855,-4.882,-4.8892,-4.875,-4.8569,-4.8532,-4.8495,-4.8344,-4.8306,-4.8306,-4.8306,-4.8306,-4.8306,-4.8306,-4.8306,-4.8306,-4.8306,-4.8306,-4.8267,-4.819,-4.8267,-4.819,-4.8108,-4.7947,-4.7933,-4.8048,-4.8032,-4.8002,-4.7847,-4.771,-4.7734,-4.7939,-4.7745,-4.8322,-4.8978,-4.9338,-4.9305,-5.0449,-5.0585,-5.0675,-5.0834,-5.0974,-5.1099,-5.1134,-5.1094,-5.1129,-5.1129,-5.122,-5.1437,-5.1603,-5.1765,-5.2283,-5.2839,-5.3742,-5.4907,-5.5685,-5.5887,-5.6527,-5.7381,-5.7657,-5.7877,-5.8033,-5.8107,-5.851,-5.9024,-5.9685,-6.0257,-4.1724,-4.3085,-4.3085,-4.3932,-4.524,-4.5509,-4.5532,-4.5381,-4.5381,-4.5197,-4.49,-4.4889,-4.4738,-4.4496,-4.4496,-4.4496,-4.4496,-4.4496,-4.4496,-4.4496,-4.4496,-4.4496,-4.4496,-4.4496,-4.4524,-4.4578,-4.4749,-4.5734,-4.7011,-4.7656,-4.8441,-4.9873,-5.005,-4.9986,-4.989,-4.9862,-4.9778,-4.9634,-4.9582,-4.9612,-4.9574,-4.9421,-4.9295,-4.9289,-4.9131,-4.889,-4.8714,-4.8678,-4.8605,-4.8532,-4.8569,-4.8605,-4.842,-4.8382,-4.8344,-4.8306,-4.8306,-4.8306,-4.8306,-4.8306,-4.8306,-4.8306,-4.8306,-4.8306,-4.8306,-4.8267,-4.819,-4.7995,-4.7915,-4.7793,-4.7687,-4.7815,-4.7972,-4.8009,-4.8105,-4.8201,-4.8126,-4.8254,-4.824,-4.8115,-4.805,-4.8242,-4.8945,-4.8985,-4.9217,-4.9941,-5.0171,-5.0171,-5.0471,-5.0806,-5.1128,-5.129,-5.1511,-5.1593,-5.1628,-5.1662,-5.1789,-5.1914,-5.2077,-5.2334,-5.2944,-5.3297,-5.4296,-5.4884,-5.5205,-5.6067,-5.7097,-5.746,-5.7631,-5.792,-5.828,-5.8951,-5.9575,-6.0272,-6.097,-4.1093,-4.1848,-4.2761,-4.3517,-4.4231,-4.5074,-4.5361,-4.5239,-4.5197,-4.5065,-4.4827,-4.4815,-4.4685,-4.4496,-4.4496,-4.4496,-4.4496,-4.4496,-4.4496,-4.4496,-4.4496,-4.4496,-4.4496,-4.4496,-4.4496,-4.4571,-4.5057,-4.5978,-4.6938,-4.7737,-4.8559,-4.9721,-4.9835,-4.975,-4.9663,-4.9671,-4.9612,-4.9521,-4.9433,-4.9332,-4.9295,-4.9164,-4.8993,-4.8925,-4.882,-4.8678,-4.8458,-4.8458,-4.842,-4.8344,-4.842,-4.842,-4.8344,-4.8306,-4.8306,-4.8306,-4.8306,-4.8306,-4.8306,-4.8306,-4.8306,-4.8306,-4.8306,-4.8306,-4.8229,-4.8153,-4.7995,-4.7793,-4.7663,-4.7479,-4.7461,-4.7807,-4.802,-4.8173,-4.8255,-4.8363,-4.8459,-4.8429,-4.8277,-4.8196,-4.8204,-4.8506,-4.8839,-4.8895,-4.9182,-4.9849,-4.9835,-4.9928,-5.0679,-5.0956,-5.1336,-5.1637,-5.1958,-5.214,-5.2149,-5.2218,-5.2261,-5.2303,-5.2398,-5.2693,-5.3098,-5.3288,-5.3563,-5.4282,-5.5182,-5.5848,-5.6747,-5.7029,-5.7533,-5.8117,-5.8663,-5.9417,-6.0162,-6.0896,-6.1557,-4.0515,-4.0595,-4.2176,-4.2757,-4.2959,-4.4399,-4.5044,-4.508,-4.5033,-4.4852,-4.4738,-4.4674,-4.4486,-4.444,-4.444,-4.4468,-4.4496,-4.4496,-4.4496,-4.4496,-4.4496,-4.4496,-4.4496,-4.4496,-4.4646,-4.4759,-4.5313,-4.6177,-4.7003,-4.78,-4.8604,-4.937,-4.9521,-4.9551,-4.9521,-4.949,-4.949,-4.9427,-4.9295,-4.9197,-4.9094,-4.8959,-4.8785,-4.8605,-4.8569,-4.8495,-4.8382,-4.8344,-4.8306,-4.8306,-4.8306,-4.8306,-4.8306,-4.8306,-4.8306,-4.8306,-4.8306,-4.8306,-4.8306,-4.8306,-4.8306,-4.8306,-4.8306,-4.8267,-4.8153,-4.8061,-4.7814,-4.7486,-4.7295,-4.7264,-4.7533,-4.791,-4.8142,-4.8243,-4.8377,-4.8583,-4.8761,-4.8391,-4.8277,-4.8401,-4.8514,-4.8787,-4.8976,-4.912,-4.9402,-4.9624,-4.9573,-4.9846,-5.0601,-5.1305,-5.1691,-5.2111,-5.2461,-5.274,-5.278,-5.2711,-5.275,-5.278,-5.2746,-5.3038,-5.3397,-5.3792,-5.4174,-5.4662,-5.5426,-5.5971,-5.6331,-5.6599,-5.7253,-5.8141,-5.9006,-5.9627,-6.0494,-6.1435,-6.2071,-4.0653,-4.1147,-4.1454,-4.2349,-4.3526,-4.3928,-4.4372,-4.4789,-4.4662,-4.4541,-4.4383,-4.4199,-4.414,-4.4184,-4.4304,-4.442,-4.4627,-4.474,-4.4627,-4.4618,-4.458,-4.458,-4.4496,-4.4646,-4.4909,-4.5397,-4.581,-4.6373,-4.7087,-4.7838,-4.8739,-4.934,-4.949,-4.949,-4.949,-4.949,-4.9396,-4.9262,-4.9193,-4.9057,-4.8959,-4.8785,-4.8569,-4.842,-4.8382,-4.8344,-4.8306,-4.8306,-4.8306,-4.8306,-4.8306,-4.8306,-4.8267,-4.8267,-4.8267,-4.8306,-4.8306,-4.8306,-4.8306,-4.8306,-4.8306,-4.8306,-4.8302,-4.8148,-4.8057,-4.8127,-4.7797,-4.711,-4.6856,-4.6986,-4.7553,-4.8058,-4.8277,-4.8362,-4.8651,-4.8843,-4.8944,-4.8836,-4.8745,-4.8795,-4.887,-4.8904,-4.904,-4.9175,-4.9365,-4.9596,-4.9773,-5.0175,-5.094,-5.1595,-5.2183,-5.266,-5.3037,-5.3243,-5.3381,-5.3313,-5.3279,-5.3275,-5.3307,-5.3437,-5.3896,-5.4441,-5.4939,-5.4979,-5.5215,-5.5623,-5.5922,-5.6201,-5.6671,-5.7345,-5.8471,-5.9743,-6.0587,-6.1469,-6.2328,-4.0406,-4.0583,-4.1085,-4.1873,-4.2858,-4.3459,-4.3983,-4.4476,-4.443,-4.4288,-4.414,-4.4055,-4.4246,-4.4538,-4.4681,-4.4997,-4.5357,-4.5469,-4.5312,-4.511,-4.499,-4.4786,-4.4693,-4.4881,-4.5284,-4.5885,-4.6486,-4.7087,-4.765,-4.8476,-4.9039,-4.9377,-4.949,-4.9459,-4.9358,-4.9315,-4.9257,-4.9094,-4.8962,-4.8855,-4.875,-4.8532,-4.8383,-4.8344,-4.8306,-4.8306,-4.8306,-4.8306,-4.8306,-4.8306,-4.8306,-4.8306,-4.8229,-4.8151,-4.8114,-4.8229,-4.8267,-4.8306,-4.8306,-4.8306,-4.8267,-4.8187,-4.8283,-4.8291,-4.8127,-4.8068,-4.7823,-4.7387,-4.7291,-4.7557,-4.7969,-4.8362,-4.8617,-4.8693,-4.8843,-4.8951,-4.9018,-4.9018,-4.9018,-4.9018,-4.9012,-4.8978,-4.8951,-4.9086,-4.9221,-4.9492,-4.9864,-5.0566,-5.1269,-5.1919,-5.2603,-5.2941,-5.3347,-5.3382,-5.3518,-5.3518,-5.3518,-5.3585,-5.3618,-5.3751,-5.3983,-5.4372,-5.4592,-5.4676,-5.4957,-5.5574,-5.5519,-5.5794,-5.6182,-5.6742,-5.8339,-5.9756,-6.0617,-6.1427,-6.2237,-4.0062,-3.9815,-4.0615,-4.135,-4.2018,-4.2787,-4.3574,-4.4154,-4.4244,-4.4116,-4.3992,-4.3929,-4.4304,-4.4967,-4.537,-4.5774,-4.6405,-4.6331,-4.6057,-4.578,-4.5662,-4.535,-4.5252,-4.549,-4.6052,-4.6548,-4.7252,-4.8145,-4.8251,-4.8964,-4.9384,-4.9427,-4.9427,-4.9364,-4.916,-4.9118,-4.8986,-4.8892,-4.8716,-4.8567,-4.8494,-4.8382,-4.8306,-4.8306,-4.8306,-4.8306,-4.8306,-4.819,-4.819,-4.819,-4.819,-4.8114,-4.8072,-4.7915,-4.7915,-4.8035,-4.8151,-4.819,-4.8151,-4.8229,-4.8145,-4.8115,-4.8294,-4.8308,-4.8164,-4.7994,-4.785,-4.7911,-4.7957,-4.826,-4.8405,-4.8734,-4.8944,-4.8951,-4.8951,-4.9018,-4.9018,-4.9018,-4.9018,-4.9018,-4.9018,-4.9018,-4.9052,-4.9424,-4.9627,-5.0067,-5.0439,-5.115,-5.1854,-5.2332,-5.2875,-5.3213,-5.345,-5.345,-5.3518,-5.3518,-5.3518,-5.3518,-5.3518,-5.3618,-5.3787,-5.4054,-5.435,-5.4716,-5.5507,-5.5959,-5.5704,-5.5566,-5.6036,-5.6914,-5.8537,-5.9475,-5.9872,-6.0919,-6.1967,-3.9777,-3.9626,-3.9763,-4.0565,-4.1744,-4.2006,-4.2818,-4.3943,-4.3897,-4.3869,-4.3837,-4.3704,-4.4042,-4.4923,-4.5838,-4.6234,-4.6413,-4.6557,-4.652,-4.6327,-4.629,-4.6211,-4.6169,-4.6439,-4.6919,-4.7367,-4.7847,-4.8016,-4.8384,-4.909,-4.9358,-4.93,-4.923,-4.9164,-4.8959,-4.8919,-4.8855,-4.8679,-4.8567,-4.8528,-4.8381,-4.8306,-4.8306,-4.8306,-4.8306,-4.8304,-4.8226,-4.8032,-4.7915,-4.7834,-4.7834,-4.771,-4.75,-4.7669,-4.7585,-4.7585,-4.7627,-4.7793,-4.7705,-4.7752,-4.7959,-4.7967,-4.8171,-4.8187,-4.8137,-4.7934,-4.7957,-4.8768,-4.8402,-4.8301,-4.8768,-4.8978,-4.9018,-4.9018,-4.9018,-4.9018,-4.9018,-4.9018,-4.9018,-4.912,-4.9154,-4.912,-4.912,-4.9627,-5.0067,-5.0541,-5.1082,-5.1758,-5.2367,-5.2841,-5.3112,-5.3382,-5.3518,-5.3518,-5.3518,-5.3518,-5.3518,-5.3518,-5.3653,-5.3687,-5.3924,-5.4296,-5.4669,-5.5142,-5.5881,-5.6229,-5.5977,-5.5959,-5.6187,-5.6921,-5.8131,-5.8543,-5.8695,-6.0003,-6.164,-3.965,-3.9577,-3.9502,-4.0323,-4.1726,-4.1716,-4.2537,-4.3675,-4.3837,-4.3738,-4.3634,-4.3566,-4.4158,-4.5405,-4.6764,-4.7427,-4.7499,-4.7462,-4.7239,-4.7013,-4.6937,-4.6786,-4.6739,-4.7363,-4.81,-4.7951,-4.8584,-4.8915,-4.894,-4.8866,-4.9098,-4.9064,-4.8993,-4.8925,-4.875,-4.8746,-4.8604,-4.8458,-4.8418,-4.8379,-4.8343,-4.8306,-4.8306,-4.8306,-4.8306,-4.8224,-4.8016,-4.7907,-4.7669,-4.7585,-4.75,-4.7371,-4.7151,-4.7151,-4.7017,-4.6578,-4.6763,-4.6981,-4.7115,-4.716,-4.74,-4.7629,-4.7864,-4.8084,-4.8358,-4.8387,-4.832,-4.8883,-4.8714,-4.8748,-4.8917,-4.8984,-4.9018,-4.9018,-4.9018,-4.9018,-4.9018,-4.9018,-4.9052,-4.9187,-4.9357,-4.9526,-4.9661,-5.0033,-5.0676,-5.1352,-5.1758,-5.2266,-5.2807,-5.3213,-5.3382,-5.345,-5.3518,-5.3518,-5.3518,-5.3518,-5.3551,-5.3653,-5.4126,-5.4194,-5.4363,-5.4669,-5.5144,-5.562,-5.6269,-5.6363,-5.6217,-5.6293,-5.6586,-5.7057,-5.759,-5.8016,-5.8536,-5.9537,-6.0938,-3.9527,-3.9476,-3.9324,-4.0215,-4.1622,-4.1542,-4.2347,-4.3664,-4.3738,-4.3634,-4.3642,-4.3938,-4.4856,-4.603,-4.7388,-4.8161,-4.8233,-4.8306,-4.8051,-4.7721,-4.7573,-4.7351,-4.7457,-4.8194,-4.8449,-4.793,-4.8857,-4.9117,-4.8895,-4.8785,-4.8785,-4.882,-4.882,-4.8714,-4.8569,-4.8495,-4.8421,-4.8344,-4.8306,-4.8343,-4.8306,-4.8306,-4.8306,-4.8306,-4.8265,-4.8178,-4.7861,-4.7644,-4.75,-4.7071,-4.7017,-4.6845,-4.6554,-4.6472,-4.6363,-4.5985,-4.5985,-4.6084,-4.635,-4.6588,-4.6815,-4.723,-4.7796,-4.8415,-4.8821,-4.9018,-4.9018,-4.8984,-4.8984,-4.8951,-4.9018,-4.9018,-4.9018,-4.9018,-4.9018,-4.9018,-4.9018,-4.8923,-4.9159,-4.956,-4.9864,-5.0338,-5.0507,-5.0676,-5.1217,-5.2063,-5.2536,-5.2841,-5.3145,-5.3484,-5.3518,-5.3518,-5.3518,-5.3518,-5.3518,-5.3518,-5.3551,-5.3822,-5.4329,-5.4735,-5.4938,-5.5378,-5.5922,-5.6399,-5.6738,-5.6915,-5.6986,-5.702,-5.6952,-5.7187,-5.7455,-5.7998,-5.8671,-5.9517,-6.0238,-3.9245,-3.9147,-3.9245,-4.0105,-4.136,-4.1329,-4.2157,-4.3529,-4.3532,-4.3532,-4.3681,-4.4892,-4.5516,-4.625,-4.7352,-4.8233,-4.8306,-4.8306,-4.8233,-4.8234,-4.8196,-4.8088,-4.8163,-4.8384,-4.8642,-4.8494,-4.8975,-4.8938,-4.8569,-4.842,-4.8495,-4.8605,-4.8605,-4.8495,-4.842,-4.8345,-4.8383,-4.8306,-4.8306,-4.8306,-4.8306,-4.8267,-4.8267,-4.8267,-4.8265,-4.8141,-4.7767,-4.7427,-4.7017,-4.6424,-4.6376,-4.6182,-4.587,-4.5885,-4.5819,-4.5459,-4.5302,-4.5354,-4.5476,-4.6169,-4.7021,-4.7575,-4.8046,-4.8523,-4.8748,-4.8917,-4.8984,-4.8984,-4.9018,-4.9018,-4.9018,-4.9018,-4.9018,-4.8956,-4.8889,-4.8664,-4.8664,-4.8639,-4.8971,-4.9767,-5.024,-5.052,-5.129,-5.1493,-5.1761,-5.2538,-5.2909,-5.3213,-5.3281,-5.3518,-5.3518,-5.3518,-5.3518,-5.3518,-5.3518,-5.3551,-5.3653,-5.4093,-5.4634,-5.5141,-5.5581,-5.6089,-5.6769,-5.6972,-5.7243,-5.7552,-5.7722,-5.7525,-5.7326,-5.7158,-5.7398,-5.7947,-5.8289,-5.8903,-5.9539,-3.912,-3.9016,-3.9555,-4.0348,-4.1298,-4.124,-4.2059,-4.3314,-4.3497,-4.3497,-4.3571,-4.4672,-4.5443,-4.6104,-4.6948,-4.7865,-4.8269,-4.8306,-4.8231,-4.8306,-4.8306,-4.8306,-4.8454,-4.8638,-4.8972,-4.8604,-4.8788,-4.871,-4.8151,-4.8072,-4.7875,-4.7955,-4.8192,-4.8192,-4.8151,-4.8151,-4.8267,-4.8306,-4.8306,-4.8306,-4.8267,-4.8075,-4.7992,-4.8024,-4.7747,-4.7383,-4.6956,-4.6755,-4.6315,-4.5935,-4.5819,-4.5511,-4.5283,-4.5459,-4.5354,-4.5049,-4.494,-4.494,-4.481,-4.5412,-4.5768,-4.6442,-4.714,-4.7868,-4.8342,-4.8376,-4.8646,-4.8815,-4.9018,-4.9018,-4.9018,-4.9018,-4.9018,-4.8923,-4.8697,-4.8371,-4.8182,-4.8155,-4.8553,-4.912,-4.9825,-5.0392,-5.1329,-5.2303,-5.2606,-5.3045,-5.3281,-5.3518,-5.3518,-5.3518,-5.3518,-5.3518,-5.3518,-5.3518,-5.3518,-5.3653,-5.3822,-5.4397,-5.5006,-5.5649,-5.6258,-5.6968,-5.7476,-5.7611,-5.7577,-5.7751,-5.7853,-5.7848,-5.7789,-5.7525,-5.7593,-5.7899,-5.8144,-5.8355,-5.9011,-3.9098,-3.9275,-3.9822,-4.056,-4.1235,-4.1401,-4.2249,-4.3314,-4.3497,-4.3497,-4.3571,-4.4342,-4.4894,-4.5517,-4.6248,-4.672,-4.7046,-4.7117,-4.7229,-4.7192,-4.7117,-4.7302,-4.7633,-4.7965,-4.8075,-4.8038,-4.8517,-4.847,-4.7705,-4.7669,-4.7457,-4.7457,-4.7669,-4.7752,-4.7752,-4.787,-4.8038,-4.8009,-4.7999,-4.7995,-4.7915,-4.7793,-4.7657,-4.7644,-4.7356,-4.6966,-4.6534,-4.6295,-4.592,-4.5511,-4.5283,-4.5123,-4.5015,-4.4961,-4.494,-4.4831,-4.4754,-4.4776,-4.4699,-4.4891,-4.5263,-4.6235,-4.6887,-4.7496,-4.7767,-4.8071,-4.868,-4.8917,-4.9018,-4.9018,-4.8984,-4.9018,-4.8798,-4.8639,-4.8111,-4.7721,-4.7535,-4.7505,-4.7902,-4.8431,-4.9224,-5.008,-5.1118,-5.2129,-5.2876,-5.3146,-5.3315,-5.3518,-5.3518,-5.3518,-5.3518,-5.3518,-5.3518,-5.3518,-5.3518,-5.3856,-5.4262,-5.5006,-5.5649,-5.6325,-5.7002,-5.7611,-5.7881,-5.778,-5.778,-5.7848,-5.7881,-5.7881,-5.7881,-5.7887,-5.7954,-5.792,-5.8065,-5.8317,-5.8737,-3.9282,-3.9858,-4.005,-4.0535,-4.1291,-4.1956,-4.2727,-4.3424,-4.3497,-4.3463,-4.3538,-4.4234,-4.4455,-4.4562,-4.5251,-4.5573,-4.5594,-4.5477,-4.5477,-4.559,-4.5739,-4.5364,-4.5807,-4.6436,-4.7171,-4.6633,-4.7337,-4.7808,-4.732,-4.732,-4.7143,-4.6962,-4.7143,-4.7327,-4.732,-4.732,-4.7331,-4.7335,-4.7434,-4.7414,-4.7383,-4.7303,-4.7178,-4.7079,-4.686,-4.6456,-4.6114,-4.5908,-4.5511,-4.5123,-4.5049,-4.4886,-4.472,-4.4665,-4.4665,-4.4609,-4.4609,-4.4609,-4.4587,-4.5263,-4.5805,-4.6244,-4.6684,-4.7394,-4.7902,-4.8376,-4.8815,-4.8951,-4.9018,-4.8984,-4.8984,-4.8923,-4.8639,-4.7922,-4.7298,-4.691,-4.6684,-4.655,-4.6908,-4.7697,-4.8813,-4.9829,-5.0763,-5.1777,-5.2702,-5.3247,-5.3416,-5.3518,-5.3518,-5.3518,-5.3518,-5.3518,-5.3518,-5.3721,-5.3822,-5.4228,-5.4769,-5.5513,-5.619,-5.6765,-5.7273,-5.7712,-5.7881,-5.7881,-5.7881,-5.7881,-5.7881,-5.7881,-5.7881,-5.7881,-5.7881,-5.7954,-5.8027,-5.8243,-5.8667,-3.9228,-3.9937,-4.0515,-4.1181,-4.1882,-4.2176,-4.2763,-4.3424,-4.3497,-4.3395,-4.325,-4.3505,-4.3795,-4.4002,-4.4137,-4.4529,-4.4844,-4.5029,-4.5029,-4.4916,-4.4839,-4.5425,-4.5714,-4.5966,-4.6477,-4.6859,-4.7342,-4.7284,-4.6962,-4.6962,-4.6731,-4.6578,-4.659,-4.687,-4.7187,-4.7312,-4.7284,-4.7277,-4.7176,-4.7013,-4.6963,-4.661,-4.6376,-4.6385,-4.6119,-4.5838,-4.5561,-4.5389,-4.5123,-4.4831,-4.4776,-4.4665,-4.4643,-4.4553,-4.4553,-4.4553,-4.4553,-4.4553,-4.4756,-4.5196,-4.5466,-4.5771,-4.6244,-4.6955,-4.7158,-4.7868,-4.8409,-4.8883,-4.8923,-4.863,-4.8006,-4.8283,-4.7928,-4.6517,-4.5864,-4.5636,-4.5433,-4.5383,-4.5629,-4.684,-4.7949,-4.9628,-5.0896,-5.152,-5.235,-5.3041,-5.328,-5.3416,-5.3518,-5.3518,-5.3518,-5.3518,-5.3585,-5.3856,-5.416,-5.4735,-5.5344,-5.6089,-5.6562,-5.6968,-5.7442,-5.7814,-5.7881,-5.7881,-5.7881,-5.7881,-5.7881,-5.7881,-5.7881,-5.7881,-5.7881,-5.7881,-5.7954,-5.8171,-5.8597,-3.935,-4.0341,-4.0891,-4.1669,-4.2479,-4.2656,-4.2988,-4.3286,-4.3214,-4.3065,-4.2904,-4.2876,-4.2904,-4.3059,-4.312,-4.3095,-4.3622,-4.3579,-4.3665,-4.3736,-4.3985,-4.4235,-4.4741,-4.5666,-4.5971,-4.6624,-4.6945,-4.6962,-4.659,-4.659,-4.6447,-4.6253,-4.6105,-4.6328,-4.666,-4.6788,-4.6802,-4.6671,-4.6517,-4.64,-4.6239,-4.5996,-4.5734,-4.5666,-4.5459,-4.5211,-4.5015,-4.4886,-4.4776,-4.4609,-4.4553,-4.4553,-4.4553,-4.4553,-4.4553,-4.4553,-4.4553,-4.4553,-4.4722,-4.5263,-4.5466,-4.5297,-4.5872,-4.6616,-4.7225,-4.8037,-4.8511,-4.8821,-4.8827,-4.8274,-4.7658,-4.793,-4.7045,-4.5669,-4.5275,-4.5137,-4.4861,-4.4833,-4.5144,-4.6247,-4.754,-4.9254,-5.0853,-5.1426,-5.2059,-5.259,-5.3179,-5.328,-5.345,-5.3518,-5.3687,-5.3822,-5.3991,-5.4363,-5.4837,-5.5412,-5.6021,-5.6697,-5.7036,-5.7306,-5.7509,-5.7881,-5.7881,-5.7881,-5.7881,-5.7881,-5.7881,-5.7881,-5.7881,-5.7881,-5.7881,-5.7881,-5.7881,-5.8171,-5.8526,-3.968,-4.1001,-4.1148,-4.186,-4.2923,-4.3177,-4.3178,-4.2955,-4.2688,-4.2562,-4.2578,-4.2521,-4.2282,-4.1788,-4.1701,-4.1585,-4.1406,-4.1313,-4.1487,-4.1754,-4.2485,-4.2847,-4.3663,-4.4739,-4.5399,-4.5705,-4.6023,-4.6411,-4.6154,-4.6119,-4.6119,-4.6055,-4.5854,-4.5935,-4.6049,-4.6098,-4.6133,-4.6049,-4.5905,-4.5754,-4.5603,-4.5417,-4.5371,-4.523,-4.5103,-4.4995,-4.4886,-4.4776,-4.4665,-4.4553,-4.4553,-4.4553,-4.4553,-4.4553,-4.4553,-4.4553,-4.4553,-4.4553,-4.4722,-4.5331,-4.5805,-4.5906,-4.7056,-4.7699,-4.8003,-4.8342,-4.8619,-4.8529,-4.8308,-4.7988,-4.7666,-4.7111,-4.6483,-4.5824,-4.5295,-4.4984,-4.4706,-4.478,-4.5128,-4.6022,-4.7193,-4.8732,-5.0413,-5.1252,-5.1623,-5.2131,-5.259,-5.2731,-5.297,-5.3754,-5.3923,-5.4363,-5.46,-5.5006,-5.5513,-5.6055,-5.6528,-5.7103,-5.7442,-5.7712,-5.7848,-5.7881,-5.7881,-5.7881,-5.7881,-5.7881,-5.7881,-5.7881,-5.7881,-5.7881,-5.7881,-5.7881,-5.7881,-5.8099,-5.8419,-4.0194,-4.1148,-4.1735,-4.2372,-4.2922,-4.2652,-4.2566,-4.2633,-4.2445,-4.2192,-4.1955,-4.1771,-4.149,-4.1117,-4.1152,-4.1012,-4.0965,-4.0918,-4.1,-4.1276,-4.1864,-4.2575,-4.3415,-4.43,-4.4948,-4.5451,-4.5765,-4.5835,-4.5699,-4.5664,-4.5631,-4.5598,-4.5598,-4.5528,-4.5528,-4.5615,-4.5509,-4.549,-4.5356,-4.526,-4.5103,-4.4967,-4.492,-4.4831,-4.4831,-4.4776,-4.472,-4.4665,-4.4553,-4.4553,-4.4553,-4.4553,-4.4553,-4.4553,-4.4553,-4.4553,-4.4553,-4.4587,-4.479,-4.5771,-4.6413,-4.6591,-4.774,-4.8105,-4.8308,-4.8416,-4.8596,-4.8048,-4.7694,-4.7307,-4.6651,-4.6023,-4.5395,-4.4737,-4.4596,-4.4967,-4.4685,-4.4741,-4.5151,-4.6055,-4.7296,-4.8504,-5.0109,-5.0723,-5.1102,-5.1623,-5.1987,-5.2164,-5.2445,-5.3205,-5.4089,-5.4494,-5.4968,-5.5269,-5.6018,-5.663,-5.707,-5.7476,-5.7746,-5.7881,-5.7881,-5.7881,-5.7881,-5.7881,-5.7881,-5.7881,-5.7881,-5.7881,-5.7881,-5.7881,-5.7881,-5.7881,-5.7954,-5.8099,-5.8277,-3.9929,-4.0409,-4.1606,-4.2268,-4.2386,-4.1874,-4.1728,-4.1929,-4.1831,-4.163,-4.136,-4.1233,-4.1024,-4.0776,-4.0728,-4.068,-4.0583,-4.0534,-4.072,-4.1449,-4.1896,-4.2837,-4.3611,-4.4388,-4.5027,-4.5442,-4.5511,-4.5528,-4.5407,-4.5372,-4.5423,-4.5441,-4.5336,-4.5283,-4.5196,-4.5142,-4.5074,-4.5058,-4.502,-4.4954,-4.4822,-4.471,-4.4643,-4.4553,-4.4553,-4.4553,-4.4553,-4.4553,-4.4587,-4.4553,-4.4553,-4.444,-4.4327,-4.4155,-4.4155,-4.4155,-4.427,-4.4097,-4.424,-4.5765,-4.6338,-4.6885,-4.7765,-4.8236,-4.8337,-4.8375,-4.7855,-4.7237,-4.6914,-4.6487,-4.5662,-4.4834,-4.405,-4.3269,-4.4028,-4.478,-4.4772,-4.4732,-4.5384,-4.6359,-4.741,-4.8586,-4.9515,-5.0083,-5.0647,-5.1102,-5.1401,-5.1623,-5.1908,-5.2401,-5.3561,-5.4548,-5.5056,-5.5492,-5.6347,-5.6993,-5.7335,-5.7606,-5.778,-5.7881,-5.7881,-5.7881,-5.7881,-5.7881,-5.7881,-5.7881,-5.7881,-5.7881,-5.7881,-5.7881,-5.7881,-5.7881,-5.7881,-5.7954,-5.8099,-3.9334,-3.9265,-4.0998,-4.1773,-4.1639,-4.1163,-4.0918,-4.0871,-4.1071,-4.1059,-4.0871,-4.0823,-4.068,-4.0485,-4.0485,-4.0353,-4.0288,-4.0238,-4.0712,-4.1562,-4.2142,-4.3014,-4.401,-4.4923,-4.5111,-4.5302,-4.5336,-4.5196,-4.5267,-4.523,-4.5192,-4.5336,-4.5069,-4.4961,-4.4961,-4.4831,-4.4797,-4.4763,-4.4763,-4.4665,-4.4643,-4.4587,-4.4553,-4.4553,-4.4553,-4.4553,-4.4553,-4.4587,-4.4587,-4.4553,-4.4417,-4.4188,-4.3772,-4.3476,-4.3535,-4.3595,-4.3772,-4.3595,-4.3959,-4.5257,-4.5979,-4.6524,-4.7231,-4.7701,-4.7835,-4.803,-4.7472,-4.6619,-4.6254,-4.5759,-4.4994,-4.4738,-4.4204,-4.3804,-4.4212,-4.4485,-4.4382,-4.4778,-4.5947,-4.6792,-4.7558,-4.8702,-4.9536,-5.0136,-5.0136,-5.057,-5.08,-5.0951,-5.1361,-5.1727,-5.2935,-5.4336,-5.5181,-5.5755,-5.6445,-5.7063,-5.7493,-5.7735,-5.7808,-5.7881,-5.7881,-5.7881,-5.7881,-5.7881,-5.7881,-5.7881,-5.7881,-5.7881,-5.7881,-5.7881,-5.7881,-5.7881,-5.7881,-5.7881,-5.7954,-3.9301,-3.972,-4.0931,-4.1498,-4.1587,-4.1117,-4.0776,-4.0631,-4.068,-4.0645,-4.0583,-4.0387,-4.0288,-4.0238,-4.0238,-4.0188,-4.0138,-4.0121,-4.0612,-4.1375,-4.214,-4.3113,-4.3902,-4.4599,-4.4906,-4.4995,-4.4906,-4.4886,-4.4852,-4.4865,-4.4788,-4.4776,-4.4665,-4.4665,-4.4575,-4.444,-4.444,-4.4384,-4.4236,-4.4293,-4.444,-4.4497,-4.4553,-4.4553,-4.4497,-4.4474,-4.453,-4.4553,-4.4327,-4.4097,-4.3979,-4.3674,-4.3295,-4.3174,-4.3174,-4.3202,-4.3262,-4.3113,-4.351,-4.4516,-4.5302,-4.5797,-4.6323,-4.6776,-4.7101,-4.7372,-4.7108,-4.6215,-4.5584,-4.5053,-4.4681,-4.4575,-4.4538,-4.4497,-4.4351,-4.4184,-4.3975,-4.5135,-4.6361,-4.7123,-4.7824,-4.8655,-4.9521,-4.9852,-4.9773,-4.99,-5.0058,-5.0263,-5.0692,-5.1184,-5.234,-5.3714,-5.5226,-5.594,-5.6581,-5.6877,-5.7105,-5.7364,-5.7439,-5.7588,-5.7808,-5.7881,-5.7881,-5.7881,-5.7881,-5.7881,-5.7881,-5.7881,-5.7881,-5.7881,-5.7881,-5.7881,-5.7881,-5.7881,-5.7881,-3.8857,-3.9065,-4.0026,-4.0724,-4.1082,-4.0693,-4.0485,-4.0337,-4.0337,-4.0337,-4.0337,-4.0188,-4.0087,-4.0087,-4.0087,-4.0087,-4.0087,-4.0087,-4.0832,-4.161,-4.2151,-4.3105,-4.3817,-4.4461,-4.4652,-4.472,-4.4665,-4.4609,-4.453,-4.4587,-4.4587,-4.4327,-4.427,-4.4155,-4.4039,-4.3948,-4.3981,-4.3889,-4.3654,-4.3713,-4.3948,-4.3948,-4.3948,-4.3948,-4.3981,-4.3956,-4.3914,-4.3963,-4.3772,-4.3495,-4.3338,-4.3277,-4.2929,-4.2618,-4.2618,-4.2678,-4.2645,-4.2585,-4.3009,-4.375,-4.4721,-4.5069,-4.5539,-4.6064,-4.6056,-4.6237,-4.5949,-4.5144,-4.5397,-4.4953,-4.4812,-4.4683,-4.482,-4.4798,-4.467,-4.4401,-4.4619,-4.5292,-4.6291,-4.7046,-4.7719,-4.832,-4.9059,-4.9501,-4.9533,-4.9546,-4.9627,-4.9778,-5.0195,-5.0986,-5.2055,-5.3134,-5.4584,-5.5618,-5.6224,-5.6414,-5.6492,-5.6724,-5.6954,-5.7105,-5.7331,-5.7735,-5.7881,-5.7881,-5.7881,-5.7881,-5.7881,-5.7881,-5.7881,-5.7881,-5.7881,-5.7881,-5.7881,-5.7881,-5.7881,-3.8315,-3.8157,-3.9054,-3.9822,-4.0417,-4.0238,-4.0138,-4.0138,-4.0138,-4.0138,-4.0138,-4.0138,-4.0087,-4.0087,-4.0087,-4.0087,-4.0155,-4.0358,-4.117,-4.1948,-4.2422,-4.3356,-4.4067,-4.4609,-4.4609,-4.4541,-4.4328,-4.4384,-4.437,-4.4279,-4.4039,-4.3772,-4.3654,-4.3535,-4.3202,-4.308,-4.3202,-4.3295,-4.3174,-4.3019,-4.3019,-4.3052,-4.3178,-4.3178,-4.3084,-4.3121,-4.308,-4.3125,-4.3105,-4.2818,-4.265,-4.2587,-4.2492,-4.2174,-4.2045,-4.2045,-4.1917,-4.1976,-4.2239,-4.3105,-4.3763,-4.4315,-4.4924,-4.5153,-4.511,-4.4911,-4.4662,-4.4767,-4.4986,-4.5059,-4.4851,-4.4684,-4.4818,-4.5073,-4.4849,-4.4894,-4.53,-4.5607,-4.6355,-4.7106,-4.765,-4.8275,-4.8624,-4.9147,-4.919,-4.9284,-4.943,-4.955,-5.0013,-5.1149,-5.2251,-5.2986,-5.3975,-5.4938,-5.5588,-5.5861,-5.5861,-5.602,-5.6257,-5.6492,-5.6877,-5.7514,-5.7881,-5.7881,-5.7881,-5.7881,-5.7881,-5.7881,-5.7881,-5.7881,-5.7881,-5.7881,-5.7881,-5.7881,-5.7881,-3.8486,-3.9388,-3.9808,-4.0152,-4.0436,-4.0238,-4.0087,-4.0087,-4.0087,-4.0087,-4.0087,-4.0087,-4.0087,-4.0087,-4.0087,-4.0087,-4.0155,-4.0561,-4.1373,-4.2219,-4.2794,-4.3707,-4.4226,-4.4373,-4.4553,-4.4271,-4.39,-4.3647,-4.3886,-4.3641,-4.3355,-4.3235,-4.3235,-4.3174,-4.3113,-4.3052,-4.2929,-4.2867,-4.2618,-4.2459,-4.2583,-4.2713,-4.3037,-4.31,-4.3065,-4.3095,-4.3121,-4.308,-4.2831,-4.2522,-4.2045,-4.1916,-4.1785,-4.1654,-4.1522,-4.1453,-4.1295,-4.156,-4.1969,-4.2612,-4.3148,-4.3766,-4.4202,-4.4465,-4.4343,-4.4082,-4.4083,-4.4463,-4.4617,-4.4692,-4.4582,-4.4281,-4.4374,-4.4891,-4.494,-4.5657,-4.6213,-4.635,-4.6773,-4.7334,-4.7943,-4.8285,-4.8481,-4.8749,-4.8758,-4.8921,-4.9412,-4.9555,-5.0049,-5.119,-5.248,-5.3044,-5.3553,-5.3913,-5.4497,-5.5049,-5.5295,-5.5377,-5.5701,-5.61,-5.6647,-5.7514,-5.7808,-5.7881,-5.7881,-5.7881,-5.7881,-5.7881,-5.7881,-5.7881,-5.7881,-5.7881,-5.7881,-5.7881,-5.7881]}]]